GFSMA_sfc_thetae_003.txt.gz
Theta_e
320 319 319 317 316 315 315 315 315 315 316 315 312 309 307 307 308 309 310 322 323 324 323 324 325 327 329 331 333 332 332 333 335 337 335 336 336 335 335 335 334 333 333
320 319 317 318 316 316 316 314 313 313 314 315 313 310 307 306 308 308 310 312 320 321 323 321 323 325 326 328 331 330 330 331 333 335 335 334 334 334 333 334 334 333 333
318 318 317 318 318 318 318 316 315 315 314 316 313 311 309 308 308 308 308 310 312 318 320 323 324 324 325 326 328 328 328 329 329 330 333 333 334 333 333 333 333 333 333
318 316 315 314 317 318 317 315 314 314 313 312 313 313 310 309 308 309 309 309 309 310 316 320 323 325 326 325 325 325 325 325 326 327 330 332 332 332 332 332 332 332 333
316 314 314 314 315 316 314 314 314 313 312 311 312 311 310 309 308 310 309 309 308 308 307 315 320 322 325 325 322 322 322 323 324 325 326 328 329 331 331 331 332 332 331
313 311 311 311 311 310 309 309 308 309 308 309 312 313 311 313 312 309 308 310 310 310 307 307 313 315 320 322 322 321 321 321 321 322 324 324 328 329 330 330 330 330 331
310 309 308 309 308 307 306 306 307 306 306 307 304 306 306 308 308 309 311 310 309 309 309 307 307 311 314 319 321 319 319 320 320 320 320 321 323 325 326 328 329 329 329
309 308 307 307 306 305 304 303 303 303 302 304 301 301 298 302 304 306 306 309 307 311 312 311 308 310 308 310 312 319 318 318 318 318 318 319 322 323 322 322 324 326 328
307 306 305 304 304 304 302 301 303 301 299 301 301 300 295 293 297 301 303 302 301 303 305 307 309 309 308 305 310 313 314 314 317 316 316 315 317 319 321 320 320 320 322
305 305 304 302 303 302 301 301 304 300 300 298 299 301 298 295 291 290 296 298 298 298 301 303 306 308 308 305 306 308 308 308 311 313 311 312 314 317 319 319 319 318 319
302 303 302 301 301 301 299 299 299 298 298 297 296 295 294 293 296 293 289 290 294 295 297 298 301 306 306 306 305 304 306 305 306 309 309 311 312 313 315 320 319 318 318
300 300 301 300 300 299 298 298 298 297 296 297 298 297 296 293 290 289 288 289 289 291 294 295 298 303 306 305 306 305 305 303 305 308 308 308 310 312 313 314 318 318 317
297 298 298 297 297 297 297 296 295 295 294 293 292 292 292 291 292 291 290 290 288 289 290 293 295 297 302 303 304 305 305 302 302 304 306 304 306 308 310 314 316 318 318
296 298 297 297 297 296 295 294 293 293 294 293 292 293 292 293 291 290 289 288 287 288 287 288 292 295 296 300 302 304 304 301 300 302 302 302 305 302 303 305 308 312 315
299 297 296 296 295 295 295 294 292 291 292 291 291 291 292 292 290 291 292 293 289 284 285 286 288 292 295 297 299 303 303 302 299 299 300 299 302 301 301 301 302 303 305
296 295 294 294 293 293 293 292 291 290 290 289 291 290 290 291 294 293 291 290 290 288 284 287 289 291 293 294 298 300 300 303 299 298 298 297 298 299 299 299 300 300 301
294 294 293 292 292 291 291 291 290 290 289 289 289 289 289 291 290 291 291 290 289 288 285 287 287 289 289 289 291 295 298 297 299 298 297 296 296 296 297 297 297 297 298
293 292 291 289 289 288 287 288 288 289 288 286 285 285 285 287 285 287 289 289 288 288 287 283 284 285 286 288 289 291 294 295 297 298 297 296 296 295 295 295 295 295 296
290 289 288 288 287 287 286 286 285 285 284 283 283 283 283 283 282 284 284 284 284 285 283 282 280 283 284 286 286 288 290 291 294 298 297 296 296 296 296 295 295 295 295
288 287 287 287 287 287 286 285 284 282 281 282 282 282 282 282 282 283 284 283 284 280 280 279 280 281 282 284 285 284 285 287 288 291 293 293 294 295 296 295 295 295 295
288 286 286 286 286 285 284 281 281 280 279 280 280 281 281 283 286 287 285 283 281 279 279 279 277 278 278 279 280 282 280 282 284 286 285 286 287 289 290 293 295 295 295
286 285 285 285 284 285 283 283 280 278 279 279 278 279 280 283 283 285 285 285 284 280 277 276 276 276 276 277 279 279 279 278 278 284 282 281 284 283 287 289 293 292 292
284 284 284 284 283 280 283 282 282 279 278 277 277 278 279 281 281 282 283 283 282 283 284 280 277 277 277 278 278 277 277 277 277 281 281 279 281 281 283 288 292 291 291
283 282 282 283 282 283 285 285 282 278 278 279 279 279 279 279 281 281 280 279 279 280 280 280 279 280 280 280 281 281 280 281 279 280 281 277 279 278 281 283 289 292 291
282 282 283 282 281 281 285 284 282 278 279 278 280 280 279 279 281 282 280 279 279 279 283 284 284 284 284 285 285 283 279 277 276 278 279 279 277 275 276 278 281 289 290
283 283 282 282 284 280 284 284 282 276 274 276 278 278 280 280 282 281 279 276 275 276 278 278 278 279 281 281 283 283 281 279 278 273 279 279 278 277 274 276 278 280 279

GFSMA_sfc_thetae_006.txt.gz
Theta_e
317 317 316 315 314 313 314 313 315 314 313 314 313 311 308 306 306 307 307 318 325 327 327 326 325 326 327 331 332 333 333 333 333 335 336 336 334 334 334 334 335 334 334
318 317 315 315 315 315 315 313 312 312 312 313 313 313 310 306 305 305 307 308 322 324 326 325 325 325 325 327 329 331 331 332 332 334 335 334 333 333 333 333 334 334 334
316 315 313 312 313 315 314 313 312 312 312 312 311 313 312 311 306 306 306 307 310 320 322 324 326 327 325 325 328 329 331 330 331 331 333 333 332 332 332 332 333 333 333
314 312 311 310 312 312 311 310 311 310 309 308 308 309 310 310 309 307 307 306 308 310 316 320 322 324 326 324 324 325 327 328 328 328 331 332 331 331 332 332 332 332 331
313 310 308 308 310 308 307 307 307 307 306 305 306 304 306 308 309 311 308 307 306 308 308 313 319 320 323 325 323 324 325 325 324 325 327 330 330 330 330 331 331 330 331
309 307 307 307 307 306 304 304 303 303 303 303 305 304 303 305 306 306 307 309 309 309 308 307 306 313 318 322 325 323 323 323 323 323 324 325 328 328 330 330 330 330 330
309 307 305 306 305 304 302 302 302 301 301 302 299 301 300 301 302 303 304 303 305 304 304 305 307 306 310 319 323 322 321 322 322 322 322 324 325 326 327 329 329 329 330
306 305 303 302 303 302 300 300 300 299 300 300 298 297 294 298 297 301 301 300 299 301 302 304 305 307 306 307 314 321 321 321 321 321 323 322 322 324 324 324 325 327 328
303 302 301 301 301 300 299 298 299 298 297 298 298 297 292 290 293 297 297 295 295 296 298 302 303 303 307 304 305 309 315 316 320 322 321 321 318 317 320 322 322 322 323
301 301 300 300 300 300 298 298 300 297 297 295 297 299 296 294 292 290 292 295 294 295 294 297 297 300 307 307 306 305 305 307 312 317 319 316 315 315 317 319 321 320 320
299 299 300 300 299 298 297 296 297 295 295 294 294 294 293 293 295 290 287 289 292 292 293 293 294 299 301 307 306 305 304 304 305 308 310 311 312 313 314 315 318 319 318
297 298 299 296 295 295 295 294 293 293 292 292 292 292 291 290 289 288 288 288 288 289 291 292 292 294 296 300 306 305 304 303 303 305 307 310 311 312 312 313 315 317 318
297 297 296 295 294 294 294 293 292 293 293 292 292 291 292 291 291 290 289 289 287 289 287 290 292 292 296 296 300 304 304 302 302 303 304 304 305 307 308 309 312 315 316
296 295 295 294 294 294 293 292 291 290 290 290 288 289 289 289 289 289 290 288 285 287 287 286 289 291 292 295 298 302 303 301 301 301 302 302 303 303 302 303 304 307 311
296 294 294 293 292 292 292 291 289 289 288 287 287 288 288 289 289 290 292 289 285 282 284 285 286 290 291 292 294 296 298 301 300 299 299 301 302 302 300 300 301 302 304
294 293 292 291 291 291 290 290 289 288 287 287 288 287 287 288 289 290 290 290 288 286 282 286 287 288 290 292 293 293 297 299 300 298 298 299 299 301 300 299 300 300 300
294 294 292 290 289 288 288 287 287 288 287 286 285 284 284 284 283 284 285 286 288 288 284 285 287 286 285 286 288 289 293 295 297 297 297 298 297 297 298 297 297 297 297
292 291 291 289 287 286 285 285 285 285 283 282 282 282 282 283 281 281 282 282 283 285 285 283 283 283 283 285 286 286 289 292 296 296 297 297 297 296 295 295 295 296 295
291 290 289 287 286 286 285 284 284 283 281 281 281 280 280 280 279 280 280 281 282 284 283 282 281 282 282 284 284 286 286 286 290 295 293 296 296 296 295 295 295 295 295
293 289 287 287 287 286 285 283 282 280 280 280 281 280 280 279 278 279 281 281 282 280 280 279 279 279 279 282 283 282 281 282 283 289 290 290 291 294 295 295 295 295 295
293 288 286 286 285 285 283 281 281 280 279 280 280 279 279 280 283 283 282 282 281 279 278 277 277 277 277 277 278 280 279 280 281 284 285 285 284 285 288 290 293 295 295
287 286 285 284 283 284 284 284 282 279 279 278 277 278 278 280 280 282 283 283 283 280 280 278 276 275 275 276 277 277 276 276 276 281 281 280 283 283 284 287 292 292 292
288 284 283 283 281 281 284 285 284 280 278 277 277 277 278 280 280 280 281 282 282 283 283 280 278 277 276 277 277 276 276 276 276 280 280 278 282 280 282 286 290 291 291
285 282 281 282 281 282 285 285 283 279 278 278 279 278 277 278 279 279 279 280 280 280 280 280 278 278 279 279 279 279 278 279 280 280 281 275 278 277 280 282 288 291 291
281 282 282 281 280 280 284 284 282 278 277 277 278 278 278 278 280 282 280 277 277 278 281 282 283 283 284 284 283 281 279 279 277 277 279 278 276 274 274 275 279 287 289
282 282 281 280 282 278 282 282 280 274 272 275 277 278 279 278 280 281 279 278 275 276 277 277 277 278 279 280 281 281 279 278 277 274 278 277 276 276 273 274 276 276 276

GFSMA_sfc_thetae_009.txt.gz
Theta_e
315 315 314 313 313 313 313 312 311 311 311 312 312 312 311 309 307 305 305 315 319 323 326 327 328 328 329 330 331 332 331 331 333 333 334 334 334 333 334 333 332 334 334
316 315 313 312 312 313 313 312 311 310 310 310 310 311 311 310 307 306 305 305 315 319 324 326 327 328 328 330 329 331 331 332 330 331 332 333 333 332 332 333 332 332 333
314 313 310 309 310 311 309 308 308 308 306 307 306 308 309 309 309 307 306 305 306 313 318 322 324 328 329 329 329 329 330 331 330 329 330 332 332 332 331 332 332 332 332
312 309 307 306 307 308 307 306 306 304 303 303 303 303 304 306 307 308 307 305 305 306 309 313 316 320 323 326 327 327 327 328 330 328 329 330 330 331 331 330 330 331 331
309 306 305 306 307 306 304 303 303 303 301 301 302 301 301 302 302 308 306 306 305 304 304 307 311 312 315 319 322 324 325 326 328 326 326 328 329 329 330 330 329 330 330
307 306 305 304 305 302 301 301 300 301 300 301 302 301 299 300 300 302 302 304 302 301 301 301 304 305 311 314 317 320 324 325 325 324 325 325 327 327 328 328 328 328 330
305 302 301 301 302 300 299 299 299 299 298 299 297 298 297 296 298 300 300 299 299 300 300 301 301 301 303 309 312 316 321 324 324 325 326 325 325 325 325 326 327 328 328
301 301 299 299 299 299 298 297 297 297 297 298 296 295 292 295 296 298 297 297 295 297 298 299 299 297 297 304 305 311 315 319 323 324 325 325 324 323 324 322 323 324 326
300 300 299 299 299 298 296 296 296 296 294 296 296 294 290 288 290 294 295 293 292 293 294 296 297 296 297 303 304 304 307 308 312 318 322 323 323 320 319 318 320 322 322
298 299 298 298 297 297 295 296 296 293 293 292 294 296 293 291 287 287 290 292 292 293 292 293 293 295 297 298 305 306 305 304 308 312 316 318 320 317 315 315 318 319 320
297 298 297 297 297 296 294 293 292 292 292 290 290 290 291 291 290 288 286 287 289 290 292 291 292 292 295 296 299 303 305 304 305 308 309 311 311 311 312 314 315 317 319
296 297 298 296 295 294 292 292 291 290 290 290 290 289 289 290 289 289 287 287 287 289 289 291 290 291 292 293 298 300 304 303 304 305 305 307 307 309 311 312 314 315 316
297 296 295 294 293 293 292 291 290 289 289 287 287 287 288 288 289 290 288 287 287 288 289 289 290 291 292 292 294 298 301 302 302 304 304 304 304 304 306 307 309 312 314
295 294 293 293 293 293 291 290 289 288 287 286 285 286 286 287 287 287 287 286 282 282 285 288 291 290 291 291 293 298 297 300 301 302 303 304 303 302 303 302 303 305 309
295 293 294 294 294 291 291 290 288 287 287 286 285 285 285 286 285 286 287 287 285 279 279 283 284 288 290 292 291 290 293 299 300 299 300 301 302 303 302 302 301 301 304
295 295 295 293 292 291 291 288 287 286 287 286 286 285 284 284 283 284 283 284 285 283 280 284 284 287 289 288 290 288 290 297 297 297 296 297 298 301 302 301 301 300 301
294 294 293 291 290 288 287 286 285 286 286 285 282 282 281 282 281 280 281 281 281 281 280 282 287 289 286 286 287 289 288 288 293 296 294 294 296 297 298 300 300 299 298
290 290 291 292 289 287 286 285 285 285 283 281 281 280 280 282 279 279 279 279 279 281 280 279 283 282 283 285 285 286 287 288 287 294 294 293 293 294 296 296 296 296 297
291 292 292 288 286 286 285 284 284 282 281 281 280 280 279 279 277 277 278 278 279 281 281 279 280 281 282 282 282 285 284 284 286 291 292 291 291 293 296 296 295 296 295
291 290 291 287 286 286 285 284 282 280 280 281 281 280 279 278 277 277 278 280 282 281 280 279 279 279 279 280 281 280 280 281 280 285 288 289 289 290 292 294 295 295 295
291 290 287 285 285 284 283 281 281 280 279 279 280 280 279 280 283 281 279 278 279 280 279 279 278 278 278 276 276 278 278 277 279 281 281 283 285 286 287 290 292 295 295
290 284 288 285 282 283 285 285 283 279 279 279 277 278 279 280 280 281 281 282 281 279 279 278 278 277 278 277 276 276 276 275 274 279 279 279 283 282 283 285 291 292 293
286 285 282 281 281 281 285 285 285 281 280 278 278 278 278 279 279 279 280 281 281 282 282 279 278 277 277 277 277 276 275 275 275 278 279 277 279 280 282 284 288 291 291
286 281 281 281 281 282 285 284 283 280 278 278 277 277 277 277 279 279 279 279 279 279 280 280 279 279 278 279 279 279 277 277 278 279 279 274 276 276 280 282 286 289 291
282 281 282 281 280 280 283 282 280 276 276 276 277 277 277 277 279 281 279 278 278 279 281 281 281 282 282 283 283 280 277 278 276 278 278 277 275 273 273 275 280 287 289
281 281 281 280 281 278 281 281 279 274 270 274 275 276 278 278 280 280 278 277 275 277 278 277 277 278 279 279 281 280 278 277 277 274 277 277 277 275 271 273 273 275 275

GFSMA_sfc_thetae_012.txt.gz
Theta_e
314 314 313 313 312 312 312 310 310 310 310 310 310 310 310 310 309 308 306 313 316 318 322 324 326 326 328 331 332 331 332 330 330 331 333 333 333 332 332 332 332 334 333
314 314 312 311 309 310 309 309 309 308 307 307 306 307 307 307 308 308 307 307 313 315 317 320 322 323 325 326 328 331 331 331 331 330 331 331 332 332 332 331 332 332 333
314 310 307 306 306 308 307 306 306 304 303 304 303 304 304 305 305 307 307 306 306 309 311 313 315 318 320 321 322 324 328 330 331 329 330 330 331 331 331 331 331 331 332
308 306 305 305 307 306 304 303 303 301 301 301 300 301 301 302 303 306 305 305 304 303 304 308 310 311 313 316 320 322 323 326 329 330 330 330 330 330 330 330 330 330 331
307 305 306 306 304 302 301 301 300 300 300 300 300 300 299 299 300 306 304 302 301 301 300 303 305 306 308 310 312 316 321 322 325 328 328 328 328 328 329 328 329 328 329
306 306 303 302 301 299 298 298 298 299 299 299 301 299 298 299 300 301 300 300 300 299 299 299 299 299 302 305 309 312 316 320 323 325 327 327 327 327 327 327 328 328 328
303 300 299 299 299 298 297 298 297 297 297 298 296 295 297 296 298 300 299 297 298 299 299 298 298 297 297 302 306 311 314 315 318 322 324 325 325 326 325 324 324 325 327
299 299 298 298 297 297 296 296 296 295 295 296 294 293 290 293 295 297 297 296 294 296 296 297 297 297 296 297 302 306 310 312 314 315 317 321 323 324 324 323 321 322 324
298 298 298 297 297 296 296 295 294 294 292 294 294 293 289 286 290 293 294 294 292 293 293 294 296 296 296 297 298 303 305 307 309 312 314 316 318 322 323 320 318 319 321
298 298 298 297 296 295 297 294 294 292 293 290 292 294 292 291 288 286 290 292 291 293 292 293 294 295 295 296 297 299 301 305 306 309 312 314 316 318 320 317 315 316 319
297 297 296 296 296 294 293 292 291 290 290 289 288 289 289 290 290 289 285 287 291 292 292 292 292 293 294 295 295 297 300 301 305 306 310 310 312 312 312 313 314 315 316
295 295 296 294 293 292 292 291 290 289 288 288 288 288 288 287 285 286 284 285 285 288 289 291 291 292 293 293 295 296 298 300 303 305 306 307 307 307 310 311 312 314 315
295 294 293 293 292 292 294 292 289 288 287 286 286 286 287 286 287 287 286 284 283 284 287 289 291 292 292 292 292 296 297 299 301 303 304 305 305 305 305 305 307 309 312
294 293 292 292 292 293 293 293 291 288 288 287 285 285 285 286 286 286 285 283 280 281 282 284 288 290 290 291 292 294 291 296 300 301 302 302 303 304 303 302 302 303 307
294 292 291 293 292 294 292 290 288 287 287 287 286 285 285 285 285 284 285 283 281 276 277 281 283 288 289 291 291 291 290 294 299 298 297 298 298 299 303 303 302 301 302
292 294 294 293 293 291 290 290 289 286 286 285 286 284 283 283 282 282 281 282 281 279 276 281 283 286 289 290 290 291 290 291 296 296 295 295 296 296 297 302 303 301 300
292 292 293 290 289 289 288 286 285 284 284 284 283 282 281 281 281 281 280 280 279 279 276 279 282 285 285 287 288 290 291 289 289 294 295 294 294 294 294 297 300 301 300
290 290 289 291 291 287 285 283 283 283 283 282 281 281 281 282 279 279 278 278 278 279 278 277 280 282 283 285 285 286 288 289 287 292 292 292 293 293 293 295 296 297 298
288 290 292 291 288 286 284 284 283 283 281 281 281 280 280 279 278 278 277 277 278 280 281 280 280 281 282 283 283 285 286 285 286 288 291 290 291 292 292 293 296 296 296
290 292 290 289 286 285 284 283 282 281 280 281 281 280 279 279 278 278 278 278 279 278 279 279 280 280 281 283 281 281 281 282 282 284 287 289 289 289 290 291 293 295 296
292 292 287 285 284 284 284 281 281 280 280 279 280 280 280 281 283 282 279 278 278 278 278 278 278 279 279 279 278 280 279 279 280 282 283 284 285 287 288 288 291 294 295
288 287 285 284 282 283 285 285 284 281 280 279 279 279 279 280 280 281 280 281 280 278 277 278 277 277 278 279 280 279 278 277 276 281 282 281 284 284 285 287 289 292 294
285 286 283 281 280 281 285 285 284 281 279 278 277 277 277 278 278 278 279 280 281 281 282 280 278 278 279 280 280 278 277 277 277 280 281 279 281 281 284 285 287 290 291
285 283 280 280 281 283 284 284 282 278 277 277 277 276 276 276 278 278 279 279 279 280 280 280 280 280 280 281 280 279 279 279 279 280 281 278 280 280 282 284 286 288 290
282 281 281 281 281 279 282 282 280 277 276 276 277 277 277 277 279 281 279 277 277 278 281 281 282 281 281 281 282 280 277 277 276 277 280 279 279 279 279 281 283 286 288
281 281 281 280 280 278 280 280 279 274 271 274 276 277 277 278 279 280 278 276 275 277 278 279 279 279 280 280 280 280 279 277 278 276 279 278 278 278 277 279 280 281 282

GFSMA_sfc_thetae_015.txt.gz
Theta_e
329 327 325 323 322 322 320 320 320 319 318 317 317 316 314 314 314 314 316 315 317 320 321 323 324 325 325 325 326 327 329 332 331 330 332 333 333 333 332 331 331 331 332
327 325 320 318 318 319 318 318 318 315 314 313 313 313 312 312 313 314 314 315 311 311 314 316 317 317 319 321 322 323 324 326 331 330 330 331 331 332 332 331 331 331 332
319 318 317 317 317 316 316 316 315 313 313 310 310 310 310 310 310 313 313 312 311 308 308 310 311 312 313 314 316 318 322 323 325 330 330 330 330 331 331 331 330 331 331
317 317 316 315 314 313 312 312 311 310 309 308 307 308 308 307 309 314 310 309 309 308 308 306 307 307 308 310 312 314 317 319 322 324 328 330 329 330 330 330 330 329 329
314 314 313 312 311 310 310 308 308 308 306 305 303 305 304 304 308 310 309 307 307 307 306 305 304 304 305 307 309 311 314 316 318 321 325 328 329 328 329 329 329 329 328
312 310 309 310 309 308 307 307 306 306 305 304 300 302 302 305 310 310 306 306 305 305 305 304 304 303 303 304 306 308 312 314 315 316 319 324 327 328 327 328 328 327 327
308 309 308 308 308 307 307 307 306 303 302 304 301 299 300 305 306 306 305 304 303 302 303 302 302 301 301 302 303 306 308 311 313 314 314 317 321 324 327 327 325 324 324
307 307 308 307 308 307 306 305 304 301 302 303 297 297 293 296 301 303 302 302 301 301 301 301 301 301 301 301 302 303 305 306 308 311 313 314 315 319 323 325 324 322 322
306 307 307 308 307 306 305 303 302 301 298 300 302 296 291 290 294 298 298 299 300 299 299 299 299 299 300 301 301 301 300 301 303 307 311 313 314 316 320 323 324 321 321
307 306 306 306 305 304 303 302 301 299 297 294 296 298 296 295 289 287 294 296 297 295 296 297 297 298 299 300 300 300 299 299 300 303 309 311 313 313 317 320 322 319 318
305 304 304 304 304 302 301 300 299 296 296 293 293 292 292 292 292 289 285 288 292 293 295 293 295 296 296 299 298 298 297 299 299 302 307 309 311 313 315 319 319 317 318
306 305 303 303 302 301 299 298 297 295 295 295 294 292 290 288 287 287 286 286 286 289 291 292 293 293 294 297 296 295 296 296 296 300 305 307 308 309 311 312 315 315 316
305 305 302 301 299 298 298 297 295 294 295 293 292 291 292 291 291 290 288 286 286 288 288 291 291 292 292 293 296 295 296 294 295 300 304 305 305 306 306 307 309 310 313
302 303 302 299 299 298 297 296 296 296 295 294 293 293 292 292 293 292 289 287 284 285 286 287 290 291 291 292 293 295 296 294 296 299 301 300 301 302 304 304 304 304 307
300 301 300 298 299 298 297 297 296 295 294 294 294 293 293 292 293 291 290 288 285 280 282 285 285 289 290 290 292 294 295 294 293 297 297 298 298 299 300 303 304 303 302
300 300 299 299 298 298 297 296 295 295 293 293 292 292 292 291 290 289 289 288 286 283 280 284 284 286 287 287 290 291 293 293 292 293 295 295 295 296 297 299 301 303 302
299 298 299 298 297 295 295 294 294 293 291 291 292 290 289 289 288 288 287 286 284 283 280 282 284 285 286 287 288 290 293 294 294 293 293 293 294 294 294 296 298 300 302
297 296 296 295 295 296 294 292 291 290 290 290 289 288 287 287 286 286 285 284 283 283 281 279 282 284 285 287 288 289 291 291 293 292 291 292 292 292 292 294 296 297 298
295 295 295 294 294 295 293 291 290 289 289 288 287 286 286 285 285 285 284 283 282 282 282 280 280 282 284 286 287 288 289 291 290 289 290 290 290 291 291 292 294 296 296
296 296 295 293 293 291 290 289 288 288 287 286 286 286 285 285 283 283 282 282 281 280 280 279 279 280 282 284 285 285 286 288 287 288 288 288 288 289 289 291 292 294 296
295 296 295 291 291 289 288 288 287 287 286 286 285 284 284 283 282 282 281 280 280 279 279 279 279 279 280 280 281 283 284 286 287 288 287 288 289 291 293 292 292 293 294
294 294 292 291 289 287 286 286 287 286 285 283 281 282 281 280 281 280 280 280 280 279 279 279 280 279 279 280 282 282 282 281 281 288 286 286 288 287 290 292 288 291 293
292 292 292 289 287 287 286 285 283 284 282 281 281 280 279 280 280 280 280 281 281 281 281 281 279 279 279 281 281 281 281 281 281 285 284 282 286 285 288 288 287 289 291
291 291 289 287 287 285 284 282 281 283 281 281 280 280 279 279 280 279 281 280 280 280 281 281 282 282 282 282 282 282 282 281 283 284 285 280 285 285 287 288 287 287 289
289 288 287 286 285 284 282 281 281 281 280 280 280 280 280 279 279 281 280 279 278 279 281 281 282 282 282 282 282 281 280 279 279 280 284 282 283 284 286 287 289 286 287
286 287 285 285 282 283 280 280 281 281 279 279 280 279 278 279 279 279 279 278 276 278 278 279 280 281 281 282 281 282 281 279 280 279 283 281 281 283 282 288 289 289 288

GFSMA_sfc_thetae_018.txt.gz
Theta_e
335 332 334 331 330 328 326 324 323 322 320 319 320 319 317 317 317 317 318 314 314 317 319 320 320 320 320 319 321 323 325 326 328 330 331 332 333 333 332 332 332 332 332
332 332 331 326 326 325 323 322 320 318 317 317 316 316 316 316 316 316 316 317 311 311 313 314 315 315 315 316 315 317 319 322 324 326 330 331 331 331 331 331 331 331 332
326 325 325 323 322 323 321 320 318 318 316 315 314 314 314 315 314 314 315 314 313 310 309 309 310 310 311 312 313 314 315 317 319 322 325 328 330 331 331 331 330 331 331
322 324 322 323 320 319 317 317 315 314 313 312 312 311 312 312 311 313 314 313 313 311 311 308 307 307 307 308 310 311 312 313 316 318 320 323 328 328 329 330 330 329 330
320 322 319 318 317 316 315 313 312 311 310 310 309 309 310 310 310 310 313 312 312 311 309 310 307 307 305 306 307 308 310 311 313 315 317 318 320 326 328 328 329 329 329
316 317 316 315 314 313 312 312 311 311 310 309 307 306 308 307 308 310 310 308 308 308 307 306 306 305 306 304 305 306 309 310 311 313 314 315 316 318 324 327 328 329 327
314 314 313 313 313 312 312 311 310 309 307 308 305 303 304 305 307 307 307 306 307 306 306 305 305 303 303 304 304 305 307 307 308 308 309 311 313 315 317 322 326 327 326
312 311 312 312 312 310 310 310 308 305 305 306 302 301 297 300 302 305 304 303 304 304 303 303 302 302 302 302 303 303 304 305 306 306 306 307 310 313 315 317 323 325 325
311 311 311 311 310 309 307 308 307 304 302 303 302 299 295 293 296 299 301 300 302 301 301 300 300 300 301 301 301 302 302 300 302 303 304 306 308 311 314 315 320 323 324
312 311 310 310 309 308 307 307 305 303 300 298 299 299 299 297 292 291 297 298 297 297 298 297 298 298 298 298 298 301 298 297 298 300 302 305 307 310 311 314 317 321 323
311 309 309 308 308 308 307 305 303 301 301 299 298 296 295 295 294 291 288 291 294 295 295 296 295 296 296 296 296 298 297 297 297 298 300 304 306 309 310 313 315 320 321
305 306 307 308 308 307 305 303 301 301 300 298 296 295 293 291 290 290 288 289 289 292 294 295 295 295 295 295 295 296 297 296 297 296 300 304 306 308 309 311 313 317 320
300 301 303 305 306 306 304 302 300 301 297 296 295 294 294 293 293 292 290 289 288 290 291 293 294 294 294 295 295 296 294 294 296 295 300 301 303 305 306 308 308 311 316
300 302 303 305 305 304 300 300 301 299 298 296 295 295 294 294 293 292 290 289 286 287 289 290 293 293 293 293 293 293 293 294 294 293 298 299 300 301 302 304 306 305 306
299 301 304 304 304 303 302 300 300 298 298 297 296 295 294 294 294 293 292 291 287 283 284 288 288 291 291 291 291 292 292 293 294 292 295 296 297 297 298 300 302 305 305
299 300 301 302 301 302 302 299 299 298 296 296 295 294 293 293 293 293 291 291 289 286 284 287 287 289 290 289 291 292 292 292 292 292 294 294 295 295 296 296 298 300 304
299 298 299 300 300 299 298 299 298 297 295 294 294 292 293 293 291 291 291 290 288 287 284 286 287 289 288 288 290 290 292 292 293 294 292 292 293 293 293 294 295 297 300
298 298 298 298 298 297 298 297 297 295 293 292 292 292 291 290 291 291 289 288 287 286 284 282 284 285 286 287 288 288 289 291 291 294 292 291 292 292 292 292 293 295 297
297 298 298 297 297 297 297 296 294 293 293 292 292 291 290 290 289 288 288 287 285 284 284 282 282 284 285 286 285 287 288 290 291 293 291 292 292 291 291 291 293 294 296
297 297 297 297 297 295 294 293 293 292 292 291 291 290 290 288 287 286 285 284 284 283 283 282 281 282 284 285 285 284 286 288 289 291 291 288 289 290 291 291 293 293 294
296 296 296 296 296 294 293 292 292 291 291 290 290 288 287 285 282 282 282 282 282 281 280 280 280 280 281 282 282 283 283 285 287 289 289 289 290 291 291 292 293 292 292
295 295 295 295 295 293 286 286 286 290 289 288 286 286 286 284 283 281 281 281 281 281 280 280 281 280 280 282 283 283 283 283 281 288 288 286 290 288 290 292 288 290 291
295 294 295 295 293 292 286 284 283 288 287 286 285 284 284 283 283 283 282 281 282 282 282 282 280 280 281 283 283 282 282 282 282 285 285 283 287 286 290 290 287 289 290
293 293 293 292 292 289 284 282 282 287 286 285 284 284 284 283 283 281 281 281 282 283 283 282 282 282 282 283 283 283 283 282 284 284 286 281 286 286 288 290 288 286 289
293 292 292 291 291 290 283 281 282 286 285 284 284 284 282 282 281 280 280 279 280 281 282 282 282 281 282 282 283 283 281 280 280 282 285 284 284 285 287 289 291 287 287
291 291 290 291 285 288 282 281 282 286 284 283 284 283 280 280 279 279 279 279 278 279 279 280 281 282 282 282 282 283 281 279 280 280 285 282 282 284 282 288 290 291 290

GFSMA_sfc_thetae_021.txt.gz
Theta_e
335 334 333 331 329 328 327 326 324 322 322 320 320 319 318 318 317 316 318 317 318 317 317 318 318 318 318 317 317 318 319 321 323 325 327 330 332 332 332 332 331 331 332
331 327 329 329 326 326 325 323 321 319 319 319 317 317 317 316 317 316 315 317 316 315 314 313 314 314 315 314 314 314 315 317 318 320 322 325 328 330 331 331 331 331 331
330 331 328 325 324 323 322 321 320 318 316 315 315 314 314 314 314 313 313 315 315 313 312 311 309 310 310 310 311 312 313 313 314 316 318 319 320 325 328 330 330 330 330
325 325 324 323 322 321 318 317 316 314 313 313 312 312 311 311 312 312 312 314 314 313 310 309 307 307 306 307 308 309 310 311 312 313 314 316 318 319 321 325 329 330 330
322 323 320 320 319 317 316 315 314 314 312 312 310 310 311 309 310 308 309 311 314 311 310 311 311 310 304 306 307 308 309 309 310 311 312 313 314 316 317 319 323 328 329
319 320 319 318 317 315 315 315 314 313 312 310 306 306 309 307 307 307 308 310 309 309 309 307 306 306 308 305 305 306 308 309 309 309 309 309 310 312 314 316 317 323 328
316 316 316 316 316 314 314 313 312 310 306 307 305 304 304 307 308 306 306 307 306 306 306 305 305 304 303 306 304 305 307 307 308 307 307 307 307 308 309 313 315 318 323
315 314 315 314 314 311 311 310 309 306 305 306 302 301 296 298 303 304 303 303 306 303 303 303 303 302 301 301 302 302 304 304 304 304 304 305 305 306 308 310 312 315 319
315 314 313 312 311 309 306 307 307 306 301 303 304 299 293 292 296 300 300 301 304 301 301 300 300 299 300 299 299 299 301 299 300 301 302 303 304 305 306 309 311 313 316
313 312 311 310 309 308 307 306 305 304 302 299 301 301 301 299 292 290 295 297 298 297 300 298 297 297 297 297 299 299 297 297 297 299 301 302 303 304 305 307 309 311 313
308 307 306 307 308 308 307 307 305 304 302 301 299 298 297 296 295 291 288 291 294 295 296 296 296 296 296 297 297 297 298 298 295 296 297 300 302 304 305 306 308 310 313
303 304 303 304 305 306 306 306 305 303 302 301 298 297 295 292 291 290 288 289 290 292 294 295 297 296 297 297 297 298 298 296 295 295 296 299 300 303 304 306 308 310 312
301 302 303 303 303 304 305 304 303 302 302 298 297 296 295 294 294 292 290 289 288 291 293 295 295 295 294 296 296 296 295 294 295 295 296 297 298 301 302 304 306 308 309
300 301 302 303 304 304 304 303 301 302 301 299 297 296 295 295 294 293 291 289 287 288 290 290 294 295 295 294 295 295 293 294 293 294 295 295 296 298 299 299 301 303 306
300 300 301 301 302 303 303 303 302 301 299 298 298 297 295 295 295 294 293 291 289 284 285 289 289 293 293 293 294 293 293 293 294 293 293 294 296 297 297 297 298 299 301
300 300 299 300 300 301 302 302 300 300 298 298 297 295 294 294 294 293 292 292 291 288 284 289 289 291 291 290 292 292 292 293 293 293 293 294 294 294 295 295 296 297 298
299 299 299 298 298 298 299 298 298 298 297 297 296 294 294 294 292 292 293 291 290 289 285 288 289 290 289 289 289 290 291 292 292 293 293 294 293 293 293 293 294 295 296
299 298 298 298 298 298 297 297 297 297 296 294 294 293 292 292 291 291 290 289 289 289 287 284 286 286 286 287 288 288 288 289 290 291 294 293 292 293 293 293 292 294 294
298 298 297 297 297 297 296 296 294 294 294 293 293 292 291 290 289 288 288 287 287 286 286 284 283 285 286 287 286 287 287 288 289 292 291 291 292 293 292 292 292 293 294
297 297 297 297 297 296 295 295 294 294 293 293 292 292 291 289 287 286 284 284 284 283 283 282 282 282 283 285 286 285 285 287 287 289 290 291 291 292 292 293 292 293 293
297 297 296 296 296 296 294 294 293 293 292 291 291 290 289 286 283 283 283 282 282 281 280 280 280 281 281 282 282 284 284 284 286 288 288 290 290 291 291 291 292 292 291
296 296 295 295 295 295 287 286 286 290 290 289 288 288 288 287 286 284 283 282 282 280 280 280 280 279 279 281 283 283 283 281 279 287 286 285 289 289 290 291 288 290 290
296 295 294 294 294 293 287 285 283 288 289 289 287 286 285 285 285 285 284 283 283 284 283 282 280 280 280 282 282 281 281 282 281 284 285 283 288 286 289 290 289 288 290
295 294 294 293 293 290 285 283 283 287 289 288 287 286 285 285 284 281 281 281 281 282 283 282 282 281 282 282 281 281 281 282 283 284 286 281 285 285 288 290 289 288 288
294 294 293 292 291 290 284 283 282 287 287 286 286 286 284 283 281 280 279 279 279 281 283 283 282 282 282 283 283 282 280 280 279 281 285 283 284 285 287 288 291 289 288
293 293 292 292 287 291 284 283 282 286 285 285 285 285 282 280 279 279 279 278 277 279 278 279 280 282 283 283 284 283 282 279 279 279 284 283 283 283 282 288 289 291 290

GFSMA_sfc_thetae_024.txt.gz
Theta_e
331 330 329 326 328 325 323 321 319 318 317 317 317 316 314 313 312 312 313 319 320 317 316 317 317 316 316 316 315 316 316 317 318 320 321 322 324 327 329 330 331 330 330
326 325 326 325 324 322 320 319 318 316 314 314 313 313 312 311 311 312 310 312 317 317 314 314 314 313 312 311 311 312 313 314 315 316 317 318 320 321 323 325 328 330 330
327 325 324 323 321 320 318 316 315 313 311 311 310 310 310 309 308 309 310 308 312 316 314 311 309 310 309 309 309 310 311 311 312 313 314 315 316 317 318 320 322 324 330
324 322 321 320 318 318 315 313 312 310 310 309 308 308 307 307 305 306 307 306 310 309 312 311 309 309 307 308 308 309 310 310 310 311 312 312 312 313 314 316 318 320 323
322 320 318 317 315 315 313 313 311 310 308 307 306 303 304 303 304 305 304 304 306 308 307 312 312 311 306 306 307 309 309 310 310 310 310 310 310 310 310 311 313 316 318
318 317 317 314 313 313 312 311 309 309 307 303 303 302 302 303 302 302 303 305 304 305 305 304 302 302 309 306 305 306 308 309 309 309 308 308 307 308 308 309 310 312 315
315 313 314 314 313 310 310 308 305 304 303 303 299 299 299 299 299 298 299 299 301 301 303 303 300 298 298 303 303 304 305 307 306 306 305 305 305 305 306 307 309 310 312
313 313 312 311 310 307 306 305 303 301 301 301 296 295 292 294 296 297 297 297 296 300 300 298 298 298 296 295 297 301 302 302 303 303 302 302 303 304 305 306 307 308 310
313 312 311 309 307 305 303 303 302 301 297 298 298 294 290 288 292 295 294 294 294 295 295 296 296 296 295 293 295 297 299 297 297 299 300 300 301 302 304 305 306 307 309
311 309 307 307 306 306 304 303 302 300 298 294 296 299 295 293 287 286 290 291 292 292 292 293 293 294 294 293 296 300 298 298 296 297 298 299 300 300 302 304 306 307 308
305 304 303 303 302 302 303 303 302 300 298 295 295 293 292 291 290 286 284 285 289 291 291 291 293 292 293 293 292 295 299 297 295 295 297 298 299 299 301 303 305 306 307
301 302 302 301 301 301 301 302 301 300 299 297 296 294 291 288 287 286 284 285 285 287 289 291 291 291 292 292 294 299 297 296 296 294 295 296 296 298 299 301 304 305 307
299 299 299 299 300 301 301 301 299 298 297 296 295 292 292 291 290 289 287 286 284 287 288 288 289 290 291 290 291 297 296 296 296 294 294 295 295 296 298 299 301 302 303
298 299 299 299 299 301 300 300 298 297 297 296 295 294 292 293 292 290 287 285 283 284 286 285 288 289 288 290 292 296 290 294 295 295 294 294 294 294 294 296 298 300 301
298 298 298 298 298 298 299 297 298 298 298 296 294 295 292 294 293 290 290 288 284 280 281 285 285 288 288 288 289 288 288 292 293 293 293 294 294 294 294 295 297 298 298
298 298 298 297 297 297 297 297 297 296 295 294 296 294 293 293 291 290 289 288 287 284 281 285 285 286 287 288 289 287 287 291 291 291 292 293 294 295 294 295 295 296 296
298 297 297 296 296 296 296 295 294 294 294 293 293 293 293 292 288 288 287 287 285 285 281 283 285 285 284 284 285 286 287 286 287 291 292 292 293 294 294 294 293 294 294
298 296 296 296 296 296 295 294 293 293 292 291 291 290 290 291 288 287 286 284 283 283 281 279 282 282 282 284 284 284 286 288 287 290 291 292 293 293 292 293 293 293 293
297 296 296 295 295 295 295 294 293 292 291 290 290 289 289 288 285 284 282 281 281 283 281 279 279 281 282 282 282 283 284 285 287 290 290 291 291 291 292 292 293 293 293
296 295 295 295 295 294 294 294 292 290 290 290 290 289 288 286 282 281 281 279 280 278 279 278 278 279 279 281 282 280 281 282 283 286 288 289 290 291 291 292 293 293 293
296 296 295 294 294 294 292 291 290 289 288 288 288 288 286 285 284 282 280 278 278 277 277 277 277 278 278 278 277 280 280 281 282 283 283 286 287 289 288 290 292 292 291
295 295 294 294 293 292 288 287 286 285 287 286 284 284 284 286 285 284 285 284 281 277 276 277 277 277 277 278 280 279 278 277 277 283 281 281 286 286 287 290 291 290 290
295 294 294 293 292 288 287 286 284 284 284 284 283 283 283 285 283 281 282 282 281 283 283 280 278 279 279 279 278 277 276 276 276 280 280 278 281 283 286 288 289 289 289
293 293 292 292 291 288 287 285 284 281 284 284 283 283 281 281 279 279 278 277 278 279 279 280 277 277 278 279 279 279 278 278 279 280 280 276 280 281 283 284 290 290 289
292 292 292 291 290 285 286 285 283 282 283 283 284 283 283 280 280 281 277 276 276 277 281 281 280 281 283 284 283 280 277 276 275 277 279 279 280 281 280 281 282 289 289
292 292 291 290 288 285 285 284 283 281 281 281 282 282 281 280 280 280 276 275 274 276 276 276 277 280 281 281 284 283 280 277 276 276 279 279 280 281 276 278 280 281 280

GFSMA_sfc_thetae_027.txt.gz
Theta_e
322 321 321 321 320 318 317 316 314 313 311 311 310 310 309 308 308 308 310 319 320 319 318 317 316 315 314 313 312 313 314 314 315 316 316 317 318 319 320 320 322 323 328
321 322 321 320 316 315 313 313 310 309 307 308 308 308 307 307 305 305 307 310 318 319 316 315 313 311 311 311 310 311 311 312 312 314 314 315 314 314 315 316 318 320 322
322 319 318 315 313 313 311 309 309 308 307 309 307 307 306 304 303 302 304 303 312 317 316 312 309 310 309 309 309 309 310 310 311 312 312 312 312 312 312 312 313 315 318
320 318 315 312 311 311 309 308 308 307 306 305 303 302 302 301 302 301 301 301 307 309 314 313 310 309 308 308 308 309 309 310 310 310 311 311 310 309 309 310 311 312 313
318 314 312 310 309 309 309 308 306 306 304 303 300 298 298 299 298 302 301 301 302 304 307 312 312 311 307 307 307 308 308 308 308 310 309 308 307 307 307 308 309 310 311
312 312 310 308 309 307 306 305 303 303 303 299 302 299 298 298 297 296 296 299 298 298 301 301 299 301 307 304 304 304 306 307 307 307 307 306 305 305 305 306 307 308 309
310 308 308 308 306 305 303 302 301 299 298 299 296 294 295 296 295 294 295 295 295 297 297 297 298 298 298 302 301 301 303 303 302 303 303 302 302 303 303 303 305 307 308
309 309 307 305 304 302 301 300 299 297 298 296 293 291 289 291 293 295 293 293 291 294 295 297 296 296 294 293 294 298 299 299 300 301 300 300 300 301 302 302 304 305 307
309 307 306 304 302 301 299 299 298 297 294 294 295 292 287 285 288 291 291 291 289 289 290 291 293 293 292 291 293 294 299 299 298 299 299 299 300 300 301 301 302 303 305
304 301 301 299 298 299 299 299 300 297 295 292 293 296 291 290 284 283 287 288 288 289 288 289 290 291 291 291 294 298 300 298 295 296 297 298 299 299 299 300 301 302 304
300 300 299 297 296 297 296 297 297 297 295 293 292 291 289 288 287 284 281 283 286 287 288 288 289 289 291 290 289 292 299 296 295 295 296 297 298 298 299 299 300 301 302
297 299 298 297 297 296 296 297 297 295 294 294 293 293 290 287 285 284 282 282 283 285 287 288 287 288 289 288 293 297 298 297 295 294 295 296 297 297 298 298 299 300 301
294 294 295 295 295 296 297 297 295 295 294 293 292 291 291 290 289 288 285 283 282 284 285 286 287 287 290 288 288 294 294 294 294 293 294 294 295 295 296 296 298 298 300
295 294 295 294 295 295 295 295 295 295 294 293 292 291 291 290 291 289 287 283 280 281 282 283 286 287 287 287 289 293 287 292 293 293 292 292 293 293 294 295 296 297 297
296 295 295 294 294 294 294 293 293 295 294 293 294 295 292 293 293 293 291 287 284 277 280 282 282 286 285 285 287 286 285 290 292 292 291 292 292 293 293 294 295 295 296
295 294 293 293 293 293 293 293 292 292 291 291 293 292 292 292 293 292 289 286 284 282 277 281 281 282 283 286 287 286 285 290 289 291 291 292 293 292 292 293 294 295 295
294 294 293 293 293 293 293 292 291 291 292 291 291 291 290 291 290 289 287 284 282 281 277 279 281 282 281 281 283 284 286 285 285 289 291 291 291 292 292 292 293 294 294
294 293 293 294 294 293 292 292 291 290 289 289 289 288 288 289 285 284 282 280 280 279 277 276 278 279 279 280 281 281 284 286 285 288 290 290 291 291 292 291 292 293 293
293 293 293 293 293 293 292 292 292 290 289 289 288 287 286 285 282 280 279 278 278 280 277 276 277 278 278 279 280 281 282 282 285 287 287 289 290 290 291 291 291 292 292
293 292 292 293 293 293 293 293 291 289 289 289 289 287 286 283 280 279 279 277 278 277 277 276 276 277 278 279 279 277 278 280 280 284 285 287 288 289 289 290 290 291 293
294 294 294 293 293 292 291 289 288 287 286 285 285 285 284 284 286 282 279 277 277 276 276 276 275 276 277 277 277 279 277 278 278 280 280 281 283 284 285 288 288 290 291
293 293 292 292 291 291 288 288 286 284 285 284 282 281 282 284 284 285 284 283 281 277 275 274 276 275 276 277 279 276 276 275 273 278 278 278 281 280 283 287 288 289 291
292 292 292 291 290 288 288 287 285 283 283 282 281 280 281 283 281 279 280 280 280 281 281 277 275 274 274 276 276 276 275 275 275 277 277 276 278 278 283 286 288 289 290
291 290 290 291 290 288 288 287 284 281 282 282 281 281 280 278 279 279 277 276 277 277 278 278 275 275 276 277 277 278 277 277 278 279 278 274 278 278 280 283 286 288 290
289 290 291 290 288 286 287 286 283 280 281 281 282 281 281 278 281 281 277 276 275 276 279 281 280 281 282 282 282 281 279 278 274 276 278 277 277 276 278 280 281 287 289
290 290 288 288 288 285 286 286 283 279 280 279 280 280 282 279 280 280 276 274 273 275 276 276 276 278 279 280 283 280 279 277 277 276 278 277 277 277 275 277 280 279 280

GFSMA_sfc_thetae_030.txt.gz
Theta_e
319 320 318 317 315 314 313 311 310 308 307 307 307 307 306 305 303 304 307 317 320 320 317 318 317 315 313 313 313 313 313 313 313 314 314 313 313 314 314 314 315 316 317
320 319 317 314 313 311 310 308 307 306 306 306 306 305 305 302 301 301 303 305 316 319 318 316 313 312 311 311 311 311 311 311 312 312 312 312 312 311 311 311 312 313 314
319 316 314 311 311 310 308 308 307 306 305 306 304 302 302 301 301 300 300 300 307 317 318 313 309 310 309 309 309 309 310 311 310 309 311 310 309 309 309 309 309 310 312
318 315 311 309 309 309 307 306 305 304 304 303 299 297 298 299 298 298 298 299 302 306 313 313 310 308 307 307 308 308 309 308 308 309 310 308 307 307 307 307 307 308 309
317 312 309 307 308 307 305 305 304 303 302 299 299 297 297 297 296 298 296 296 296 299 303 308 308 308 306 305 306 307 307 307 307 307 306 306 306 305 305 305 305 306 307
312 309 307 306 306 304 302 301 300 299 299 297 300 296 295 295 294 294 294 295 295 297 297 296 295 300 306 302 303 303 304 305 304 304 303 304 303 303 303 303 304 304 306
309 307 306 304 304 302 300 300 298 297 297 296 293 293 293 293 293 293 292 292 292 293 293 294 295 294 295 301 300 300 301 302 302 301 301 301 301 301 302 302 302 303 304
307 306 305 303 302 301 299 298 297 295 296 294 291 290 287 290 292 292 290 291 288 290 291 292 292 293 292 291 295 300 301 299 300 300 300 300 300 300 301 301 302 302 303
307 305 304 302 301 300 299 298 298 296 293 293 293 291 286 284 286 289 289 288 287 287 288 289 291 291 290 289 292 295 298 298 297 297 298 299 299 299 300 301 301 301 301
301 300 299 297 297 296 295 296 299 295 293 291 291 294 290 289 284 282 286 286 287 288 287 287 288 289 290 289 292 295 298 298 295 295 297 298 299 299 300 300 300 300 301
298 299 297 296 296 295 295 295 295 295 293 291 291 290 289 288 286 284 280 283 285 287 287 287 287 287 289 288 287 290 298 298 295 295 295 297 298 298 298 299 299 299 300
297 296 296 295 294 294 295 295 294 294 293 293 292 294 292 290 285 283 281 281 282 284 286 287 286 286 287 287 292 295 296 295 293 293 294 295 296 297 297 297 298 299 299
296 295 295 295 294 294 294 295 294 293 292 291 291 291 290 290 288 287 284 282 281 283 284 285 286 286 289 287 287 293 292 292 292 292 293 293 294 294 295 296 296 297 298
295 295 295 294 293 293 292 292 292 293 293 291 291 291 291 291 290 289 288 287 282 281 281 282 284 285 285 285 287 291 286 290 290 291 291 291 291 292 293 294 294 295 297
296 296 294 292 295 293 292 291 291 292 292 292 291 291 291 291 291 292 292 291 286 279 278 280 280 283 283 284 285 285 284 288 289 289 290 290 291 291 292 292 293 294 295
296 295 294 294 292 292 291 291 291 291 290 290 291 290 290 290 292 291 289 288 285 283 279 279 279 280 282 284 285 284 283 288 288 288 289 289 290 291 291 291 292 293 294
296 295 293 294 292 292 291 290 290 290 290 290 289 289 290 290 288 287 285 283 282 281 277 278 279 279 278 279 281 282 283 282 283 287 288 289 289 289 290 290 291 292 292
295 293 293 292 292 292 292 290 290 290 290 288 289 288 288 291 286 284 282 280 279 279 277 275 276 277 277 278 279 279 282 284 283 286 287 287 287 288 290 290 291 290 291
293 292 292 292 292 292 292 292 291 290 288 288 289 287 286 286 283 281 280 278 277 280 277 275 275 277 277 278 278 279 280 280 283 285 285 285 286 288 288 288 289 290 290
294 292 292 292 293 291 292 292 290 288 288 288 288 287 285 284 281 279 278 277 277 276 276 275 276 276 276 278 278 277 278 279 279 281 282 283 284 286 286 287 287 289 289
293 293 292 292 292 292 291 290 289 287 285 284 285 284 283 283 286 281 279 277 277 276 275 275 275 275 276 276 276 277 277 277 277 278 278 279 280 280 281 284 286 288 288
292 292 291 291 290 291 290 290 287 284 285 284 282 281 281 284 285 285 284 283 280 276 274 273 274 274 274 274 275 275 275 274 273 277 276 277 279 278 280 281 285 288 288
292 291 290 290 290 290 289 289 287 283 282 281 281 280 281 283 282 280 280 280 279 279 279 275 273 273 273 274 275 275 275 275 275 278 278 276 277 276 280 282 285 286 288
290 289 289 290 289 289 288 288 286 281 281 282 281 280 280 279 279 279 277 277 277 277 277 277 275 275 275 277 278 279 279 279 279 279 278 275 277 276 279 280 285 287 287
289 289 289 289 288 286 288 287 284 280 281 281 282 281 281 279 281 282 278 277 276 276 279 280 280 281 281 281 281 280 277 276 274 276 279 278 276 275 276 277 280 286 286
288 288 287 287 287 284 287 287 284 279 280 280 280 280 283 280 282 281 277 275 273 275 276 276 276 277 278 278 281 278 278 275 275 274 278 278 278 276 274 276 277 277 282

GFSMA_sfc_thetae_033.txt.gz
Theta_e
318 317 316 315 313 312 310 308 306 306 306 306 305 304 302 301 300 301 301 312 318 319 317 318 317 315 314 314 313 313 313 313 314 313 313 313 312 311 311 311 312 312 313
318 316 314 312 310 309 308 307 305 305 304 304 302 302 300 300 298 298 298 299 311 318 318 316 314 313 312 311 310 310 310 312 311 311 312 311 309 309 309 309 309 310 311
318 314 311 310 309 307 307 306 305 305 304 303 299 299 299 299 297 297 297 299 306 314 317 313 310 310 309 309 308 308 309 308 309 311 310 309 308 307 307 307 307 307 308
316 312 309 308 308 307 305 304 304 302 301 298 297 296 297 296 296 295 295 295 298 305 308 312 310 309 307 307 307 307 308 308 308 307 308 307 307 306 305 305 305 306 306
315 310 307 307 306 304 303 303 300 301 298 297 298 295 295 294 294 296 294 294 296 299 298 303 306 307 305 304 304 305 305 306 306 307 306 305 304 304 304 304 304 304 305
311 307 306 305 303 301 300 299 297 298 296 296 298 295 292 293 293 292 291 293 293 293 293 293 294 295 305 303 303 303 304 304 304 304 303 303 302 302 302 302 303 303 304
308 305 304 303 302 300 299 299 297 296 295 294 292 292 292 291 291 291 290 289 290 291 291 291 292 291 292 299 301 301 302 302 302 302 302 302 301 301 301 301 302 302 302
306 305 303 301 300 299 297 297 296 295 295 293 291 289 286 289 290 291 288 289 287 288 290 291 290 290 290 289 294 299 300 300 301 301 300 300 300 300 300 301 301 302 302
305 304 302 300 299 299 296 296 296 295 293 293 292 291 286 284 285 288 288 287 286 286 287 288 289 289 289 288 291 293 296 296 296 298 298 299 299 300 300 301 301 301 301
301 299 297 296 296 295 294 295 296 294 292 291 290 293 289 288 284 283 286 286 286 287 286 287 287 288 288 288 291 294 296 298 296 297 298 298 299 299 300 300 300 300 300
297 298 297 297 296 295 294 294 294 294 293 290 290 290 289 287 286 284 280 283 285 286 286 287 287 286 287 288 286 289 296 297 296 295 296 297 298 298 299 299 299 299 299
296 295 296 295 297 296 294 295 293 293 293 292 291 291 290 287 285 284 282 281 281 284 285 287 286 286 287 287 291 294 294 293 292 293 294 295 296 297 297 297 298 298 298
294 295 296 296 296 295 295 295 293 293 291 290 290 290 290 289 288 286 284 282 281 282 285 286 286 286 287 285 286 291 291 290 290 291 292 293 294 294 295 295 295 297 297
296 296 296 296 295 295 294 290 290 291 292 291 291 291 290 290 290 288 286 286 286 285 283 285 285 285 284 284 286 289 285 288 289 289 290 291 291 291 292 293 294 295 296
296 296 295 295 295 294 291 291 290 290 291 291 290 290 290 291 290 290 290 291 288 282 278 281 281 282 282 282 283 283 282 286 288 288 288 289 290 290 291 292 292 293 294
297 296 295 295 294 292 291 290 290 291 290 289 290 289 289 290 290 290 289 287 286 281 277 280 279 280 280 282 282 281 281 286 286 287 287 288 288 289 290 290 291 292 292
296 296 295 294 292 291 291 291 290 289 289 288 288 287 288 289 288 287 286 284 282 282 279 278 278 278 277 277 279 279 281 280 281 286 286 287 287 287 287 288 289 290 291
295 295 293 292 291 291 291 290 289 289 288 287 287 287 288 290 286 284 283 281 280 278 277 275 276 276 276 277 278 278 281 283 281 284 286 285 285 285 286 286 289 289 289
293 292 291 291 291 292 291 290 289 289 287 287 287 286 286 285 283 281 280 279 277 279 277 275 275 276 276 277 277 278 279 279 282 284 284 284 284 284 285 286 287 287 288
293 292 292 292 292 291 290 290 290 288 287 287 287 286 285 284 282 280 279 278 277 276 276 275 275 275 275 277 277 276 276 278 278 280 281 282 283 284 285 285 285 286 287
294 293 293 293 293 292 290 290 288 287 285 284 284 284 283 283 285 282 279 277 276 275 275 274 274 274 275 274 274 275 274 275 277 278 278 278 279 280 280 282 284 285 286
293 293 292 292 291 290 290 290 288 285 284 283 282 281 281 285 286 286 285 283 279 276 274 273 273 273 273 273 273 273 273 274 273 277 276 277 280 278 280 280 283 285 286
292 291 290 290 289 290 290 290 289 283 282 281 281 281 280 282 283 281 283 282 281 280 280 275 273 273 272 274 274 274 275 276 275 278 278 276 278 277 279 281 284 285 287
291 290 289 289 288 288 289 289 288 282 281 281 281 280 280 279 280 279 278 277 277 277 277 277 275 275 275 276 276 278 278 278 278 278 278 275 277 276 279 279 284 286 287
290 288 288 286 285 285 288 288 286 280 280 281 282 281 281 279 282 283 278 277 277 277 279 280 281 281 281 281 280 277 274 274 273 275 277 277 277 277 278 279 279 285 286
288 286 285 284 285 284 286 288 286 279 280 280 280 281 284 281 282 283 278 276 274 276 276 276 276 277 278 278 280 277 276 274 274 273 276 276 277 278 276 276 276 278 278

GFSMA_sfc_thetae_039.txt.gz
Theta_e
327 327 323 321 319 318 317 316 316 314 313 312 311 310 309 309 309 310 312 314 318 318 319 320 320 317 315 314 313 312 314 311 312 313 311 311 310 309 309 308 308 309 309
327 324 321 318 317 317 317 316 315 313 311 311 309 309 307 306 307 308 310 313 317 318 317 316 319 316 314 312 310 310 311 309 311 311 309 308 308 307 307 307 307 307 308
325 323 320 317 316 316 316 316 314 313 311 308 308 307 306 305 305 306 308 312 314 315 316 315 314 311 312 311 308 308 310 308 307 307 308 307 307 306 305 305 305 305 306
323 320 318 316 316 316 315 314 312 310 309 308 307 306 306 305 304 305 308 312 312 311 312 314 312 310 309 308 307 308 308 307 307 308 307 306 306 305 304 304 303 303 304
322 320 318 316 316 314 313 311 310 310 307 307 306 307 306 304 303 303 303 306 306 307 308 305 306 308 305 304 305 305 307 307 307 306 306 306 305 304 303 303 303 303 303
319 318 316 315 314 311 310 309 308 308 307 307 303 304 305 303 303 303 302 302 302 303 304 304 305 304 303 302 302 303 304 305 305 305 305 305 304 304 303 302 302 303 303
317 316 314 312 312 311 309 309 307 307 306 306 304 303 303 302 302 302 302 302 300 301 302 302 302 302 302 298 299 300 301 302 303 303 302 302 302 302 302 302 302 303 303
316 315 313 311 310 308 308 308 308 306 306 305 302 300 298 299 301 301 302 300 300 300 299 300 300 300 300 300 299 298 299 299 299 300 300 301 301 301 302 302 302 302 302
314 313 311 309 309 309 306 306 306 305 301 303 302 300 296 295 298 300 300 300 300 299 299 298 298 298 298 299 297 297 296 297 298 299 299 300 300 300 301 301 301 302 302
311 310 309 308 306 305 305 304 304 304 303 300 301 301 302 301 295 293 299 300 300 298 298 298 298 297 297 298 295 294 295 296 297 298 298 299 299 300 300 300 301 301 301
309 307 306 305 304 304 304 304 304 302 301 299 301 301 300 300 300 294 291 294 296 297 298 298 298 297 296 296 297 296 294 294 294 295 296 297 298 299 299 299 299 300 300
305 304 303 304 304 303 303 302 300 300 298 302 302 301 299 297 295 294 292 293 293 295 296 297 297 297 296 297 292 291 291 291 291 292 293 295 296 297 297 298 298 299 299
303 301 302 302 301 302 301 298 298 299 302 301 301 300 301 299 299 297 294 292 291 294 294 296 297 296 295 296 294 290 290 288 289 289 290 291 292 293 294 294 295 296 297
302 302 302 302 302 301 300 297 298 300 301 301 300 300 300 300 300 298 295 293 290 291 292 290 295 295 295 295 290 288 290 287 287 287 289 289 290 291 291 292 293 293 294
301 302 303 303 302 298 299 298 299 299 300 301 301 301 300 299 299 298 297 296 293 286 288 291 291 294 294 293 290 290 289 287 286 287 287 288 289 289 290 290 291 291 292
302 301 302 302 299 300 296 299 299 299 299 300 300 299 298 298 298 297 297 296 294 290 285 291 291 292 292 289 289 288 288 286 286 286 286 286 287 288 288 289 289 290 290
302 301 302 298 297 299 299 298 298 297 297 298 298 297 297 297 296 296 297 296 294 292 288 289 291 290 289 287 288 288 286 286 286 285 285 286 286 286 287 287 287 287 288
302 301 300 297 297 298 298 297 296 296 296 296 296 296 295 294 295 296 295 294 293 293 289 286 288 287 286 287 286 285 284 284 285 285 284 285 285 285 285 286 286 287 287
301 298 296 296 298 298 297 296 295 297 295 296 296 295 295 295 294 294 294 292 292 290 289 286 285 286 285 286 284 284 284 284 284 284 284 284 284 285 285 286 286 287 287
297 298 297 296 296 295 297 296 296 296 295 295 295 295 295 294 294 293 292 291 290 288 287 285 284 284 284 284 283 281 281 283 282 283 284 284 284 285 285 285 286 286 286
296 295 296 297 296 296 296 295 295 296 295 294 294 294 294 294 292 292 291 290 288 286 285 284 283 283 282 282 280 281 280 281 282 284 283 284 285 285 286 286 286 286 286
296 297 294 295 294 295 291 291 291 294 294 293 293 294 293 291 291 289 287 287 287 286 284 283 283 281 281 281 281 280 280 279 277 284 282 282 284 284 285 287 286 285 285
295 294 294 296 295 294 291 291 290 292 293 293 293 293 292 289 288 289 287 287 285 283 284 285 282 282 281 281 281 280 280 279 279 282 281 279 283 283 286 286 286 286 285
295 295 296 294 293 293 289 289 288 292 292 292 293 293 292 291 290 288 287 287 287 286 285 284 284 284 283 282 282 281 281 281 281 282 282 277 282 282 285 286 286 286 286
296 294 292 292 293 293 288 287 288 291 291 291 291 291 290 289 288 286 285 285 285 285 284 283 283 283 281 281 282 282 280 279 277 279 282 280 281 281 283 285 287 286 285
292 293 293 293 290 291 288 287 288 290 289 289 290 289 286 288 286 285 286 285 283 284 284 283 283 282 282 283 282 283 281 278 278 277 282 278 279 279 278 284 286 287 288

GFSMA_sfc_thetae_042.txt.gz
Theta_e
329 330 330 329 328 326 324 323 322 320 320 319 318 316 315 314 312 311 313 318 318 318 319 319 320 318 316 314 313 313 311 310 313 312 310 309 309 308 308 308 307 307 308
331 332 330 327 325 325 324 323 322 321 319 318 316 314 311 310 310 311 311 315 316 317 318 317 321 318 316 312 310 310 309 309 310 309 309 308 307 306 306 306 305 305 306
333 332 329 326 324 325 324 323 321 320 318 316 313 312 312 311 311 310 311 312 314 315 317 316 316 314 314 313 309 309 310 309 308 309 308 307 307 306 305 304 304 304 304
333 331 327 325 324 324 323 322 320 317 317 316 313 312 312 312 310 311 312 311 311 312 313 313 313 311 310 309 309 309 310 309 309 308 308 307 307 306 305 304 304 303 303
330 329 327 325 325 323 322 319 318 319 313 313 311 312 312 310 309 308 309 310 310 311 311 307 307 307 307 306 306 307 308 307 307 307 307 307 307 306 305 304 303 303 304
328 328 326 325 324 321 319 317 316 314 314 312 306 306 309 309 308 308 307 306 308 308 306 305 306 306 304 303 303 304 304 305 306 305 305 305 305 305 304 303 303 303 304
329 328 326 324 322 319 318 317 314 312 310 311 309 309 308 308 307 306 306 306 305 305 305 304 304 305 305 301 300 300 302 303 304 303 302 302 302 303 303 303 303 303 303
328 326 324 321 320 318 316 314 313 310 310 311 307 306 305 305 305 306 306 305 305 305 303 303 303 303 304 303 303 298 299 300 301 301 301 301 301 302 302 303 302 303 303
326 325 323 321 319 317 314 314 311 308 308 309 308 304 301 300 303 305 305 305 304 304 303 303 302 302 302 302 301 300 296 296 299 300 301 301 301 301 302 302 302 302 302
325 322 320 319 318 316 313 311 309 310 306 303 303 304 304 303 298 298 303 303 304 302 302 302 302 302 302 302 299 295 296 295 295 297 298 299 300 300 301 301 301 302 302
321 320 319 318 316 313 312 309 309 307 304 303 304 304 304 303 303 299 295 298 301 302 302 302 301 302 302 301 301 298 293 292 293 294 295 296 297 298 299 300 300 300 300
318 316 315 315 314 311 310 309 310 307 302 304 304 304 302 301 299 298 297 297 297 299 301 301 300 301 301 300 296 291 291 291 291 291 292 293 294 295 296 297 297 298 298
313 312 312 311 310 308 308 309 304 305 302 305 304 303 303 302 301 300 297 296 295 298 298 301 300 300 299 299 299 290 293 292 289 290 290 291 292 293 293 294 295 296 296
312 310 309 309 307 307 306 304 302 301 304 303 304 303 302 303 302 300 297 295 293 294 296 297 300 298 298 298 295 289 294 293 291 289 289 289 290 290 291 292 293 294 294
309 308 308 305 306 305 304 301 301 300 303 304 304 303 302 301 301 300 299 298 295 291 291 295 294 297 297 297 296 295 293 292 290 288 288 288 288 289 290 290 291 291 292
309 307 307 306 305 303 301 297 297 302 302 303 301 301 301 300 300 300 299 298 297 294 291 294 294 296 296 295 295 293 292 290 290 289 287 287 287 288 288 288 289 290 290
308 305 304 305 303 300 299 299 301 300 301 299 301 299 299 300 299 299 298 298 296 295 291 294 294 295 294 293 292 293 292 291 290 289 288 287 286 286 286 287 287 288 288
304 306 306 304 300 302 300 299 299 299 300 299 299 299 298 298 298 299 297 297 296 296 293 290 293 292 293 292 291 290 289 289 289 289 287 286 286 285 285 286 287 287 287
306 305 304 300 300 301 299 299 299 298 299 300 299 299 298 298 297 297 297 296 295 294 294 291 290 292 291 291 290 290 289 288 288 288 288 288 286 286 286 286 286 287 287
304 300 300 300 299 298 298 298 298 298 297 299 299 299 299 298 298 297 296 296 294 293 293 291 290 289 289 290 289 286 285 287 286 287 288 287 286 287 286 287 287 287 287
303 299 298 297 299 298 298 299 298 295 297 298 299 299 299 298 295 295 295 295 294 292 291 289 288 287 287 287 286 286 284 285 286 287 287 287 287 288 288 288 288 288 287
297 297 298 297 297 298 293 292 292 294 297 296 296 297 298 296 294 291 290 290 291 292 290 289 287 286 286 286 287 285 284 283 281 288 285 285 287 286 288 289 288 287 287
296 297 297 299 298 298 292 292 291 295 295 296 296 296 295 295 294 296 290 288 287 286 286 290 287 287 286 287 287 284 283 283 283 285 284 282 286 285 287 288 288 288 288
297 298 298 298 300 298 291 291 289 294 295 295 295 295 295 295 296 295 294 293 292 292 290 288 288 289 289 288 286 285 284 284 285 286 286 281 285 284 286 288 288 289 287
300 299 297 294 293 293 292 289 289 294 293 293 294 294 294 294 292 291 292 291 291 290 290 288 287 286 284 282 283 284 283 282 281 282 285 283 283 283 284 286 288 288 288
294 295 297 297 294 296 292 289 290 293 292 292 293 293 289 291 289 288 291 290 289 289 290 289 287 285 284 286 282 284 284 281 281 280 284 282 282 282 280 284 286 287 289

GFSMA_sfc_thetae_045.txt.gz
Theta_e
333 331 331 331 330 330 328 326 325 323 323 321 320 318 316 313 312 311 315 318 318 317 316 320 322 320 318 316 314 315 311 311 313 311 310 309 308 308 307 307 307 306 307
333 330 331 330 330 329 328 326 325 323 322 320 318 316 312 312 312 312 312 315 317 318 318 316 323 320 318 315 312 312 310 309 310 309 309 309 307 307 307 305 306 305 305
335 334 331 329 329 329 328 327 325 324 320 318 316 313 312 311 312 311 311 313 314 317 318 317 319 319 317 315 311 310 311 310 309 309 309 308 309 308 307 305 305 305 305
333 334 331 330 329 328 327 325 324 321 318 317 315 313 313 312 311 310 311 311 311 312 315 315 313 312 311 310 310 310 311 310 310 309 308 308 308 308 307 305 305 304 304
335 333 331 330 330 327 326 325 323 321 316 314 312 312 313 311 311 308 309 310 311 309 310 312 311 309 307 306 306 307 308 308 307 307 307 307 307 307 307 306 306 305 304
333 332 331 330 329 326 325 323 321 318 315 314 309 308 312 312 311 309 309 308 308 308 307 307 307 307 307 305 303 302 304 304 305 305 305 305 304 304 304 304 304 304 304
332 331 330 329 328 326 324 323 319 315 313 312 310 313 313 312 310 309 309 308 307 306 306 305 305 305 305 304 304 300 301 302 304 304 304 303 303 303 303 303 304 304 304
333 331 331 328 327 324 323 321 318 314 313 312 311 311 308 308 309 309 308 307 308 307 305 306 305 304 304 304 304 301 299 299 300 302 302 302 303 302 303 303 304 304 304
333 331 330 328 326 324 320 319 317 315 310 312 313 307 302 302 305 309 307 308 308 306 306 305 304 304 304 303 303 302 298 298 298 299 300 301 301 302 302 303 303 303 303
332 330 328 327 324 322 321 319 316 314 313 310 309 308 308 307 300 300 306 306 306 305 306 304 304 304 304 303 304 298 297 296 295 296 297 299 299 300 301 301 302 302 302
330 327 326 325 323 321 320 318 315 313 312 308 309 308 307 307 306 302 299 302 304 304 304 303 303 303 303 302 302 298 295 293 292 294 296 297 297 298 298 298 299 299 299
327 326 324 323 323 320 318 315 313 312 308 308 304 306 305 302 303 302 299 300 300 302 303 303 302 302 302 302 299 296 293 292 291 292 293 294 295 295 296 296 297 297 298
323 323 322 320 317 315 315 313 310 308 306 302 305 306 305 305 304 302 300 298 297 299 300 302 302 302 300 301 300 294 296 293 293 292 292 292 293 293 293 294 294 295 296
321 322 318 313 312 312 310 308 307 304 303 304 304 305 304 304 304 302 300 297 294 295 297 298 301 301 300 300 297 294 296 296 294 291 290 291 291 291 291 292 292 293 294
320 317 312 309 309 307 308 308 304 300 305 304 302 305 303 304 304 302 301 299 296 291 292 296 296 300 299 299 298 298 297 296 294 292 291 290 289 290 290 290 291 291 292
316 311 309 308 308 308 308 305 303 302 301 304 302 302 303 304 302 301 300 299 298 295 292 295 295 298 298 296 297 296 295 295 293 293 292 290 289 288 289 289 289 289 290
313 311 310 307 305 306 304 302 300 300 302 301 301 301 302 302 301 301 301 299 297 296 293 295 296 298 297 296 296 296 295 293 293 293 292 290 289 288 287 287 287 288 288
316 312 308 304 306 304 301 299 300 300 300 299 299 300 300 300 301 300 299 298 297 297 295 293 295 295 296 296 296 294 292 292 291 291 292 290 289 288 287 287 287 287 287
310 306 305 306 302 301 300 299 299 299 299 299 299 300 300 300 299 300 299 298 297 296 296 294 293 295 295 295 293 293 292 291 290 292 291 290 290 289 288 288 288 288 288
306 307 305 301 301 300 299 299 298 297 298 299 298 301 301 299 299 299 299 299 297 296 296 294 293 293 293 293 292 289 289 291 288 288 290 289 290 290 290 290 289 288 288
305 302 301 301 299 298 298 297 298 299 299 298 297 299 300 299 297 296 297 298 298 295 294 293 291 291 291 290 288 289 287 288 288 289 288 288 289 289 289 290 290 290 290
303 301 297 298 298 299 295 293 294 299 296 296 295 298 299 296 297 293 293 292 292 294 293 292 291 289 290 290 290 288 287 284 282 289 287 286 288 287 288 289 289 288 288
301 300 299 299 299 301 293 292 291 295 295 295 297 296 296 295 295 296 293 290 290 289 288 291 290 291 290 291 289 287 286 285 283 286 286 284 287 286 288 288 289 289 289
301 300 300 301 300 297 292 292 291 295 296 296 296 295 295 295 296 295 296 295 296 295 293 291 290 291 292 292 291 288 287 285 285 286 287 282 286 285 287 288 288 289 289
301 300 297 297 297 299 292 291 292 295 294 294 294 294 294 295 293 292 292 293 293 294 293 291 291 290 285 284 284 287 284 282 282 282 286 284 284 284 286 286 288 287 287
299 299 298 298 295 296 292 290 291 293 292 292 293 294 291 292 290 289 292 291 289 291 293 292 291 289 287 287 284 284 284 282 282 282 285 283 282 282 280 285 286 287 288

GFSMA_sfc_thetae_048.txt.gz
Theta_e
327 326 326 326 325 326 323 324 322 320 319 317 316 314 310 308 308 308 309 318 319 316 315 323 323 322 319 317 316 315 312 313 312 311 310 310 308 308 308 307 307 306 306
327 328 330 329 329 326 325 323 321 319 318 316 314 310 308 307 307 306 309 310 317 319 317 316 322 322 320 317 313 314 310 311 310 309 310 308 308 307 308 306 306 306 306
329 330 328 329 326 326 325 323 321 320 317 316 312 309 308 307 307 306 306 308 312 318 319 320 321 321 319 316 313 311 312 310 310 309 310 309 308 309 308 307 305 305 305
330 329 329 327 327 325 323 322 320 318 316 313 309 308 307 306 306 305 306 306 308 311 316 318 316 314 313 313 314 312 311 311 311 309 308 308 308 308 308 308 307 306 306
332 330 329 328 327 324 323 322 320 318 313 310 309 307 306 306 306 307 305 306 305 305 309 315 315 313 311 310 309 308 308 308 308 307 307 307 307 306 306 306 306 306 306
332 330 329 327 325 323 322 321 318 316 313 310 309 306 307 307 306 305 305 305 304 303 302 304 306 307 312 311 309 307 305 305 305 305 305 305 305 304 304 304 304 305 305
331 329 328 327 324 323 321 321 317 313 308 307 304 306 307 308 306 305 305 303 303 303 302 300 300 300 305 309 306 303 302 303 302 303 304 304 304 303 303 304 304 305 305
330 329 327 325 324 323 321 318 315 310 310 308 304 305 302 303 305 306 304 303 302 303 303 302 301 300 299 299 300 302 302 300 300 300 301 302 303 303 303 303 303 304 304
330 329 328 326 324 323 319 317 315 312 307 306 307 304 299 298 298 303 303 303 303 301 301 301 301 301 299 298 301 301 300 299 299 298 299 299 300 301 302 302 302 302 302
329 329 329 327 324 322 318 316 315 312 309 305 306 307 305 303 295 294 300 301 303 301 300 301 299 300 299 298 303 300 299 298 297 296 296 298 300 300 300 300 300 301 301
329 328 327 325 323 321 320 317 315 313 308 306 306 304 305 305 301 297 293 297 300 300 300 300 299 298 299 298 296 298 298 296 295 294 295 296 297 298 298 298 298 298 299
327 326 326 323 322 320 319 317 313 310 305 305 304 302 301 301 299 299 296 295 295 297 300 300 298 297 298 297 299 299 297 295 294 294 294 294 295 296 296 296 296 297 297
321 322 323 321 319 318 314 312 309 307 304 302 302 301 303 301 302 300 298 294 293 295 295 297 297 298 299 297 297 296 296 295 295 295 294 293 294 294 294 294 294 295 296
322 320 320 318 315 312 310 308 306 305 302 301 299 302 301 300 302 301 297 294 290 292 293 294 296 298 297 295 294 299 295 296 296 296 293 293 293 293 292 292 292 293 294
321 319 318 311 310 308 306 305 303 300 300 301 302 301 300 301 302 301 299 297 293 287 288 292 292 295 294 294 295 292 292 298 296 294 293 293 293 292 291 291 291 291 292
320 316 311 309 307 306 306 303 301 300 301 301 301 300 300 301 301 300 297 297 295 291 286 291 291 292 293 295 295 293 292 297 295 294 294 294 294 291 290 290 290 290 290
314 310 309 308 306 305 304 302 300 299 299 298 300 299 299 300 299 297 297 295 294 293 289 289 292 291 291 292 292 292 293 290 289 294 294 293 293 291 290 289 289 289 289
311 309 309 307 305 304 303 300 297 297 300 298 298 299 299 300 297 298 295 294 293 293 290 287 288 289 289 290 290 289 291 291 288 293 293 293 292 291 290 290 289 289 289
312 308 306 304 304 302 300 298 299 299 298 298 298 298 298 298 297 297 297 294 294 295 292 288 287 289 288 289 288 288 288 287 290 293 293 292 292 292 291 291 290 290 290
304 303 304 303 300 299 299 299 298 297 297 297 298 298 298 298 297 297 295 293 294 293 293 290 289 287 287 288 287 285 283 285 284 289 289 289 290 291 292 292 291 291 291
305 301 300 299 299 298 298 298 297 296 296 295 297 297 297 297 297 296 296 292 291 291 290 288 286 285 284 284 284 284 283 283 283 283 282 283 283 283 284 288 290 292 291
301 300 298 297 295 298 294 295 295 296 297 295 294 296 296 296 296 293 292 292 292 290 289 288 288 287 284 284 284 284 282 280 278 283 281 280 282 281 284 284 289 289 289
299 297 297 297 297 298 293 293 292 294 294 294 294 294 295 295 292 292 291 291 289 290 290 290 287 287 287 287 285 284 283 281 279 281 280 278 280 281 283 286 289 289 289
298 297 297 299 299 295 292 292 291 293 293 293 293 292 290 290 291 291 289 287 288 290 290 290 288 288 289 289 286 286 285 283 280 280 281 278 280 279 281 282 288 289 289
299 298 298 297 295 296 291 291 291 292 291 290 292 291 291 290 290 290 288 287 288 288 291 291 291 291 290 289 287 283 280 280 277 279 280 279 280 279 279 279 281 288 288
298 298 298 297 293 293 291 289 289 287 286 284 286 288 288 288 288 288 285 285 284 285 287 287 287 287 286 286 286 285 282 281 280 278 281 279 279 277 274 278 279 280 280

GFSMA_sfc_thetae_051.txt.gz
Theta_e
322 322 322 321 320 318 314 316 317 317 315 313 311 308 306 304 306 307 307 318 319 318 319 325 323 322 320 318 318 314 312 315 312 311 310 310 308 308 308 307 307 307 307
325 322 323 323 320 321 319 319 317 315 314 312 309 306 305 304 303 306 305 308 317 319 317 318 323 323 321 318 317 315 312 312 311 309 309 308 308 308 309 307 305 305 306
324 324 325 325 326 322 321 318 317 315 313 313 308 305 305 304 303 303 306 306 310 317 320 322 320 324 321 319 315 314 312 311 311 309 309 308 308 308 308 309 306 307 307
327 324 323 323 323 322 320 318 316 314 312 309 305 304 304 303 302 303 304 306 306 311 316 319 321 320 319 318 316 314 313 312 312 309 308 307 307 307 307 307 307 307 307
328 323 325 323 322 320 319 318 316 314 311 307 305 304 303 303 302 304 303 303 302 308 309 316 316 316 314 313 314 313 312 310 309 308 306 306 306 306 305 305 305 305 305
326 326 325 323 322 319 318 317 315 313 310 307 308 304 302 303 303 301 301 303 302 303 306 307 307 307 314 313 312 312 310 308 307 305 305 305 305 305 304 304 304 304 305
327 326 324 323 322 319 317 317 314 311 306 304 301 300 302 302 303 302 301 300 300 300 299 301 299 298 304 314 311 307 306 305 303 303 303 303 303 304 304 304 304 304 304
327 326 324 322 320 319 318 316 312 307 306 303 300 301 299 301 302 302 301 301 299 300 300 299 299 298 300 299 299 306 304 303 302 301 301 301 301 301 302 302 303 303 303
326 326 324 323 320 319 317 313 311 308 305 304 304 302 297 296 296 300 301 301 299 298 299 299 299 298 297 297 302 304 305 303 302 301 299 298 299 300 301 301 302 301 302
325 326 325 323 320 320 317 314 314 311 309 304 305 305 301 301 295 293 300 301 299 299 298 298 298 298 298 296 300 301 302 302 301 300 299 298 298 299 299 299 299 299 300
324 324 324 323 321 322 319 316 314 312 310 307 304 303 302 303 302 298 292 297 299 299 298 298 298 296 297 296 296 300 301 300 300 300 299 298 298 297 297 298 298 298 298
324 326 326 323 322 319 318 315 312 311 307 306 304 303 302 300 300 299 296 293 295 295 298 298 297 296 295 295 299 301 300 299 299 298 298 298 297 296 297 297 297 297 297
319 321 322 320 319 318 316 313 309 306 306 305 303 302 302 302 302 300 295 292 294 292 294 296 297 296 297 295 296 300 300 297 297 298 298 297 296 296 296 296 295 295 295
320 320 320 318 316 315 311 309 307 305 305 303 301 301 303 301 301 300 297 295 289 289 290 292 294 294 294 293 296 300 296 297 297 297 297 296 295 295 295 294 293 293 293
316 316 318 315 314 310 308 307 305 304 303 300 299 301 300 300 301 301 300 296 292 285 285 289 289 293 292 293 294 295 292 297 297 297 296 296 295 295 294 293 292 292 292
316 315 315 312 310 307 306 304 303 301 300 300 301 299 300 300 301 301 300 297 293 289 287 289 289 290 291 293 293 293 291 296 297 295 295 295 295 295 294 292 292 291 291
314 313 310 309 307 305 304 302 301 300 300 299 299 299 299 300 299 299 296 293 292 290 286 288 289 290 289 289 291 292 292 292 291 295 294 295 295 294 294 293 291 291 291
312 310 309 308 305 304 303 301 299 299 299 298 298 299 299 300 297 295 294 293 291 293 290 289 287 288 288 289 288 287 291 292 289 293 295 294 294 293 293 292 291 291 291
310 309 308 306 304 303 302 300 298 299 299 298 298 298 298 297 295 297 297 296 296 296 293 291 291 288 290 288 288 287 287 287 288 293 293 293 293 293 293 292 292 291 291
307 306 305 304 303 301 299 299 299 298 298 298 298 297 297 296 296 295 294 293 292 289 289 291 290 290 287 290 288 287 285 285 284 288 290 288 289 291 292 293 292 292 292
304 303 302 300 299 299 299 298 298 297 296 295 296 297 296 297 296 294 294 293 288 288 288 287 287 284 284 285 285 287 285 283 284 282 283 281 282 282 283 287 288 291 291
301 299 298 298 297 298 294 294 296 295 295 295 293 295 295 295 294 293 293 292 291 287 285 284 286 286 287 282 283 283 283 282 282 284 282 280 281 280 281 281 287 289 289
295 294 293 294 294 295 293 293 292 294 294 294 293 292 292 295 291 289 288 288 287 289 288 285 284 285 286 286 283 284 285 285 284 285 280 277 279 279 281 285 288 290 289
293 293 293 294 294 294 292 292 291 293 290 290 290 290 287 286 287 288 286 284 285 287 287 288 285 286 287 288 287 288 287 286 284 281 280 276 278 278 280 281 286 288 288
294 294 294 293 294 294 292 291 290 289 288 286 288 286 286 285 288 287 283 280 280 281 286 289 289 289 288 288 288 286 282 283 281 279 281 279 280 279 278 278 280 286 287
297 295 294 294 290 287 288 289 287 282 281 280 282 284 285 284 285 285 280 279 278 278 279 280 282 284 286 286 288 287 285 281 281 279 281 278 278 277 274 277 279 279 278

GFSMA_sfc_thetae_054.txt.gz
Theta_e
319 320 320 319 317 317 312 313 315 315 311 311 308 305 303 305 304 306 307 320 323 325 325 325 324 322 321 319 316 314 316 314 312 310 311 309 308 307 310 307 306 306 307
319 319 318 317 316 316 314 315 315 313 311 309 305 304 303 304 305 304 305 308 317 319 320 321 324 324 322 319 318 314 312 313 311 309 309 310 308 308 308 308 306 307 307
321 320 321 321 319 318 317 317 315 314 311 310 306 303 303 302 304 304 303 305 310 317 319 321 320 323 323 320 317 316 312 312 311 311 308 308 307 308 308 308 308 308 308
323 323 323 323 323 321 318 316 315 313 311 309 304 302 302 302 301 301 305 305 305 311 316 321 324 325 322 321 319 316 315 314 313 312 308 307 307 306 306 306 306 306 306
326 323 323 322 322 320 318 317 314 313 310 307 305 302 301 301 300 302 303 305 304 307 308 317 318 318 319 318 319 318 317 314 311 309 308 306 306 305 305 305 305 305 305
323 323 323 322 321 318 316 315 314 313 311 308 307 304 300 301 300 300 301 303 302 306 307 308 308 308 315 316 314 314 314 312 309 307 304 304 304 304 304 305 305 305 305
322 322 323 321 320 319 317 316 314 311 307 305 301 299 300 301 300 300 299 299 300 304 304 304 303 302 304 315 313 313 312 309 306 304 305 303 302 302 302 302 303 303 303
323 323 322 321 320 318 316 315 312 307 307 302 301 301 301 301 301 301 299 300 298 298 299 301 300 299 298 303 305 312 309 307 307 306 304 303 301 300 300 301 302 302 303
322 323 323 321 319 318 316 314 311 309 307 305 304 304 299 297 296 298 300 299 298 297 297 297 298 298 298 298 303 306 309 308 307 306 305 303 301 300 300 300 301 301 301
323 324 324 321 319 319 317 315 313 310 311 306 304 305 303 302 297 296 300 300 300 300 297 297 297 297 296 296 300 303 305 305 306 306 305 303 302 300 300 299 299 299 299
323 324 323 321 320 320 320 317 315 311 311 307 305 303 303 303 301 298 294 296 300 300 299 297 298 296 297 295 296 299 304 303 304 304 304 303 302 301 299 298 299 299 299
321 323 324 322 320 320 320 319 316 314 310 307 307 305 304 302 301 300 296 296 295 296 299 300 299 297 296 295 298 301 303 301 302 303 303 303 302 301 299 299 299 299 298
318 321 323 321 320 319 319 318 313 311 307 305 305 304 304 304 303 301 297 295 294 295 296 297 297 295 296 294 295 301 303 300 300 302 302 301 301 300 299 299 298 298 296
320 319 320 318 318 317 315 313 310 307 306 305 304 304 304 303 301 301 298 296 292 292 292 293 295 294 293 293 294 301 298 299 298 299 300 301 300 299 298 297 296 296 295
318 318 318 316 314 314 311 308 306 305 305 304 303 303 302 301 299 301 300 298 294 289 290 290 289 292 292 291 294 296 295 299 298 298 298 299 299 298 297 296 296 295 294
316 315 315 314 312 310 307 306 304 304 302 301 301 301 300 300 300 300 300 299 296 293 289 288 289 290 291 293 293 294 294 296 297 296 296 297 297 298 298 297 296 294 293
317 315 315 311 308 305 304 304 303 302 301 300 300 299 299 300 299 299 298 296 294 292 290 290 288 289 288 289 291 291 293 292 292 297 296 296 295 296 296 296 296 295 293
316 315 312 309 307 305 303 302 301 301 300 298 298 299 299 300 298 297 296 293 291 291 289 289 288 287 287 289 289 288 291 292 292 294 296 296 295 294 294 294 294 293 293
313 312 310 308 306 304 302 301 300 299 299 299 299 298 298 298 296 295 294 293 294 295 294 292 290 290 288 289 289 289 289 289 292 295 294 295 295 295 294 293 293 293 293
311 310 310 306 304 302 301 299 299 299 299 299 298 298 298 297 294 293 292 290 291 288 288 288 289 289 286 287 286 286 286 285 286 290 293 292 293 294 294 293 293 293 293
309 306 303 302 301 300 299 299 298 298 298 297 297 297 297 297 296 294 292 289 287 286 286 286 285 285 283 282 283 284 283 286 285 284 285 284 287 286 287 292 290 292 293
305 302 300 299 298 299 294 294 297 296 296 295 294 295 295 295 294 290 289 289 287 283 282 281 281 282 284 283 283 284 284 280 283 283 282 284 285 285 285 284 287 288 289
301 298 298 298 297 298 293 293 292 295 294 293 292 293 292 291 288 286 287 286 285 287 287 283 281 282 282 283 285 284 282 283 283 286 282 284 284 283 285 284 288 289 290
296 295 295 295 295 294 292 292 290 291 290 289 288 287 285 284 285 284 282 280 280 281 281 282 282 283 284 285 285 285 284 285 287 286 285 282 280 280 281 281 286 288 289
293 292 292 292 291 291 291 290 291 289 286 285 285 284 284 282 284 285 281 279 279 280 284 285 285 285 285 286 286 284 282 281 280 284 281 283 279 280 280 279 281 288 287
293 293 293 293 291 291 289 290 287 283 280 279 281 281 283 282 283 282 279 278 278 279 280 282 282 282 283 283 286 284 283 281 281 278 280 280 279 280 275 277 277 278 278

GFSMA_sfc_thetae_057.txt.gz
Theta_e
320 320 319 318 316 314 313 311 314 311 310 307 304 305 305 305 306 308 310 323 325 327 324 323 323 323 321 319 318 318 316 314 311 313 310 309 308 309 309 307 307 307 307
320 318 317 317 314 313 313 313 314 310 309 305 303 302 303 303 303 303 305 308 317 322 324 325 324 324 322 321 317 314 315 314 311 310 309 310 308 309 309 308 309 309 309
318 318 317 317 315 314 312 314 313 311 308 306 303 302 302 303 303 302 303 305 310 316 317 320 325 324 323 320 320 317 314 313 311 310 309 308 307 308 307 307 307 307 307
320 318 319 318 318 316 314 314 313 311 308 308 303 301 300 300 302 303 302 304 306 309 316 319 321 321 324 322 320 317 317 314 313 313 308 307 306 306 305 305 305 305 306
322 321 321 321 320 319 316 315 313 311 308 307 304 301 300 300 299 302 303 304 303 307 307 318 321 322 324 322 321 319 318 317 314 310 309 306 305 305 304 304 305 305 305
323 322 321 321 322 319 317 314 313 311 310 307 308 303 299 300 299 298 300 304 303 305 306 308 310 311 318 320 319 317 317 317 314 311 307 306 305 304 303 304 304 304 304
321 321 321 320 319 317 316 315 312 310 307 305 301 299 299 300 299 298 298 300 300 303 304 305 304 303 307 316 314 313 314 315 313 309 308 307 306 304 302 301 302 302 303
320 320 321 320 320 318 315 313 311 308 308 303 301 301 296 299 300 300 298 298 298 299 303 303 302 301 300 300 306 313 313 313 311 309 308 307 306 304 302 301 301 301 302
319 320 320 319 317 316 316 313 312 309 308 303 304 305 300 298 299 300 301 301 298 296 297 298 300 299 298 297 304 310 312 311 310 309 309 307 306 304 303 301 300 300 300
317 319 320 319 318 318 316 315 314 310 310 306 305 307 304 304 299 299 301 301 301 300 297 298 296 297 297 297 301 304 306 307 309 309 309 308 307 305 303 302 300 299 300
317 319 320 319 318 319 318 316 313 310 309 310 308 305 305 303 303 300 295 299 300 301 301 298 297 297 296 297 297 298 304 305 306 309 309 308 308 306 304 303 301 300 300
316 318 320 320 319 319 317 317 316 313 312 311 308 307 306 304 302 300 297 297 297 299 296 298 298 298 298 298 299 301 303 304 304 307 308 307 307 306 305 303 302 301 301
313 317 319 318 320 321 320 319 317 316 313 310 307 307 307 305 305 303 300 297 295 296 296 297 296 297 297 297 297 302 303 302 302 304 305 307 306 305 304 303 302 301 300
315 317 318 319 320 317 315 315 314 313 310 308 306 305 306 305 303 301 299 296 292 293 293 292 293 294 293 293 294 299 297 301 301 301 302 304 305 305 303 302 301 300 299
316 316 319 318 316 315 315 312 309 307 306 306 305 305 303 302 301 301 300 298 295 289 290 291 290 292 292 291 293 293 294 298 300 299 299 301 302 303 303 302 300 299 298
317 316 315 315 314 313 312 309 305 304 305 304 303 302 301 300 301 301 299 299 298 294 290 291 292 290 291 292 293 292 293 298 298 298 297 298 299 300 301 301 300 299 298
318 318 317 315 314 310 307 304 303 303 303 301 301 301 300 300 300 299 298 297 295 294 290 291 290 289 288 289 290 290 292 291 293 296 297 297 297 297 298 298 298 298 298
319 319 319 315 311 310 308 306 303 303 302 301 300 300 299 300 299 298 296 295 294 293 289 286 288 287 286 288 289 288 291 292 290 294 295 296 296 296 295 296 296 296 296
320 317 315 312 310 309 306 306 304 303 301 300 300 299 299 299 297 296 295 294 294 293 289 287 288 287 287 287 287 288 288 288 290 294 294 294 295 296 296 295 295 295 294
318 314 312 310 308 307 306 304 302 300 299 299 299 299 299 298 296 295 294 292 289 286 285 284 284 284 284 286 285 284 285 285 286 290 292 292 293 294 295 295 294 294 294
314 312 310 307 305 304 302 300 300 299 298 297 298 298 298 297 296 294 293 289 284 283 282 281 280 281 281 280 281 282 283 285 286 285 286 286 286 287 289 292 294 294 293
310 307 305 303 302 301 294 295 298 298 298 297 295 296 296 295 290 289 289 288 285 281 279 279 279 279 279 280 280 281 283 282 280 284 282 284 283 283 284 284 289 291 291
305 302 301 300 300 300 293 294 293 297 296 295 294 293 291 289 288 286 285 284 283 284 285 280 277 278 278 279 281 281 280 279 279 282 283 282 286 283 285 287 289 289 289
301 300 300 300 298 296 292 292 291 294 292 291 290 289 286 285 285 282 280 279 279 280 280 281 279 279 280 281 281 281 281 282 282 283 284 280 284 282 282 283 287 288 288
298 298 298 297 295 294 291 290 290 289 287 284 284 283 282 281 283 283 280 279 279 281 283 284 285 285 285 285 285 283 281 280 278 279 281 282 282 280 280 279 282 286 288
295 294 292 293 291 291 290 290 288 284 281 280 281 280 283 281 282 282 280 279 278 278 279 279 281 281 282 282 284 283 281 279 279 279 281 280 280 279 278 279 279 280 283

GFSMA_sfc_thetae_060.txt.gz
Theta_e
319 319 319 317 314 312 312 312 310 309 308 308 310 310 310 311 311 313 315 325 326 326 324 325 325 323 322 320 319 317 316 314 314 313 311 310 310 311 310 308 309 309 309
319 318 317 314 312 311 312 313 310 309 307 305 305 306 305 305 306 306 309 314 322 325 326 324 324 325 323 320 318 318 317 314 312 312 311 311 309 310 310 309 308 308 308
318 317 317 315 314 311 313 314 311 309 306 304 303 303 304 303 303 303 305 306 310 316 319 325 326 324 324 322 319 317 315 315 312 310 310 309 308 309 308 307 306 306 306
318 316 316 316 315 313 313 313 311 309 307 305 302 302 302 303 304 303 303 305 307 308 315 318 321 326 325 322 322 320 317 315 314 313 310 308 308 308 306 305 305 305 305
319 317 317 317 316 315 313 314 312 311 308 308 304 302 301 301 302 303 303 304 305 308 309 316 319 320 324 324 322 321 319 318 317 315 312 309 308 307 306 305 304 304 305
320 318 319 319 318 317 315 314 313 311 310 308 308 304 301 301 300 300 302 304 304 307 307 310 315 316 321 324 323 320 319 320 319 315 313 309 309 307 306 304 302 303 303
322 321 321 320 320 318 317 316 313 311 309 307 304 302 301 301 300 300 300 301 303 304 305 307 308 308 312 320 320 315 314 315 316 315 312 309 309 308 306 303 302 301 302
321 321 321 320 319 318 316 314 312 310 309 305 303 300 299 300 301 301 300 299 300 302 304 305 305 305 304 306 310 315 314 314 315 314 311 310 309 308 306 304 302 301 301
318 320 319 320 318 318 315 313 312 310 308 305 304 306 299 298 299 300 301 300 300 300 300 303 303 303 303 301 304 309 313 314 315 313 312 311 310 308 306 305 303 301 301
316 318 318 317 317 316 315 314 314 311 309 306 303 305 306 305 300 299 300 301 302 300 300 300 300 301 301 300 301 303 306 308 311 313 311 311 311 310 308 306 304 303 302
315 316 317 317 317 317 316 314 312 310 309 307 304 303 304 304 304 303 300 301 301 302 302 300 299 299 299 298 298 300 304 305 307 311 312 311 311 311 309 308 306 305 303
313 315 316 316 316 316 316 316 314 314 313 312 309 308 306 304 303 302 300 299 299 300 300 301 300 300 300 300 300 302 302 302 304 307 310 312 311 310 310 309 308 306 304
310 312 314 315 315 317 318 318 317 316 315 313 312 311 310 309 307 305 302 300 298 298 297 298 298 298 299 300 300 302 303 301 302 304 307 308 310 310 309 308 308 307 306
310 312 313 315 316 316 318 319 318 317 315 313 312 311 309 307 306 304 302 298 294 294 294 296 296 296 297 296 296 299 298 299 300 301 303 304 306 307 307 307 306 306 305
312 312 314 315 315 315 315 316 315 313 311 309 307 306 308 305 304 302 301 299 298 292 292 295 294 295 296 295 294 295 294 297 298 299 300 301 303 304 305 305 305 305 304
313 313 313 314 314 314 313 312 310 307 308 304 305 306 304 302 301 301 300 299 298 296 292 295 293 294 295 294 294 295 293 297 298 298 298 299 299 301 302 302 303 303 303
317 317 317 317 316 314 314 313 310 306 306 304 302 303 301 300 300 300 300 299 297 296 292 293 292 292 291 291 292 292 293 293 293 296 297 297 297 298 298 298 299 300 301
318 318 318 318 318 315 310 309 307 307 306 303 302 302 301 301 299 299 298 296 295 294 292 289 291 290 289 291 290 290 292 293 292 293 295 295 296 296 296 296 296 297 297
318 317 318 317 316 313 312 310 309 307 305 303 302 301 300 300 298 297 296 294 295 295 292 290 290 289 289 288 289 289 289 290 291 293 294 294 294 295 295 295 296 296 296
318 318 318 318 315 311 310 308 306 304 304 303 301 301 300 299 298 295 294 293 291 290 288 287 285 285 285 287 286 284 284 287 286 289 291 291 292 293 294 294 294 295 295
318 319 318 313 310 307 306 305 304 303 301 299 299 299 299 298 296 295 294 290 288 286 285 284 282 282 282 282 282 283 282 283 284 285 286 287 288 288 288 290 291 292 294
319 319 314 311 306 305 297 297 300 300 299 298 297 296 296 294 292 290 289 288 287 284 283 280 280 280 279 280 281 280 280 280 278 283 282 282 284 284 286 288 289 289 291
313 311 308 306 304 302 294 295 294 299 297 297 296 294 291 290 288 287 286 285 283 284 284 281 278 278 279 280 280 279 280 280 279 283 283 280 284 283 285 287 289 290 290
308 305 305 303 301 297 293 292 292 295 294 293 293 290 287 285 285 284 281 280 280 281 281 281 279 280 280 281 282 282 281 281 282 283 284 279 283 282 285 287 287 289 289
302 300 299 298 297 293 292 291 291 290 287 286 285 286 285 283 284 283 281 280 281 281 283 282 282 283 284 284 283 282 279 278 277 279 283 281 282 282 284 284 286 286 287
296 295 294 295 293 291 290 290 289 286 284 282 282 282 283 282 282 283 281 280 279 278 278 278 279 279 280 280 281 281 280 277 277 276 282 280 282 282 280 283 281 283 285

GFSMA_sfc_thetae_063.txt.gz
Theta_e
324 325 323 322 321 322 323 322 323 322 322 322 322 322 322 323 325 325 326 326 326 327 326 325 324 323 321 319 318 317 316 316 315 313 312 311 312 311 310 311 310 310 309
325 324 322 321 321 321 321 321 321 321 320 321 320 320 319 321 323 324 324 326 325 326 327 326 325 325 324 322 320 318 316 313 315 312 313 311 311 311 310 309 307 307 307
326 325 323 321 321 321 320 319 318 317 315 315 316 315 315 316 316 317 319 323 323 321 322 327 326 326 325 323 321 319 318 315 313 312 311 311 310 310 309 307 306 305 305
325 324 322 322 322 323 322 319 317 315 313 311 311 311 312 312 313 312 313 313 315 315 317 320 325 327 325 324 322 319 318 317 315 314 312 311 310 310 308 307 305 304 305
325 324 322 322 323 322 322 320 318 317 314 311 311 311 311 311 312 309 311 312 314 314 314 316 318 321 326 326 324 323 322 319 317 317 315 311 310 310 308 307 305 304 304
323 323 323 323 323 321 322 322 320 319 316 315 311 309 310 309 309 310 311 311 313 314 315 315 316 316 319 325 325 323 321 321 321 319 316 314 311 310 309 308 305 303 302
323 325 325 324 324 323 322 321 321 319 317 316 313 312 312 309 309 309 310 310 311 312 314 315 316 317 318 323 325 322 319 318 317 320 319 314 312 311 310 308 305 304 303
324 325 325 325 324 324 322 322 321 320 320 316 315 313 311 311 310 310 309 308 309 311 312 312 313 313 315 316 317 320 317 315 316 316 316 315 312 312 310 309 307 305 304
325 326 326 325 325 326 323 323 322 320 319 316 316 318 309 310 312 311 310 309 310 309 309 306 308 313 313 310 312 313 313 314 316 315 315 317 313 312 311 310 308 306 304
324 324 324 324 325 326 324 323 323 323 322 318 314 313 315 315 311 310 311 307 306 308 303 304 309 309 308 309 310 308 305 306 310 313 314 314 313 313 312 311 309 308 306
321 322 321 323 324 325 326 326 324 322 322 321 318 314 313 313 314 310 308 308 305 309 305 305 307 306 306 307 309 308 304 304 306 308 312 313 313 312 313 312 311 310 308
320 321 321 323 325 325 325 325 326 324 322 321 319 317 316 309 311 307 306 309 303 307 308 308 307 304 305 305 306 304 303 302 303 305 307 309 310 312 312 312 312 311 311
319 320 322 322 323 325 325 326 325 324 323 321 316 313 312 313 318 311 308 306 304 303 303 304 306 306 305 307 306 303 304 301 302 303 304 306 307 308 309 310 310 310 310
320 321 321 322 323 324 325 326 325 325 324 316 315 316 317 317 318 314 309 304 298 301 302 304 304 301 300 301 300 299 302 300 299 300 302 303 304 305 307 308 308 309 308
318 319 321 321 323 324 325 325 325 324 322 319 321 322 319 319 317 313 309 311 307 300 299 303 305 304 304 300 301 300 303 301 298 298 299 300 302 303 304 304 305 306 307
318 319 320 321 322 323 324 324 323 322 320 320 319 317 315 315 312 309 309 308 306 306 303 303 300 300 301 300 298 301 303 297 298 297 297 298 298 300 301 301 302 302 303
319 319 320 320 320 320 321 321 319 318 316 317 313 312 312 311 308 307 307 307 306 301 299 298 299 298 298 297 299 302 301 301 301 296 296 296 296 296 297 298 298 299 299
319 319 320 319 317 318 319 316 316 314 311 310 308 308 309 306 305 306 303 300 303 299 296 295 296 296 296 300 300 299 298 297 298 296 295 295 295 295 295 295 295 296 296
318 319 320 320 319 318 318 317 316 313 312 312 309 307 307 306 304 301 300 298 299 298 300 295 296 297 295 298 297 296 295 295 293 293 292 292 293 294 293 293 294 294 294
317 319 320 320 320 320 319 316 313 311 309 309 308 307 305 304 301 300 299 296 299 294 293 295 290 291 293 295 293 291 289 289 289 289 290 290 290 291 291 291 291 291 292
318 318 319 320 321 320 318 316 314 313 309 305 304 304 302 302 298 298 297 293 293 291 288 287 287 288 289 290 288 288 286 287 289 289 289 289 289 289 290 290 290 290 290
318 320 319 320 318 315 302 302 308 308 306 303 300 300 299 297 294 292 292 291 293 288 286 286 286 285 286 286 286 286 285 284 284 290 287 287 289 288 289 291 290 289 289
320 319 318 318 317 314 299 299 298 305 302 300 298 296 294 291 290 288 287 286 285 285 286 287 284 283 283 286 286 285 284 284 284 287 286 284 288 286 289 289 290 289 289
318 317 316 312 312 306 297 294 293 300 297 297 296 293 289 288 287 285 283 282 282 283 283 283 284 285 286 286 286 285 285 284 285 286 287 282 286 285 289 290 290 290 289
306 304 304 303 301 296 292 292 294 292 289 288 288 288 287 285 285 286 283 282 281 282 283 282 282 282 282 282 282 283 282 281 281 282 284 283 284 285 287 287 291 289 287
298 297 296 297 293 292 290 291 291 288 285 284 284 284 284 284 284 283 282 282 280 281 280 280 281 280 280 281 279 281 281 279 280 279 285 282 282 283 281 287 289 290 290

GFSMA_sfc_thetae_066.txt.gz
Theta_e
329 328 331 332 331 332 331 329 328 327 325 325 324 323 324 325 327 326 327 326 327 327 326 325 324 322 321 320 319 318 317 316 315 314 313 313 312 311 311 311 310 309 309
328 326 327 326 328 330 330 328 327 325 324 324 323 323 322 324 325 327 326 326 326 327 327 326 326 324 323 322 320 318 317 317 315 314 313 312 313 312 311 309 308 307 306
329 328 325 325 326 328 328 327 326 325 323 322 322 322 320 322 322 323 324 326 325 324 326 328 327 326 325 323 322 320 318 315 316 314 314 313 312 312 310 309 307 305 305
328 327 325 325 327 326 325 324 324 323 322 321 319 318 318 318 319 320 320 322 323 323 322 324 327 328 326 325 323 322 321 318 316 315 314 313 312 312 311 309 307 305 305
328 325 324 325 328 325 324 323 323 323 320 319 317 317 317 316 316 315 315 317 318 318 320 321 322 325 326 326 324 323 322 320 319 317 316 314 313 312 312 310 308 306 305
326 325 324 325 326 326 326 324 324 324 322 320 316 315 316 316 317 316 316 316 317 318 318 318 318 319 322 327 326 326 325 324 322 320 319 317 314 313 312 311 309 307 306
326 328 325 325 326 325 327 327 326 324 322 323 318 317 316 316 316 316 317 316 316 317 318 318 318 318 317 321 326 325 324 323 322 323 321 319 317 314 313 312 310 308 306
324 324 326 324 326 325 326 327 326 323 324 323 320 321 316 317 317 316 316 315 317 316 315 316 318 318 318 320 320 325 323 321 319 318 320 320 319 315 314 313 311 309 307
322 323 326 326 327 327 325 326 326 325 322 324 325 321 315 313 320 321 319 318 317 314 311 314 315 315 315 318 317 318 317 317 318 317 317 319 319 315 314 313 312 311 309
323 323 327 328 328 328 326 327 327 326 326 322 323 323 325 322 315 313 318 318 318 314 312 310 308 309 314 317 315 311 309 310 311 314 314 315 316 317 315 314 314 313 311
325 325 327 328 327 329 328 330 327 328 327 327 323 323 322 322 322 317 314 317 315 314 312 307 310 310 313 316 314 312 307 305 305 308 309 310 313 314 314 315 315 314 314
323 323 324 326 327 327 327 327 329 330 328 328 327 326 323 320 318 318 313 317 316 308 309 311 311 310 312 312 310 308 304 303 304 305 306 308 309 310 311 313 313 314 314
319 320 324 325 325 324 326 325 328 328 328 327 327 326 326 324 319 315 312 315 314 313 311 313 309 314 314 314 311 305 305 302 302 304 304 305 306 307 308 308 309 311 311
321 321 323 324 324 326 326 327 328 327 329 328 328 328 326 323 315 320 314 312 308 312 309 312 314 313 314 310 308 301 307 300 300 300 301 302 303 304 305 305 305 306 306
321 323 325 322 323 325 326 326 327 326 327 329 329 328 324 320 319 320 320 318 313 307 307 314 312 311 310 310 306 308 309 303 299 298 299 300 301 302 302 303 303 303 304
324 325 325 324 324 324 324 325 326 326 326 328 328 325 325 325 323 321 319 317 315 311 307 314 311 313 310 304 303 306 307 299 299 298 297 297 298 299 299 299 299 299 300
324 323 323 323 323 323 324 325 324 324 324 325 323 320 319 318 317 316 314 314 312 311 307 309 308 308 304 302 301 304 305 304 306 298 296 296 296 296 296 297 297 297 297
325 324 324 322 322 323 324 324 324 323 322 319 318 316 314 313 310 311 311 308 308 309 311 305 303 300 299 303 305 305 302 302 302 299 296 295 294 294 294 294 295 295 295
324 324 323 323 323 323 323 324 323 320 317 316 316 314 312 311 310 309 307 306 306 306 302 298 302 299 300 298 297 299 299 300 299 296 292 292 292 293 293 292 293 293 293
322 323 324 323 324 323 323 323 322 318 317 315 314 314 313 311 309 307 303 303 300 297 299 296 294 293 294 296 295 294 295 297 294 293 293 291 291 292 292 292 292 292 291
322 322 322 323 324 323 322 323 322 321 319 317 315 314 312 308 303 304 302 299 298 296 294 294 292 289 290 291 291 293 292 292 293 294 293 293 293 293 293 293 292 292 292
321 321 322 322 323 321 307 301 310 321 319 316 313 310 307 300 298 295 295 295 296 294 291 288 288 287 289 292 292 290 290 288 287 294 291 290 292 290 292 293 292 290 290
321 322 322 321 321 322 300 300 300 317 315 312 307 303 299 299 296 295 290 289 288 288 290 292 288 290 290 290 290 289 288 288 288 290 289 287 291 289 292 291 291 291 291
321 322 321 321 322 322 300 300 299 310 306 303 301 299 297 293 292 290 288 286 285 284 284 284 286 287 287 288 289 289 288 287 287 288 289 284 289 288 290 291 291 291 291
322 322 321 320 318 308 294 293 297 298 294 292 292 293 291 287 287 288 284 283 283 282 284 283 283 283 283 282 283 285 284 283 283 285 288 286 287 287 288 288 290 290 290
314 304 299 300 295 296 291 292 295 291 287 286 286 287 287 286 285 285 284 283 281 281 280 280 281 281 281 283 280 282 283 281 282 282 288 284 284 284 282 287 289 290 291

GFSMA_sfc_thetae_069.txt.gz
Theta_e
330 333 332 330 328 331 328 326 327 326 325 324 324 326 326 327 327 326 325 327 327 327 326 325 324 323 321 320 319 318 317 316 315 315 315 313 313 312 312 311 310 309 309
330 331 332 332 330 331 329 328 327 325 324 323 323 324 325 326 327 327 326 326 326 327 327 325 324 324 323 321 320 319 318 317 316 315 314 314 313 312 311 309 308 308 307
331 331 332 330 331 330 333 330 327 325 323 323 322 323 323 325 325 326 325 324 325 325 326 328 327 325 324 323 321 320 319 319 317 316 315 314 314 313 312 310 308 306 306
332 332 329 328 331 331 330 327 325 322 322 322 321 321 320 322 323 324 325 326 324 324 324 326 328 328 326 325 323 322 320 318 318 317 316 315 314 314 312 311 309 307 306
330 330 328 328 333 329 329 327 325 324 322 321 319 319 319 318 319 319 320 323 325 324 324 323 325 326 326 327 325 324 324 321 319 318 317 316 315 315 314 312 310 309 307
329 327 327 330 329 325 325 326 326 325 324 322 318 317 318 318 318 317 317 317 319 320 321 323 324 323 324 327 327 325 325 324 323 321 320 318 317 315 315 314 312 310 308
327 328 325 327 328 326 326 328 327 327 323 324 319 317 318 319 320 318 318 317 318 319 320 319 320 319 321 324 327 326 327 326 326 324 322 321 319 317 315 315 313 312 310
326 325 325 326 327 327 329 329 328 325 324 326 319 319 315 316 318 320 321 319 322 318 318 320 320 320 321 319 324 326 326 326 325 324 324 323 322 321 319 316 315 313 312
326 325 328 328 326 328 328 329 330 328 322 326 326 324 315 313 318 322 321 321 321 320 320 319 318 318 318 319 319 319 320 321 324 323 322 321 323 321 319 317 316 315 314
325 326 327 326 327 329 329 329 329 329 325 320 324 324 326 324 316 312 321 322 323 320 320 318 317 316 314 315 316 315 315 314 316 319 318 317 317 317 319 318 317 316 315
325 324 324 325 324 329 329 331 328 328 327 322 320 325 324 322 323 318 313 316 319 320 319 319 316 313 311 314 315 316 309 308 309 312 313 313 313 313 314 315 316 316 316
325 326 323 323 325 326 328 327 325 325 325 327 325 326 323 319 318 319 317 319 319 319 315 317 313 311 315 316 314 311 309 306 306 308 309 309 310 311 312 312 313 314 315
321 325 323 321 321 323 325 326 322 325 326 327 327 324 324 324 325 323 321 319 316 315 314 314 316 318 318 315 316 310 306 303 303 305 306 307 308 308 308 309 309 310 311
319 323 323 322 325 324 326 326 327 324 327 324 326 326 326 326 327 326 323 314 308 313 316 314 317 321 319 319 317 306 310 302 302 303 304 305 305 305 305 305 305 306 306
320 320 322 324 326 326 326 326 325 325 323 324 328 327 327 327 329 327 323 318 312 308 309 315 315 320 319 320 311 309 310 302 302 300 300 301 302 303 303 303 303 303 303
324 323 322 323 323 322 323 324 323 326 325 326 327 327 327 328 327 326 322 320 319 313 308 317 316 314 313 312 308 310 311 304 300 299 298 299 299 300 300 299 299 299 299
326 325 324 324 323 323 324 325 324 325 324 325 326 326 326 326 325 322 322 319 315 313 309 312 307 314 309 311 305 308 308 307 306 299 298 297 297 296 296 296 297 296 296
328 326 327 326 325 325 325 325 324 324 324 324 325 325 323 322 322 321 315 313 314 313 311 308 307 306 308 307 302 304 305 306 307 302 299 297 296 294 294 293 294 294 294
327 327 326 325 325 325 325 326 325 325 324 324 324 324 323 320 315 315 314 313 312 311 311 308 304 300 304 300 301 304 302 303 303 301 295 294 293 293 293 293 293 293 293
327 326 326 325 325 324 324 325 324 324 324 324 324 324 321 318 314 314 312 311 310 307 305 302 299 298 297 296 297 295 295 299 299 299 296 292 293 294 294 293 292 292 293
326 327 326 326 326 325 324 324 324 324 322 321 323 322 318 316 309 311 312 309 307 303 300 298 294 291 292 292 292 294 291 293 297 296 295 295 295 295 295 293 293 294 293
326 326 325 325 325 323 309 303 312 325 321 322 320 318 318 307 306 299 299 299 302 300 298 297 295 293 290 291 290 290 288 288 289 296 293 292 294 293 293 294 293 292 291
326 325 325 325 324 325 304 301 299 320 322 318 316 319 315 310 303 305 294 291 288 290 290 295 291 289 288 290 290 288 288 289 289 292 291 288 292 290 293 292 292 292 291
324 324 325 325 325 324 302 299 297 318 321 321 320 317 310 300 299 294 290 285 284 284 285 286 286 285 285 287 289 289 289 289 289 289 289 284 290 289 292 292 292 292 292
324 324 324 323 322 323 298 295 298 311 300 293 294 294 294 291 290 290 286 284 284 283 285 285 285 284 284 284 283 287 286 284 284 285 289 287 288 287 290 290 290 290 290
324 322 311 303 296 306 295 296 298 294 289 286 286 288 288 288 287 289 287 285 281 280 281 280 280 281 282 281 281 283 284 282 282 282 287 285 285 286 282 288 289 288 288

GFSMA_sfc_thetae_072.txt.gz
Theta_e
328 329 323 322 322 322 321 318 320 320 319 318 322 322 324 323 321 321 321 326 327 326 326 326 324 323 322 320 319 318 318 317 317 316 315 314 313 313 312 311 311 310 310
327 327 324 322 324 322 323 320 323 321 319 319 320 321 322 323 322 321 321 322 325 326 326 325 325 324 323 321 319 319 318 317 316 316 315 314 313 313 311 310 309 308 308
325 326 326 323 324 324 324 323 322 321 319 319 318 320 321 321 323 321 321 321 322 325 326 327 326 324 324 323 321 320 319 318 317 316 315 315 314 313 312 310 308 307 307
326 325 326 326 325 325 325 324 321 320 318 317 316 316 317 319 320 321 321 321 321 322 324 326 326 327 326 324 323 322 321 320 319 318 316 315 315 315 313 312 310 308 308
326 325 326 327 328 326 326 322 321 319 317 317 316 315 315 315 317 318 320 320 320 321 321 324 325 325 326 326 325 324 323 321 320 320 318 318 317 316 315 314 312 310 309
325 326 326 325 327 325 324 322 320 321 319 317 316 315 314 314 314 314 315 317 320 320 321 321 322 322 324 326 327 326 326 326 323 321 320 319 318 317 316 315 314 313 311
325 326 325 326 325 322 322 323 322 320 320 320 316 313 314 315 314 313 313 313 314 315 314 319 320 321 322 324 327 327 328 327 327 326 323 321 320 320 319 317 316 315 313
324 324 323 323 324 323 322 322 321 319 320 320 314 312 309 310 313 314 313 313 312 313 314 315 317 318 317 320 322 327 327 327 327 327 325 325 323 323 321 318 317 316 315
323 323 323 322 323 323 323 323 323 321 317 319 319 316 309 308 311 313 313 313 312 313 312 313 314 314 314 315 319 322 321 321 326 328 327 326 325 324 323 321 320 318 317
323 323 323 323 322 323 324 324 325 322 321 316 319 321 320 318 311 310 314 314 315 313 313 313 312 313 313 313 315 315 314 315 319 324 325 324 323 323 323 321 320 320 318
322 323 323 324 323 322 324 324 323 323 322 318 317 316 317 317 317 311 307 311 314 315 313 313 312 312 312 311 310 312 311 312 314 319 322 322 321 319 318 317 318 318 318
322 322 323 324 323 325 324 322 323 322 320 318 318 319 317 314 314 312 310 311 311 313 314 313 313 310 310 308 311 311 310 309 311 314 316 317 317 316 314 314 314 314 315
318 321 321 322 321 322 324 324 321 320 320 318 317 317 318 317 318 316 313 311 310 312 312 312 312 311 312 310 311 311 309 305 305 308 310 311 312 313 312 312 312 312 313
319 321 322 321 321 321 321 320 319 320 319 319 318 318 318 318 318 318 315 312 307 308 309 310 313 314 313 315 314 309 309 304 303 304 306 307 308 309 309 309 308 308 307
319 320 321 321 319 319 319 319 319 318 319 319 318 318 319 319 320 319 318 317 313 308 307 310 312 315 315 317 313 311 311 303 302 301 302 304 306 306 306 306 305 305 305
321 320 320 321 320 319 319 319 318 319 319 318 319 318 318 319 320 321 320 318 316 313 309 313 312 315 315 315 313 307 306 304 301 300 300 300 301 302 303 303 303 302 301
322 320 319 319 319 318 319 319 319 318 317 317 318 318 319 320 320 320 320 320 317 316 312 314 312 312 309 310 304 306 306 304 300 299 298 298 298 298 299 298 298 298 298
322 321 320 319 319 319 319 318 317 318 317 315 317 317 318 319 319 320 320 318 318 318 315 311 312 309 309 309 304 303 306 307 305 301 299 299 298 296 295 295 295 294 294
321 322 321 319 319 319 318 318 318 317 317 317 317 317 317 317 317 319 319 317 317 316 314 312 312 305 305 302 301 301 301 302 304 304 299 297 296 296 295 294 293 293 294
321 321 321 320 320 320 320 319 319 318 318 318 318 318 318 318 317 318 317 316 315 313 312 310 310 298 300 298 301 299 297 298 298 301 299 297 296 295 294 293 293 293 293
323 322 322 321 321 321 321 320 320 319 318 319 319 319 319 316 309 314 316 314 312 310 310 308 306 294 295 292 296 297 295 293 295 297 293 292 291 289 290 293 293 294 293
323 322 322 321 320 320 309 303 311 318 318 317 317 318 318 306 306 301 301 302 309 311 308 306 304 298 298 294 291 290 288 287 285 294 291 290 290 288 290 291 293 293 293
322 322 321 321 320 320 304 301 300 317 318 317 317 317 315 314 304 311 299 293 289 288 293 302 298 290 288 290 290 286 285 285 285 288 288 285 288 286 289 291 292 293 292
321 320 320 321 320 320 302 301 298 310 315 316 316 316 312 311 306 300 290 286 286 286 287 288 287 287 287 288 288 287 285 285 285 287 288 282 285 284 287 288 291 292 292
320 320 320 320 319 319 301 299 298 309 312 297 294 293 296 294 292 292 287 286 284 283 286 286 286 286 286 286 286 285 283 282 282 282 286 284 284 283 283 283 286 290 289
320 320 316 301 294 303 292 294 298 297 290 287 286 287 288 288 288 288 287 285 282 280 281 281 280 282 282 282 282 283 283 281 281 280 283 281 281 280 278 282 282 282 282

GFSMA_sfc_thetae_075.txt.gz
Theta_e
325 324 324 322 318 321 319 316 316 314 315 316 319 320 319 319 320 321 319 325 327 327 326 326 324 323 322 321 321 320 319 318 318 317 316 315 315 314 313 312 311 311 310
324 322 321 318 318 318 315 317 318 315 314 316 317 319 320 319 319 319 319 321 324 324 327 326 325 324 323 321 320 319 319 319 318 316 316 315 314 313 312 311 310 310 309
325 323 319 320 321 319 316 317 319 318 315 317 316 317 321 319 319 319 319 318 320 323 325 326 326 324 324 322 321 320 319 318 318 317 316 315 314 314 312 311 309 309 308
326 324 320 320 322 320 319 319 319 317 314 314 313 315 317 319 319 319 319 319 318 321 322 325 326 326 325 324 323 322 321 319 318 318 317 317 316 314 313 312 310 309 309
325 325 323 322 323 321 321 321 318 317 314 313 313 312 313 317 318 319 318 318 318 319 320 324 324 324 326 326 325 324 324 322 321 320 319 317 317 317 316 314 313 311 310
324 323 325 325 325 322 321 320 318 315 315 315 315 312 312 313 315 317 318 319 318 319 320 320 322 321 323 326 327 326 326 324 323 323 321 320 319 318 317 317 315 314 313
324 324 324 324 325 323 321 319 317 316 314 315 310 309 310 311 312 311 312 316 317 318 318 319 320 321 321 324 327 327 328 328 327 325 323 322 321 321 320 318 317 316 315
322 322 323 322 324 322 321 318 318 316 316 315 310 310 306 309 309 310 309 310 309 314 316 318 318 319 319 321 322 327 328 328 329 328 327 325 323 322 322 321 319 318 317
323 322 323 323 323 322 320 318 318 316 315 316 314 312 307 304 307 310 310 309 308 309 310 310 316 317 318 317 320 322 321 322 327 329 328 327 326 325 324 323 322 320 319
322 321 321 320 321 320 319 319 320 318 318 314 316 319 317 314 308 306 313 310 310 310 309 308 310 313 315 315 316 316 315 315 319 325 327 328 327 326 325 324 324 323 321
322 321 321 319 318 319 319 320 320 319 318 316 314 314 314 314 314 310 307 310 312 311 311 311 311 312 312 313 312 313 312 312 315 320 324 326 326 326 325 325 324 323 323
320 320 320 319 318 318 320 321 320 320 318 317 317 316 313 311 311 309 307 307 308 310 313 313 312 312 311 312 313 311 309 308 310 315 319 322 324 324 323 322 321 320 319
317 318 318 319 319 319 320 321 321 320 319 317 317 316 318 316 316 316 313 311 310 311 311 312 313 312 312 309 310 310 309 306 306 309 313 316 319 320 320 320 319 317 315
318 320 319 321 319 319 322 320 320 320 319 318 317 317 317 316 317 317 315 311 306 308 309 310 310 312 311 310 309 308 309 305 305 306 309 312 314 314 313 313 314 314 313
318 319 320 319 320 319 319 319 319 318 319 319 318 317 316 316 316 316 317 316 312 306 307 308 309 312 313 313 312 312 312 309 304 304 304 306 308 309 309 309 310 309 309
318 319 319 320 319 319 319 318 317 317 317 317 318 317 316 316 316 317 317 317 316 313 309 311 310 311 312 314 314 314 314 309 303 302 301 302 304 305 306 305 305 306 306
316 318 319 320 320 318 318 317 317 316 316 316 317 317 316 316 316 316 317 317 316 315 311 314 315 315 311 314 314 313 313 310 309 301 300 300 301 301 301 301 302 302 303
319 318 318 318 319 318 317 316 315 316 315 315 316 316 315 316 315 317 317 316 316 316 314 311 314 313 309 311 314 307 307 308 305 301 299 299 300 298 298 298 298 297 297
319 320 319 317 317 317 317 316 315 315 316 316 315 314 314 314 315 316 316 316 317 317 316 315 314 316 312 304 306 304 305 306 305 304 298 298 297 297 297 296 295 295 295
318 319 319 318 317 317 316 316 316 315 315 316 315 315 315 314 314 315 315 316 317 317 317 314 313 313 307 303 306 307 300 302 302 304 301 298 298 297 296 295 294 294 293
319 319 318 319 318 317 317 316 316 316 315 315 315 315 315 313 308 311 315 315 316 316 315 313 310 310 301 294 298 303 303 302 295 297 295 295 294 294 293 294 292 294 294
319 319 319 318 318 318 308 302 310 316 315 314 314 315 316 306 306 301 301 303 313 315 313 312 311 308 308 303 300 294 289 288 288 293 290 289 292 290 292 293 292 293 293
319 318 319 318 318 318 303 301 299 315 316 316 315 315 314 314 305 312 298 292 289 289 292 305 308 308 297 291 290 287 286 286 285 286 287 285 288 286 291 292 292 292 292
319 319 319 319 319 319 302 300 297 309 315 315 315 315 314 314 309 306 293 287 286 286 287 289 290 287 288 289 289 288 286 285 285 286 287 282 285 284 288 289 291 292 292
319 319 319 318 317 319 301 300 299 311 312 313 297 295 301 303 297 295 289 285 283 283 287 287 287 287 287 287 288 287 284 284 282 283 285 283 284 284 284 284 287 289 287
318 318 315 304 294 306 292 294 296 307 300 289 287 288 289 291 289 289 287 285 281 281 281 282 282 282 283 284 285 285 284 281 282 281 283 281 281 281 279 281 281 282 282

GFSMA_sfc_thetae_078.txt.gz
Theta_e
328 327 326 324 321 319 318 316 315 315 315 317 319 318 318 318 319 320 319 326 327 327 327 326 325 325 324 323 321 321 320 320 319 318 317 316 315 314 314 313 312 312 313
326 324 322 320 318 316 315 313 313 312 313 316 318 318 318 318 319 318 318 322 325 326 327 326 325 324 324 323 321 320 320 319 318 317 316 315 315 313 313 312 311 311 310
323 323 320 319 318 314 311 313 314 312 311 316 318 317 318 318 318 318 317 317 320 323 325 326 325 324 324 323 322 321 320 319 318 317 316 315 314 313 312 311 311 310 309
323 319 317 318 317 315 314 314 315 312 312 314 316 317 316 317 317 317 317 317 316 318 322 325 326 326 324 323 322 322 321 320 319 319 317 316 315 315 313 312 311 310 309
321 317 316 319 317 315 315 316 315 313 312 311 315 315 316 315 315 318 316 316 316 318 318 323 324 324 325 325 324 324 323 322 320 320 319 319 318 316 316 314 313 312 311
322 319 319 321 318 317 317 317 315 314 313 312 315 313 314 315 315 315 316 318 317 318 317 318 320 321 322 325 326 325 325 325 323 322 321 320 319 318 318 317 316 314 313
324 321 319 322 320 319 319 318 315 313 311 311 309 308 309 312 314 315 315 316 316 317 316 318 319 319 320 324 326 327 328 328 327 325 324 322 321 321 320 319 318 317 316
322 322 321 322 323 320 318 315 315 313 312 312 309 307 303 307 310 311 313 314 313 316 316 318 318 319 319 319 321 326 327 328 329 328 327 326 324 323 323 322 320 319 318
322 322 322 322 323 321 318 315 314 315 312 311 312 309 305 303 307 308 308 309 310 312 316 316 316 317 319 319 320 321 321 321 327 330 329 327 326 325 324 324 323 322 320
322 321 322 322 321 321 319 319 318 314 314 312 312 316 315 312 306 305 311 308 308 307 308 310 314 316 317 317 318 317 315 315 319 325 328 329 328 326 325 324 324 323 323
321 320 321 321 321 320 319 319 319 317 315 314 311 313 314 313 312 307 303 308 309 309 309 309 309 310 314 315 315 314 312 311 314 320 324 326 327 327 327 326 325 324 324
320 320 320 320 321 320 318 319 321 318 316 316 314 314 313 311 309 308 305 306 307 310 311 310 309 310 310 311 314 312 310 309 311 315 319 322 324 326 327 326 326 326 325
317 319 318 318 319 320 320 320 320 317 315 314 316 315 315 314 314 312 309 307 308 310 309 311 312 312 312 311 311 310 310 306 308 311 315 317 319 321 323 324 325 325 324
318 320 319 319 318 318 319 320 319 318 318 317 314 315 316 316 316 316 314 311 307 308 310 312 312 313 312 312 311 308 311 305 305 306 309 311 314 315 317 319 321 321 321
318 319 319 320 319 319 319 319 318 317 318 317 317 317 316 316 316 317 316 314 311 306 308 309 310 313 314 315 312 311 310 308 304 304 304 306 308 311 312 315 316 316 316
317 318 319 318 320 319 320 320 318 318 318 317 317 316 316 317 317 317 316 316 315 312 307 312 311 313 313 314 313 312 312 309 305 303 302 303 304 307 309 311 311 310 311
315 316 318 318 318 319 319 318 319 318 317 317 317 315 315 316 316 316 316 316 315 314 310 312 313 314 309 311 312 311 313 313 313 304 302 302 302 302 305 305 305 306 306
314 315 317 317 318 318 318 318 317 317 315 315 315 315 314 315 314 315 315 314 314 314 311 309 312 312 309 313 313 311 312 313 313 308 302 301 301 300 300 300 300 301 301
315 314 315 316 316 317 317 316 316 315 315 314 314 313 314 314 313 314 314 314 313 313 313 312 312 314 314 310 310 309 312 311 310 307 300 299 300 300 299 299 298 298 297
318 318 316 316 316 316 317 317 316 314 314 313 313 314 314 313 313 313 313 313 314 313 313 313 313 313 315 313 309 311 308 307 308 308 303 299 299 299 298 296 296 295 294
318 318 318 318 317 316 316 316 316 315 314 313 313 314 314 313 308 310 313 313 313 312 312 312 312 313 313 299 303 310 306 309 296 297 297 296 296 296 296 295 294 292 292
319 319 317 317 317 317 307 302 309 314 314 313 312 313 314 305 305 300 300 302 309 311 311 312 312 311 312 313 309 307 308 291 293 293 291 289 292 290 292 292 292 291 290
317 317 317 317 316 317 303 300 299 314 314 313 313 313 313 313 305 311 302 297 296 293 295 311 312 313 313 314 310 291 289 288 286 287 289 285 289 288 292 292 291 291 291
317 316 317 317 317 317 301 300 297 310 314 315 315 315 314 313 312 311 310 300 294 288 289 290 293 293 289 291 293 292 288 285 285 285 287 283 286 285 288 288 288 289 290
317 317 318 317 316 317 298 299 299 312 313 314 315 315 312 313 308 300 304 291 285 284 287 288 287 286 287 287 289 289 285 286 282 282 285 284 284 284 285 285 287 289 287
310 315 301 292 289 291 288 290 293 307 309 309 294 290 288 291 292 293 304 290 284 282 283 282 282 283 283 284 284 284 284 282 282 280 280 281 280 281 279 281 282 282 282

GFSMA_sfc_thetae_081.txt.gz
Theta_e
328 331 329 328 326 322 320 315 314 316 317 317 318 318 318 318 318 319 320 326 327 328 328 328 327 326 325 324 323 322 321 321 321 320 319 317 316 316 315 314 314 315 315
330 328 327 324 322 322 319 315 314 314 316 317 316 318 318 318 318 317 319 322 325 326 327 327 326 326 325 323 322 321 321 320 320 319 318 316 316 315 314 313 313 313 313
329 327 325 321 320 318 315 313 311 312 315 317 316 317 318 318 317 317 317 318 321 323 325 326 326 325 325 323 322 321 321 320 319 318 317 316 315 314 313 313 312 312 311
328 325 322 319 319 314 313 314 311 310 315 316 315 315 316 317 316 316 316 316 316 319 323 325 325 326 324 324 323 322 321 320 319 318 317 317 316 314 313 313 312 312 311
325 322 320 317 317 314 314 314 312 311 312 314 315 314 315 315 315 317 315 315 315 315 317 323 324 323 324 324 323 324 323 322 321 320 319 317 316 316 315 314 313 312 312
321 318 317 315 315 313 313 314 314 311 313 314 316 313 312 313 313 313 313 315 315 316 316 317 319 319 322 325 324 324 324 324 322 322 321 320 320 318 317 317 315 314 313
319 316 317 315 315 312 314 316 314 311 309 312 310 308 309 313 313 313 314 314 315 316 314 316 317 317 319 324 326 326 326 327 326 324 323 322 321 321 321 319 318 317 316
318 317 318 315 316 314 315 315 313 310 309 310 309 307 304 307 309 312 314 315 315 315 315 317 316 317 317 318 320 326 327 328 329 328 327 326 324 324 323 321 320 320 319
322 317 319 318 318 318 317 316 314 312 310 309 311 307 303 302 307 307 310 313 313 312 315 316 316 317 317 317 319 320 320 321 326 330 329 328 327 326 325 324 323 323 322
322 321 320 322 320 319 318 317 316 315 313 310 308 313 311 310 304 303 309 309 311 311 313 314 315 316 316 317 318 316 315 314 318 325 328 329 329 327 326 326 325 325 324
321 321 322 321 321 321 320 318 316 315 313 311 308 311 312 311 310 307 305 308 307 308 310 312 313 314 315 316 317 316 312 312 313 319 324 326 327 329 328 327 326 326 325
320 320 321 321 321 320 320 319 319 316 315 314 312 312 311 310 309 307 306 305 306 308 309 308 308 310 311 314 316 314 311 309 311 315 319 322 324 326 327 327 327 327 326
318 319 319 320 320 320 319 319 319 318 316 313 313 313 314 313 312 311 309 308 306 308 308 310 311 311 310 310 311 311 311 307 308 311 314 316 319 321 323 324 325 326 327
318 320 319 319 320 320 318 318 318 318 317 316 315 314 315 314 314 314 311 309 305 305 307 309 311 312 312 312 312 308 311 306 306 307 309 311 313 315 316 318 320 322 323
317 319 319 318 318 319 319 318 317 317 318 317 316 315 316 316 316 316 315 314 310 305 306 308 310 313 314 314 312 312 311 309 305 304 304 306 309 311 312 314 315 317 319
315 316 317 317 318 318 319 319 318 318 317 318 317 315 315 315 316 316 315 314 314 311 307 313 311 312 314 314 314 313 312 308 305 303 302 303 304 306 308 309 310 312 313
313 315 317 318 317 318 318 318 318 318 316 317 316 315 315 316 315 315 315 315 314 313 310 312 314 312 310 312 313 313 313 312 312 304 302 302 301 302 303 304 305 307 308
312 314 315 317 318 317 317 317 317 317 315 315 315 315 315 315 315 315 314 313 313 314 312 309 313 313 309 312 312 312 312 313 313 310 304 303 302 301 300 301 301 302 304
311 313 314 315 316 316 316 316 317 317 316 316 316 315 315 315 313 314 314 313 313 313 313 311 311 314 314 308 309 309 311 313 313 310 304 302 302 301 301 300 300 301 302
314 312 312 314 314 315 316 316 316 315 315 315 315 316 315 314 313 313 313 313 314 313 312 311 311 311 312 312 310 312 311 310 311 312 308 305 302 300 299 299 298 299 298
318 316 315 314 314 314 314 315 316 315 314 313 313 313 313 312 307 310 313 312 311 310 310 310 310 311 310 310 306 311 310 311 312 309 305 297 298 298 298 297 298 297 294
316 316 317 317 315 315 304 300 307 314 314 313 312 313 313 305 305 299 299 301 308 310 308 309 309 308 309 310 312 311 310 309 304 295 294 290 292 292 294 293 293 292 292
315 315 315 315 316 317 302 301 299 313 314 313 313 313 312 313 305 311 302 296 297 297 300 311 309 309 309 311 312 311 309 309 307 290 289 285 289 289 292 292 292 291 291
315 315 316 317 316 316 296 298 297 310 314 314 314 314 313 313 313 311 310 309 305 305 299 298 303 303 297 293 297 297 292 285 285 285 287 285 285 284 287 288 289 289 289
311 316 317 316 311 298 289 290 292 306 311 313 315 315 303 307 304 299 306 306 294 285 287 288 287 287 287 287 289 289 286 287 284 282 282 284 283 283 284 284 286 287 287
297 294 288 287 287 287 287 289 290 295 304 306 291 288 287 287 287 288 292 302 288 282 283 283 282 282 283 283 284 283 285 283 282 279 280 280 280 280 280 282 281 281 282

GFSMA_sfc_thetae_084.txt.gz
Theta_e
328 327 330 329 329 324 320 318 318 320 317 316 317 319 318 318 319 320 322 326 328 330 329 329 328 327 326 324 324 323 323 323 322 321 320 320 319 318 317 317 317 317 316
329 328 329 327 325 324 318 315 317 318 317 317 316 317 318 319 319 319 320 323 325 328 327 327 327 327 326 325 323 323 322 322 321 321 320 318 317 316 315 315 316 316 315
328 329 327 324 323 322 317 314 313 315 316 316 316 316 317 319 319 318 319 320 322 324 326 328 327 326 325 324 323 322 322 321 321 320 318 317 317 316 315 314 314 314 314
329 328 326 323 323 320 316 314 315 314 314 315 313 314 316 317 317 317 318 319 319 320 323 325 326 326 324 324 323 323 322 321 320 319 318 318 316 315 315 314 313 313 312
329 328 326 322 318 317 316 313 311 315 314 314 314 313 314 314 315 317 316 316 317 318 319 323 323 323 325 325 323 323 323 322 321 320 319 318 317 316 315 314 314 313 312
328 327 323 319 319 317 315 313 312 313 315 314 315 312 312 313 314 314 314 316 316 317 318 320 321 320 322 325 324 324 324 324 322 321 320 319 318 318 317 316 315 314 314
327 323 319 316 317 316 314 313 313 312 311 313 311 308 309 311 313 313 314 314 315 316 317 318 319 319 320 323 325 325 325 326 325 323 323 322 321 321 320 318 318 317 316
321 319 316 316 314 314 314 314 312 309 310 314 309 308 305 308 311 313 314 315 315 316 316 317 317 318 318 320 321 325 326 328 328 327 326 325 324 324 323 322 321 320 319
318 318 316 315 313 314 313 314 312 311 311 310 314 309 304 304 308 310 312 314 314 314 316 317 316 317 318 319 319 321 320 321 327 330 329 328 326 325 325 324 323 323 323
318 318 316 314 314 314 314 315 315 313 313 309 309 312 311 309 306 303 309 312 314 313 314 315 316 317 317 318 318 316 314 314 318 324 328 329 329 328 327 326 325 325 324
318 319 320 317 316 316 317 316 315 314 313 311 310 311 311 311 310 306 304 307 309 312 314 315 315 316 317 317 318 317 312 311 313 319 323 326 327 329 328 328 327 326 326
319 319 320 320 320 318 318 317 316 315 313 312 312 312 311 310 309 308 306 307 307 309 311 312 313 314 316 316 317 314 312 310 311 315 318 321 324 326 327 327 328 328 328
318 319 319 318 320 319 319 318 317 316 314 313 311 312 313 313 313 311 309 308 307 310 310 310 310 311 312 313 315 312 312 308 309 311 314 317 319 321 323 324 326 326 327
319 320 320 321 320 319 319 319 319 318 316 315 313 312 313 314 314 313 311 309 306 307 309 310 312 313 312 312 310 308 312 307 306 307 309 311 313 315 316 318 320 322 323
319 319 320 319 320 320 319 318 318 318 317 316 315 315 314 314 315 315 314 314 311 305 307 309 310 314 314 314 312 313 312 309 305 304 305 306 309 311 312 313 314 316 317
318 318 318 319 319 319 319 318 317 317 317 317 317 315 315 316 316 316 315 314 313 312 308 310 311 313 314 315 315 314 314 309 305 303 303 303 304 306 308 309 310 311 312
314 317 318 318 317 318 318 317 316 316 316 316 316 316 315 316 316 316 316 316 314 313 309 311 314 315 312 314 314 315 314 314 313 304 302 302 302 302 303 304 305 306 308
313 314 316 317 317 317 317 317 317 317 316 315 316 315 315 316 315 316 315 314 314 314 312 309 312 313 311 314 314 314 314 314 314 309 304 303 302 301 300 301 301 301 302
311 312 314 315 316 316 317 317 316 316 315 315 316 316 315 315 314 315 314 314 314 314 313 311 310 314 314 315 312 312 313 314 314 310 304 303 303 303 302 301 301 300 300
310 310 313 314 313 314 316 316 316 316 316 316 316 316 316 315 315 314 314 314 313 313 312 311 311 312 313 315 312 311 310 311 311 314 310 307 305 304 302 300 299 299 299
313 311 311 312 313 313 314 314 315 314 314 314 313 314 315 313 308 311 315 314 313 311 312 311 310 311 311 310 310 312 310 312 313 314 312 313 310 309 306 299 300 299 298
313 313 312 313 312 313 303 300 309 315 315 314 314 314 314 305 305 300 300 302 310 313 310 309 310 308 309 310 312 311 310 308 306 311 309 308 296 294 296 297 297 295 294
315 313 314 315 315 314 298 299 298 312 313 314 314 314 313 313 304 311 302 296 297 297 300 311 310 309 309 311 310 310 309 308 308 295 291 286 289 288 292 292 292 292 292
315 315 314 315 315 294 289 290 290 304 312 313 314 314 313 313 313 310 310 309 306 303 292 296 297 294 287 287 291 296 294 286 286 285 286 285 285 284 285 285 288 288 288
299 293 292 293 292 289 288 289 290 298 305 310 309 290 290 292 290 292 296 301 294 284 286 286 286 285 285 285 286 290 286 289 285 280 281 284 281 282 282 282 284 286 285
289 288 286 286 286 286 287 288 289 295 295 289 286 286 286 287 287 289 292 292 285 283 282 282 282 282 282 283 283 282 283 282 281 278 280 280 280 281 279 282 281 282 282

GFSMA_sfc_thetae_087.txt.gz
Theta_e
328 331 333 333 330 328 328 332 331 330 330 328 328 328 327 327 326 326 326 327 328 330 329 330 329 329 327 326 325 324 324 323 323 322 322 321 321 321 320 320 319 319 317
329 331 335 330 330 326 328 330 329 329 328 327 326 327 326 326 326 327 327 327 326 328 330 329 329 328 327 326 324 324 323 323 323 322 321 320 320 319 318 319 318 318 316
331 332 330 330 328 325 326 329 329 328 325 324 325 325 325 326 325 326 327 327 326 325 327 329 328 326 326 325 324 324 323 323 322 322 320 319 318 317 316 317 317 317 316
332 330 329 328 327 324 326 325 325 323 324 323 321 323 322 324 326 326 327 327 326 324 324 326 327 327 326 325 324 324 323 322 322 322 320 318 318 317 316 316 315 315 315
330 329 328 327 324 321 325 324 323 324 322 322 322 322 323 323 325 324 325 326 326 326 324 324 324 324 325 325 324 324 324 323 322 321 320 319 318 318 317 316 315 315 314
330 329 327 323 324 324 322 322 322 323 323 322 320 321 322 324 324 324 325 324 325 326 326 325 324 322 322 325 325 325 325 325 323 322 321 320 319 318 317 317 316 316 315
329 328 325 322 323 324 322 322 322 321 321 323 320 319 320 322 322 323 323 323 323 324 325 325 324 324 323 323 326 325 326 326 325 324 322 322 321 321 320 318 317 317 316
328 325 322 321 322 324 322 320 321 320 320 321 318 317 311 315 320 320 321 322 323 323 323 324 324 324 324 324 324 325 326 327 327 327 326 325 324 324 323 321 321 320 319
327 324 322 322 324 323 320 321 321 321 316 320 322 319 313 312 315 319 320 321 322 322 322 322 322 323 324 324 323 322 320 321 326 330 329 327 326 325 325 325 324 324 323
324 321 322 322 321 320 321 320 320 320 321 318 320 319 322 320 315 313 317 319 321 319 321 321 321 322 323 324 322 318 315 315 318 324 328 329 329 328 327 326 326 325 325
319 319 320 319 318 319 320 319 317 320 323 321 318 318 318 319 319 316 312 314 318 319 319 321 322 322 323 323 323 320 313 312 313 319 323 325 327 329 329 328 327 327 326
318 317 317 317 317 319 319 320 320 320 320 321 321 321 318 316 314 316 315 315 316 318 320 322 321 321 322 322 320 315 312 310 311 315 318 321 323 325 327 328 329 329 329
317 319 318 318 319 320 318 318 321 319 318 318 318 319 320 320 320 319 317 315 314 317 316 318 320 320 319 322 321 314 313 308 308 311 314 316 318 321 323 324 326 327 328
317 318 317 317 319 320 319 319 319 320 318 320 319 320 320 320 320 319 317 316 313 315 316 318 316 317 317 317 317 310 316 307 306 307 309 312 313 315 316 318 320 322 324
320 318 317 316 316 315 317 319 318 318 318 321 321 321 320 319 321 320 320 320 316 311 311 317 315 315 316 315 315 319 319 311 306 305 305 307 309 311 312 313 314 316 318
321 320 320 318 317 316 315 317 318 319 319 318 318 317 316 319 320 319 321 321 320 316 311 317 314 316 317 317 316 317 318 311 306 303 302 303 305 307 308 309 310 311 313
319 319 319 319 319 318 316 315 314 317 317 317 317 316 316 317 316 316 316 317 318 317 313 314 317 315 314 316 317 318 317 317 317 305 303 303 302 302 303 304 305 306 308
322 321 320 318 318 318 319 317 315 316 317 317 317 317 316 317 316 317 316 315 315 316 314 313 319 321 321 322 323 321 319 320 321 313 305 303 303 302 301 301 301 302 303
320 320 321 321 320 318 317 318 318 318 317 316 317 316 316 317 316 319 320 319 317 317 317 316 317 321 321 323 321 322 321 323 322 313 305 303 302 303 302 301 301 301 301
318 320 320 321 321 321 321 319 318 318 318 318 318 320 320 319 320 320 317 316 315 315 315 313 313 314 317 321 321 319 319 322 321 320 313 308 307 306 302 302 301 301 300
317 318 319 320 321 321 320 321 320 318 318 318 319 320 322 318 309 314 320 321 320 318 316 315 314 314 314 315 315 317 314 316 320 319 318 318 319 319 315 302 304 300 299
319 318 317 318 318 316 303 301 311 317 318 318 318 320 320 308 307 300 300 302 311 316 314 312 312 310 311 312 313 312 312 311 308 318 315 313 297 293 293 294 293 293 294
319 317 317 316 315 307 290 292 295 316 317 317 317 316 315 315 308 316 304 297 298 296 297 308 310 311 310 308 305 309 311 311 309 291 293 289 288 285 287 288 290 290 290
300 302 299 303 294 290 289 289 289 304 309 313 305 297 298 300 293 294 299 305 301 287 288 290 288 287 286 287 290 292 292 287 287 285 286 285 285 283 285 286 287 288 287
291 290 289 290 289 287 288 289 292 301 302 292 289 288 288 289 288 289 293 293 285 284 286 287 286 285 284 284 284 290 288 288 286 283 282 284 283 282 282 281 284 285 285
287 286 285 285 286 285 287 288 291 296 290 286 285 285 285 286 286 287 290 291 285 284 284 283 282 281 282 281 282 282 283 285 283 280 281 281 283 284 282 284 284 284 284

GFSMA_sfc_thetae_090.txt.gz
Theta_e
335 335 331 333 337 334 332 331 333 335 335 334 335 334 333 331 331 329 329 328 329 332 330 329 330 329 328 327 326 326 324 324 324 324 323 322 322 322 321 322 320 319 318
333 333 333 335 336 334 332 331 332 334 333 334 333 333 331 330 330 328 327 327 327 329 330 330 330 329 329 328 326 324 324 324 324 323 323 322 322 321 321 320 320 319 317
332 332 332 331 335 333 329 330 333 334 332 332 331 331 330 329 327 327 327 327 326 325 328 330 330 329 328 327 325 324 324 324 323 323 322 321 321 320 319 320 319 318 317
331 336 330 330 333 330 328 328 332 331 330 330 329 329 327 326 326 327 326 326 326 326 326 327 328 329 328 327 326 325 324 324 323 323 322 321 320 318 318 318 318 318 317
331 332 332 330 329 327 325 328 329 330 328 328 327 327 327 326 326 325 326 327 328 326 325 325 325 325 326 327 326 325 325 324 324 323 322 320 319 319 318 317 317 317 317
331 330 329 328 327 324 324 326 328 330 329 327 324 324 327 326 327 324 325 326 327 327 327 326 325 324 322 326 326 324 326 325 324 324 323 321 320 319 319 318 317 317 317
329 330 328 326 324 323 323 328 328 328 327 328 323 321 323 324 324 325 325 325 325 326 327 327 326 325 324 323 326 325 326 327 326 325 324 323 322 322 321 319 318 318 317
330 329 326 325 324 322 322 328 328 326 326 327 321 320 314 317 321 323 324 324 325 325 325 326 326 326 326 324 324 326 326 327 328 327 326 325 324 324 323 322 322 320 319
329 328 325 324 324 323 322 327 329 327 323 325 326 321 315 313 318 322 324 324 324 324 325 325 325 326 326 325 324 322 320 321 327 330 329 327 326 326 325 325 324 323 323
327 325 325 324 324 324 324 327 330 328 327 322 324 324 324 322 316 314 322 323 324 323 325 325 325 326 326 326 323 319 315 315 318 324 328 330 329 328 327 327 326 326 325
325 324 324 324 323 323 326 329 329 328 326 325 323 323 324 324 324 318 315 319 323 324 325 326 325 324 325 326 327 323 313 311 313 319 323 326 328 329 329 329 327 327 327
323 322 323 323 323 323 325 326 326 329 328 328 325 324 322 320 320 319 316 318 319 322 324 325 325 325 326 326 323 316 312 310 311 315 318 321 324 325 326 327 329 330 329
316 317 319 319 320 323 326 325 326 327 326 326 327 325 325 323 322 322 319 315 316 320 322 325 325 326 326 326 326 315 314 308 308 311 314 316 318 320 322 324 325 327 328
316 317 317 318 319 321 323 324 325 323 324 325 325 326 325 325 324 322 319 316 314 315 318 319 323 325 326 326 322 311 322 308 307 307 309 312 313 315 316 318 320 321 324
318 319 318 319 320 320 321 323 322 319 321 324 325 326 324 324 325 324 323 320 316 311 311 318 320 324 323 323 320 323 323 314 307 306 306 307 309 311 312 313 314 315 317
318 317 316 317 317 317 317 318 318 318 318 319 320 322 321 323 324 324 323 321 321 318 313 319 320 324 325 318 319 318 320 312 308 305 303 304 305 307 309 309 310 311 312
318 317 315 315 314 313 314 313 312 316 319 318 319 321 320 322 320 322 322 321 317 319 313 318 323 325 324 324 324 321 319 321 323 306 304 303 302 302 304 305 305 307 308
321 321 319 318 317 316 314 313 312 313 316 317 319 318 318 319 318 317 317 316 316 317 314 312 316 317 317 319 322 324 324 324 325 315 307 304 303 302 301 301 302 302 302
321 321 320 319 318 317 315 314 314 312 313 316 319 320 319 318 317 317 316 315 316 320 319 318 318 321 323 325 325 326 326 328 327 316 306 303 303 302 302 301 301 301 301
323 323 323 322 321 320 320 318 315 316 315 317 318 318 318 318 317 317 317 318 317 317 318 315 314 316 319 324 324 322 322 326 323 323 317 311 310 306 301 299 299 300 300
321 324 323 323 323 322 321 321 320 319 318 321 322 321 322 316 309 314 322 321 321 321 320 320 318 317 318 319 318 319 316 318 320 324 321 320 302 299 295 294 295 295 296
319 319 319 322 323 320 291 294 312 323 322 321 320 322 322 310 310 301 301 302 310 320 317 316 314 312 312 314 315 313 313 311 310 300 302 295 291 288 289 290 291 291 291
322 319 318 319 303 297 289 291 290 316 320 319 318 318 317 317 307 316 303 297 297 290 291 302 306 307 300 292 293 297 296 293 291 290 292 288 288 286 287 288 289 289 289
297 297 296 294 292 290 289 289 289 306 313 295 292 293 296 296 291 293 298 294 288 287 288 288 287 285 284 285 287 291 292 290 287 285 285 289 286 283 285 285 287 287 287
289 289 289 289 289 287 288 289 295 298 291 288 287 287 288 288 287 289 294 289 285 284 285 285 285 284 284 284 286 291 287 288 289 282 282 285 284 282 283 284 285 285 285
286 286 285 286 286 285 287 288 293 290 285 284 284 284 285 285 285 287 293 288 284 283 282 283 282 283 284 283 283 284 288 285 285 283 283 284 285 285 283 287 286 287 288

GFSMA_sfc_thetae_093.txt.gz
Theta_e
341 340 335 336 337 335 332 331 332 332 332 334 335 335 332 334 331 331 331 329 331 333 331 329 329 329 327 328 328 327 325 324 324 324 323 323 323 323 323 322 321 320 320
340 337 335 334 334 334 332 331 331 330 330 331 334 332 331 331 330 329 329 329 328 330 331 330 329 330 329 329 328 326 324 323 324 323 323 322 322 322 322 321 321 319 318
340 337 333 333 337 333 335 331 330 330 329 331 330 331 330 329 327 327 328 328 328 326 328 330 332 330 329 329 327 325 325 324 324 324 323 322 322 321 321 321 320 319 318
337 335 331 334 333 332 332 329 328 327 327 328 328 328 328 328 327 326 327 327 327 326 326 328 330 330 330 329 327 324 324 325 324 323 323 322 322 321 320 320 320 319 318
336 333 336 332 332 329 329 330 327 327 326 328 326 328 327 324 325 324 327 327 327 326 326 326 327 327 328 329 327 325 325 325 324 324 323 322 321 320 319 318 319 319 319
334 335 332 330 333 328 327 328 326 326 327 326 324 324 325 325 324 324 325 326 326 328 326 328 327 325 324 327 328 326 326 326 325 324 324 323 321 320 320 319 318 318 318
331 331 330 330 330 325 326 326 326 324 324 330 324 322 325 327 326 323 324 324 325 327 326 327 326 325 324 324 327 327 327 327 326 325 324 324 323 323 322 321 320 319 319
331 329 330 328 327 325 324 324 324 322 323 327 322 321 316 318 322 324 323 323 327 324 325 327 326 325 325 324 323 326 326 327 328 327 327 326 325 324 324 323 321 321 320
330 329 329 327 325 324 324 324 325 323 322 325 326 320 314 311 317 322 324 322 326 324 324 324 325 325 326 326 323 323 320 321 327 330 329 327 326 326 325 325 324 324 323
328 328 328 326 324 325 323 323 325 324 325 321 325 326 325 322 315 313 320 322 323 323 326 324 325 325 326 326 325 320 316 315 318 325 329 330 329 328 327 326 326 326 325
327 327 326 325 324 323 324 324 324 326 326 325 324 324 325 323 324 318 313 318 321 322 324 326 326 326 327 327 328 323 313 312 314 319 323 327 329 330 330 328 327 327 327
325 325 325 325 324 324 324 324 326 326 326 328 327 326 323 319 319 319 317 318 319 321 324 326 327 327 327 327 324 317 313 310 311 315 319 322 324 326 327 328 329 330 329
322 323 323 323 323 323 324 324 325 328 329 328 328 324 326 325 325 322 318 318 316 320 322 326 327 328 327 328 327 317 313 308 309 311 314 317 319 321 322 324 325 327 327
320 322 323 323 323 323 323 325 326 328 328 327 325 325 325 327 325 323 320 317 314 315 317 321 327 328 328 329 326 313 324 309 308 308 310 312 314 315 316 317 319 321 323
317 318 320 321 322 323 323 323 323 323 325 326 326 327 324 324 327 327 325 321 318 311 312 320 320 327 327 328 324 328 327 315 307 306 306 307 310 312 312 313 314 315 317
318 317 318 318 319 321 322 321 321 323 324 326 325 324 323 325 325 326 324 324 323 318 312 318 321 325 326 320 321 326 326 314 307 304 304 305 306 308 309 310 310 311 313
318 317 318 318 318 319 320 321 322 321 320 320 319 318 319 321 323 325 324 321 323 321 316 319 322 324 320 325 324 324 323 324 324 306 305 304 303 303 303 304 305 307 308
317 317 316 316 315 314 315 315 314 315 314 314 316 318 318 320 321 321 324 321 321 321 317 313 317 316 317 319 321 325 324 324 323 315 307 305 304 302 302 302 302 302 303
318 317 316 315 314 313 313 313 312 312 313 313 315 318 317 320 320 320 320 317 317 316 315 313 313 319 321 323 323 323 323 326 326 316 307 303 304 305 301 298 299 299 300
320 320 320 319 318 316 315 314 313 312 313 314 316 318 319 320 319 320 318 317 316 314 315 315 313 314 318 322 322 320 321 325 324 325 317 301 300 296 295 296 296 296 297
323 323 322 322 321 319 317 315 315 314 313 313 315 319 320 318 309 314 318 319 318 316 318 316 315 317 318 320 320 321 318 318 318 304 308 296 297 294 292 293 293 293 293
322 323 322 323 322 301 291 292 308 317 316 318 315 318 321 308 307 301 301 300 305 314 316 315 314 313 314 315 312 308 306 308 306 293 298 292 292 288 288 289 290 290 290
318 312 310 302 296 294 290 291 291 313 316 310 307 306 314 302 298 305 300 292 289 289 289 299 303 299 294 288 290 295 298 296 295 287 291 290 289 285 287 288 289 289 288
296 296 295 294 293 290 289 290 291 306 295 292 291 293 294 293 290 293 299 290 286 286 286 287 286 285 285 286 287 290 290 288 287 285 286 287 286 283 285 286 287 287 287
288 288 288 288 288 288 289 291 297 294 289 287 287 287 287 287 287 290 293 286 284 283 285 286 285 285 285 285 286 294 288 289 288 284 284 286 285 283 284 285 286 285 285
286 285 284 285 286 285 288 289 290 288 284 283 284 284 285 285 286 289 288 286 282 282 283 283 283 284 284 285 285 285 288 287 287 286 284 285 287 287 285 287 288 288 287

GFSMA_sfc_thetae_096.txt.gz
Theta_e
340 338 337 335 332 332 332 332 330 329 331 331 332 332 330 330 329 330 330 330 331 333 332 331 330 329 328 328 330 328 324 324 324 325 325 324 325 324 324 323 322 321 321
340 337 335 333 333 333 333 331 330 328 329 330 330 331 329 330 329 328 328 327 329 330 331 329 330 328 328 328 329 326 324 324 324 324 324 324 325 325 324 322 321 320 319
338 336 334 333 332 333 331 330 329 329 328 329 328 329 330 329 327 326 325 326 326 326 328 330 331 330 329 328 328 326 324 325 324 323 324 323 323 323 323 323 321 319 319
338 335 334 332 332 331 331 329 328 328 327 326 325 327 327 324 324 324 324 325 324 324 326 327 329 330 330 329 327 325 325 324 324 324 323 323 323 322 321 321 321 320 319
337 334 332 332 332 331 330 328 327 327 325 325 325 326 324 322 321 323 323 323 323 323 322 326 327 327 328 330 327 326 326 325 325 325 324 323 323 322 321 321 321 320 320
336 334 332 331 331 329 328 327 325 326 325 324 328 325 320 320 320 321 322 323 322 322 322 324 325 324 325 328 329 326 327 326 326 325 325 324 323 322 321 320 319 319 320
333 333 331 330 330 328 327 327 325 324 323 325 322 320 320 319 318 318 323 321 322 322 322 324 324 322 322 325 328 328 328 328 327 326 325 325 324 323 323 321 320 320 320
332 331 331 329 328 327 326 326 324 322 323 324 319 316 312 315 319 319 321 322 321 322 321 323 322 321 321 321 321 327 327 328 328 327 327 327 326 325 324 322 321 321 321
331 330 330 329 328 327 325 325 324 322 320 322 322 316 310 308 312 316 318 317 320 321 321 321 323 322 321 320 321 321 321 321 327 330 329 328 327 326 325 325 325 324 323
330 330 329 328 327 326 325 324 325 323 322 318 321 320 317 316 310 308 315 318 319 318 319 320 320 321 320 321 320 318 315 315 318 325 329 329 328 328 327 326 326 326 325
329 328 328 327 326 326 325 324 324 323 322 320 319 318 316 318 316 311 308 311 316 318 318 319 318 318 320 321 320 318 313 312 314 319 324 327 330 330 328 328 327 327 327
326 327 327 326 325 324 324 324 324 324 323 322 321 320 317 315 314 314 311 311 312 315 318 319 318 320 320 320 322 317 312 310 311 315 319 322 324 327 328 329 329 330 329
323 324 325 324 324 324 324 325 324 324 323 321 321 320 321 318 319 319 316 314 313 314 315 318 320 320 322 321 321 315 313 308 309 312 315 317 319 321 323 324 326 327 328
323 325 324 324 324 324 324 324 324 323 323 322 322 322 321 321 321 320 316 314 310 312 315 317 320 321 322 321 320 313 319 308 306 308 310 312 315 316 317 319 320 322 323
321 322 323 323 323 323 323 323 323 321 321 323 322 322 320 321 321 321 320 318 313 308 308 316 316 320 322 322 320 320 320 312 306 306 306 308 311 312 313 314 315 316 318
319 319 319 322 322 322 323 323 322 322 322 322 322 321 320 320 320 320 320 320 318 313 307 313 315 320 322 323 320 320 322 314 307 305 305 305 306 309 310 310 311 312 313
318 317 317 318 321 321 322 322 321 321 321 321 320 319 318 319 318 319 318 319 317 314 310 313 315 317 317 318 319 318 319 321 321 307 305 304 303 303 304 305 305 307 308
318 318 318 317 316 318 321 320 319 320 320 318 317 317 316 318 317 316 318 317 316 316 313 311 314 313 315 316 317 319 320 321 320 313 306 304 304 302 302 299 300 300 301
317 317 316 315 314 314 313 316 316 315 315 315 315 315 316 316 315 316 316 317 316 316 316 311 311 314 315 316 316 317 318 319 321 314 307 298 297 297 296 296 297 298 298
316 316 316 315 314 313 313 312 312 312 312 313 313 313 313 315 314 316 316 316 314 314 313 312 311 311 311 314 315 314 314 318 318 322 300 298 296 295 294 294 294 295 295
318 317 317 316 315 314 314 313 312 312 311 312 314 315 316 313 308 311 316 315 313 313 312 311 311 311 311 312 313 316 315 315 301 299 306 296 293 292 291 292 292 292 292
320 320 318 318 314 297 291 294 308 313 313 313 311 312 314 305 305 301 298 291 296 310 313 312 312 312 311 300 299 299 300 301 301 291 295 293 291 287 288 289 290 290 290
303 300 299 297 293 292 290 292 297 313 312 308 307 308 306 299 298 302 290 289 288 288 289 300 303 292 293 288 289 293 296 295 294 287 290 287 287 284 287 288 289 289 289
294 293 292 292 291 290 290 291 294 297 292 290 290 292 293 292 290 297 290 287 285 285 286 287 286 285 285 285 287 290 290 287 286 285 285 285 285 283 285 286 287 287 287
287 286 287 287 287 287 289 290 293 290 287 285 286 287 287 288 289 294 288 285 283 283 286 286 286 286 286 286 287 290 286 286 285 283 283 284 283 282 283 283 284 286 285
284 284 283 284 286 286 287 288 288 287 284 284 284 285 286 286 289 289 286 284 282 282 283 283 284 284 285 284 285 283 284 285 285 283 281 283 284 285 283 285 285 285 283

GFSMA_sfc_thetae_099.txt.gz
Theta_e
335 333 331 331 331 331 329 328 329 328 329 331 332 331 328 328 329 330 331 330 331 333 332 331 331 331 329 328 329 327 326 325 326 326 326 326 324 323 323 323 322 322 321
336 334 331 330 329 330 329 330 327 327 328 330 330 330 330 328 329 329 330 329 329 331 332 331 332 330 329 328 330 325 325 326 326 325 325 325 326 324 324 323 322 321 321
335 333 332 330 331 330 330 329 328 327 327 329 328 329 329 329 328 328 327 326 326 326 328 331 331 329 328 328 328 325 325 324 325 325 325 324 324 324 323 322 321 321 320
335 332 331 329 330 330 330 329 328 326 325 326 326 326 327 328 327 326 326 325 324 324 325 327 329 328 329 328 327 326 325 324 324 324 324 324 324 323 323 322 321 320 319
334 332 331 331 331 330 329 328 327 326 324 325 325 325 326 324 324 325 324 324 322 321 321 325 326 326 327 328 328 327 327 325 325 324 324 324 324 323 322 322 322 321 320
333 330 329 329 329 328 328 328 327 327 326 325 326 324 325 323 323 322 322 323 322 321 321 323 324 324 324 328 329 327 327 326 326 326 325 324 324 323 322 322 322 321 321
334 332 331 330 330 328 326 327 326 325 323 325 321 320 320 320 319 321 321 321 320 320 321 323 323 322 323 326 327 328 328 328 327 326 326 325 324 324 324 321 321 320 320
333 332 330 329 329 327 327 326 325 323 323 324 318 317 312 315 315 319 320 320 318 320 321 322 322 320 320 321 321 327 328 328 328 327 327 327 326 325 324 322 322 321 321
332 331 330 329 329 328 326 326 324 323 320 322 322 316 310 308 312 315 317 318 317 318 320 321 321 321 320 320 321 322 321 322 328 330 329 327 327 326 325 324 324 323 322
330 330 330 328 328 327 326 326 325 324 322 319 322 322 316 315 309 309 316 317 318 318 317 320 320 320 320 319 319 318 315 315 319 326 329 329 328 328 327 326 326 325 325
329 328 328 328 327 327 326 325 325 323 323 321 320 319 315 315 313 311 307 311 315 319 319 318 320 319 319 319 318 317 313 312 314 320 324 328 330 329 328 328 327 327 327
327 327 328 327 327 327 325 325 325 323 323 322 322 320 316 313 312 311 309 310 311 313 316 317 317 319 319 319 319 316 312 310 311 315 319 323 325 327 329 329 329 328 328
324 324 326 325 326 326 325 325 325 324 323 321 321 320 319 317 317 314 311 311 310 310 312 315 317 318 318 317 318 315 312 308 308 312 315 317 320 322 324 326 328 329 330
323 323 324 326 326 326 325 325 325 324 323 322 321 321 320 318 318 318 315 312 309 311 311 312 316 316 318 319 318 312 315 307 307 308 310 312 314 316 317 319 321 323 324
321 323 325 324 324 324 324 324 324 323 323 322 321 321 321 321 319 320 317 317 313 308 310 315 315 319 319 318 318 317 316 309 306 305 306 308 310 312 313 314 315 317 318
319 319 322 323 323 323 323 323 322 323 322 322 321 321 321 320 319 320 318 317 316 311 308 313 315 318 320 321 317 319 319 312 307 304 304 305 307 309 310 310 311 312 313
317 317 318 319 321 322 322 322 322 322 321 321 321 320 320 319 317 316 316 317 314 312 309 312 313 316 316 317 317 318 319 319 319 305 304 304 304 305 306 304 305 306 307
317 317 317 318 319 321 321 321 320 321 319 319 320 319 319 318 316 316 315 315 315 314 312 309 312 312 312 316 317 315 318 319 318 312 306 305 301 301 299 298 299 300 300
317 317 317 315 315 317 320 320 321 320 320 320 320 319 319 317 315 315 314 315 315 315 314 311 310 314 314 314 314 314 316 317 319 308 296 296 296 296 296 296 296 297 297
316 316 316 315 315 314 315 318 318 318 318 318 317 317 317 316 315 315 315 314 314 314 313 312 309 309 311 312 313 310 310 314 313 304 297 295 295 295 294 294 294 295 295
316 317 316 314 314 313 310 314 315 315 314 313 314 315 315 311 306 309 315 314 314 313 312 311 309 308 308 309 310 311 310 310 297 300 297 295 293 291 292 292 293 293 292
316 316 315 315 303 298 291 295 307 312 312 312 311 313 315 306 305 296 293 292 301 312 310 309 307 306 308 301 299 301 302 302 300 291 296 290 290 287 289 290 291 291 290
298 297 296 296 293 293 291 293 296 312 311 310 309 311 310 299 300 295 289 289 288 288 289 303 308 297 296 290 291 294 297 297 293 286 290 286 287 285 287 289 289 289 288
290 290 290 290 290 290 291 292 292 294 290 289 290 292 294 293 293 294 289 286 286 286 286 287 286 284 285 286 288 291 291 286 285 284 285 284 285 283 285 286 287 287 286
286 286 286 287 287 288 289 290 290 288 286 286 286 288 288 290 290 291 287 284 283 284 286 287 286 286 286 286 288 290 286 286 284 282 283 284 284 283 283 282 285 287 286
284 284 284 285 286 286 288 288 288 286 284 284 285 285 287 288 288 287 286 284 282 282 283 284 283 284 284 284 284 284 285 285 284 281 281 283 284 284 283 284 284 282 276

GFSMA_sfc_thetae_102.txt.gz
Theta_e
333 332 331 331 331 331 328 326 327 327 328 331 331 330 330 330 329 329 331 331 333 336 335 334 333 330 329 328 328 327 326 326 326 325 325 326 326 325 324 323 323 323 322
333 331 330 330 331 330 327 327 327 326 325 328 328 330 329 329 329 329 330 330 329 331 333 332 330 331 330 329 328 327 326 326 326 326 325 325 325 325 324 323 323 322 322
333 331 330 329 330 330 327 326 325 328 327 328 328 329 329 328 329 329 329 328 327 327 329 331 331 331 330 329 328 327 326 326 325 324 325 325 325 324 324 323 322 321 322
334 331 329 328 329 330 328 328 327 326 326 326 326 327 328 328 328 328 327 327 326 326 326 327 330 330 330 328 327 326 326 325 325 325 325 325 324 324 323 323 322 321 320
334 332 330 329 330 330 329 328 327 325 323 324 325 326 326 326 327 328 326 325 323 322 322 326 326 326 327 329 328 327 327 325 325 325 324 324 324 324 323 323 322 321 320
332 331 329 329 330 328 328 328 326 326 324 324 325 325 325 324 325 325 325 325 323 321 320 322 324 322 323 327 328 327 328 327 326 325 325 324 323 323 323 323 322 322 321
331 330 329 329 330 329 328 328 326 325 324 325 323 321 322 321 323 323 324 323 321 321 320 320 321 321 322 325 328 328 328 328 327 325 324 324 324 324 324 323 322 322 322
333 331 330 330 330 328 327 326 325 324 324 325 320 318 313 315 317 321 321 321 320 320 320 321 321 320 320 322 322 327 329 328 327 326 327 325 325 325 324 323 322 321 321
333 332 331 330 329 329 326 326 325 324 321 323 322 317 311 309 313 317 318 319 318 318 319 320 321 321 321 320 321 322 321 322 327 329 328 327 327 326 325 324 323 322 322
332 331 330 329 329 329 327 326 326 325 323 319 320 321 319 315 311 309 316 317 317 317 317 319 319 320 320 319 319 317 316 315 319 327 328 328 328 327 327 326 326 325 324
330 329 330 328 328 328 327 327 326 324 324 321 320 319 318 314 315 313 309 311 315 317 318 318 319 319 319 319 318 317 313 313 314 320 325 328 329 328 328 328 327 327 327
329 329 328 328 328 328 327 326 326 324 323 321 322 320 317 313 312 312 310 312 312 314 317 317 318 319 319 318 318 315 312 310 311 315 320 323 326 328 328 328 328 328 328
326 327 327 326 327 327 326 326 325 324 323 322 321 321 320 317 316 314 312 311 310 310 311 316 317 319 319 318 318 314 312 308 309 312 315 318 320 323 324 327 329 329 329
323 325 326 326 326 326 326 326 325 324 324 323 321 322 320 318 317 316 314 312 307 308 308 310 315 317 318 317 317 311 316 307 307 308 310 312 314 316 318 320 322 323 325
322 324 324 324 325 326 325 325 324 323 323 323 322 322 321 318 318 317 317 315 311 306 308 310 311 315 318 318 316 315 318 309 306 305 306 308 311 312 313 314 316 317 319
321 321 322 323 324 324 324 324 323 324 323 322 322 321 320 320 319 318 317 316 314 311 307 312 313 317 318 318 316 316 316 310 305 303 304 305 306 309 309 310 311 312 314
316 318 320 321 322 322 323 323 323 323 322 321 322 321 320 321 318 318 318 316 315 313 309 310 314 316 316 317 317 318 317 316 316 304 303 303 303 303 304 304 305 306 307
316 317 315 317 318 319 322 321 321 321 321 320 320 320 319 320 318 316 316 316 314 313 311 309 311 313 314 317 318 316 319 321 320 308 303 304 302 301 299 298 299 300 300
317 316 317 316 316 317 319 320 321 320 320 320 320 320 319 319 317 316 315 314 315 314 312 311 311 313 314 315 314 315 315 316 311 299 296 296 296 296 296 296 297 297 297
317 316 316 316 315 314 315 319 320 320 320 320 320 320 320 319 318 316 315 315 314 313 312 310 310 310 312 313 312 310 311 314 306 300 296 295 295 295 295 295 295 295 295
317 316 315 315 314 309 303 306 319 319 318 318 319 319 319 315 307 311 316 314 314 313 311 310 309 309 309 308 309 309 309 306 297 299 296 294 292 292 292 293 293 293 293
312 312 311 309 303 299 291 293 306 315 316 316 315 316 313 306 303 300 297 293 304 313 312 311 309 309 307 306 303 305 306 304 298 291 295 288 289 288 289 290 291 291 290
296 294 295 295 293 293 291 293 296 308 302 304 308 311 306 302 300 294 289 289 288 288 290 309 309 303 300 295 296 297 298 297 290 286 290 285 286 285 287 289 289 289 288
289 289 289 289 290 290 290 291 291 293 291 290 291 295 299 297 296 294 290 287 286 286 286 287 287 285 285 287 291 293 292 285 285 285 285 283 285 283 285 286 288 288 287
285 285 286 286 287 287 288 289 290 289 287 286 288 289 291 291 290 291 288 284 283 284 286 287 286 286 287 288 289 290 286 286 283 281 283 285 284 282 283 283 285 287 287
283 284 284 285 286 285 287 288 288 286 285 285 285 286 287 287 288 288 287 285 283 282 283 283 283 283 283 284 285 285 286 285 283 280 282 283 284 283 282 282 282 277 277

GFSMA_sfc_thetae_105.txt.gz
Theta_e
338 335 332 332 331 329 328 326 326 325 326 327 328 330 329 329 330 330 329 329 333 337 339 336 334 332 331 329 329 327 327 327 325 325 324 324 324 325 325 325 324 323 322
337 334 332 332 332 329 327 327 325 325 325 326 326 328 329 329 330 330 330 329 329 333 336 336 334 331 330 329 330 328 327 327 327 325 324 324 324 324 324 323 323 322 322
333 332 332 331 332 329 326 325 323 324 326 325 325 327 328 329 329 329 330 329 329 328 330 333 333 331 330 329 329 328 326 327 327 324 324 324 324 324 323 323 322 322 321
333 330 330 331 332 329 326 325 324 324 326 326 325 326 327 328 328 329 329 329 327 327 326 328 330 331 331 329 330 328 327 327 327 326 325 324 323 323 323 323 322 322 321
333 331 329 330 330 329 327 325 325 325 324 325 325 325 326 327 327 329 327 327 326 325 324 326 326 327 328 329 329 328 328 327 327 326 325 325 324 324 324 323 322 321 321
332 331 329 329 329 328 328 327 325 325 324 324 325 324 325 326 327 327 326 327 325 323 322 323 324 324 324 327 329 328 329 328 327 326 326 325 325 324 324 323 322 322 321
332 331 330 329 329 327 327 328 326 324 323 324 322 322 323 325 325 326 326 325 324 322 321 322 321 321 322 325 327 329 329 329 327 326 326 325 324 322 324 323 323 322 322
332 332 331 329 329 328 327 327 326 324 324 324 320 318 313 315 320 324 325 324 323 322 320 321 320 318 319 319 322 327 328 329 328 326 327 325 325 323 324 324 323 323 323
332 331 331 330 330 329 327 327 326 324 321 324 324 318 312 309 314 319 320 322 321 319 320 320 320 320 319 318 320 322 321 322 327 328 327 327 323 324 325 324 324 323 322
333 332 330 330 330 329 328 327 327 325 324 320 323 323 318 316 311 309 317 318 319 318 318 319 320 320 319 319 319 318 316 315 319 326 328 328 327 326 326 326 325 324 323
331 332 330 329 329 329 328 327 326 325 325 323 321 320 319 317 316 312 310 312 315 317 318 318 319 319 319 319 318 318 314 313 314 320 326 327 328 328 327 327 327 326 326
330 330 330 330 329 328 327 327 327 325 324 324 323 321 319 315 313 313 311 313 313 314 317 317 318 318 319 318 319 315 312 310 312 315 320 324 327 327 327 328 328 328 328
327 328 329 328 328 328 328 327 326 325 324 323 323 321 321 318 318 317 315 313 312 311 313 316 318 318 318 318 318 314 312 308 309 312 315 318 321 323 325 327 328 328 329
328 328 328 328 328 327 327 327 326 326 325 324 322 322 321 320 318 317 315 313 307 308 309 311 317 317 318 318 317 311 316 307 307 308 310 313 315 317 318 320 323 325 327
323 324 327 326 326 326 326 325 325 323 324 324 323 322 321 320 318 318 316 316 312 306 307 310 310 316 317 318 316 316 316 310 306 305 306 308 311 313 313 314 316 317 319
322 322 322 323 323 324 325 325 324 323 323 323 323 322 321 321 318 317 316 316 314 311 307 313 312 312 317 317 315 316 316 311 305 304 303 304 306 308 309 310 311 312 313
321 321 321 321 321 323 323 323 323 323 322 322 322 321 321 321 318 317 317 316 314 312 308 310 313 313 314 315 316 315 316 315 314 303 303 302 302 302 303 304 305 306 307
318 319 318 318 319 319 321 321 321 322 321 321 321 321 320 321 318 318 317 315 315 313 311 308 310 311 313 315 315 315 317 317 317 303 303 301 301 300 299 299 300 300 301
316 315 316 316 316 316 316 317 318 320 321 320 321 320 320 320 318 317 317 316 315 314 312 310 310 313 313 315 314 315 316 310 303 299 296 296 296 297 297 297 297 296 296
314 315 316 316 315 314 314 314 316 318 319 320 321 321 321 320 319 317 316 316 315 314 312 311 310 310 311 313 313 312 311 312 301 298 296 295 295 295 295 295 295 295 295
317 316 316 315 313 309 301 298 304 316 319 318 319 320 320 317 310 314 317 315 315 314 312 310 308 309 309 308 309 310 311 304 297 297 295 293 292 292 293 294 294 294 293
306 305 303 304 300 299 290 291 296 311 316 318 317 318 320 308 305 300 302 302 310 313 311 310 309 308 308 309 307 308 307 301 297 292 292 288 290 288 290 291 292 291 291
294 293 293 294 292 291 290 292 294 302 300 297 302 311 308 302 298 295 290 290 288 289 296 312 310 308 306 305 303 300 301 300 293 287 290 284 287 285 288 290 290 290 289
288 288 288 289 289 289 289 290 290 293 291 290 291 294 300 298 297 295 291 288 286 286 287 289 294 289 287 291 297 297 294 285 285 284 287 283 285 283 285 287 288 288 288
285 285 286 286 286 286 288 288 289 289 287 286 287 289 291 291 290 293 290 286 285 284 286 287 287 287 288 289 290 292 287 288 283 282 283 285 283 282 283 284 285 287 287
283 284 284 285 286 285 287 288 287 286 285 285 285 285 287 287 288 288 287 286 284 283 284 284 283 282 283 284 285 286 287 286 283 281 282 284 284 283 281 283 284 283 282

GFSMA_sfc_thetae_108.txt.gz
Theta_e
339 338 335 334 332 330 329 328 327 328 326 328 329 329 328 329 329 330 330 330 331 337 340 338 336 334 332 330 330 329 327 329 327 325 325 325 326 326 324 324 323 324 324
339 337 334 334 331 330 328 328 327 327 326 326 326 327 327 329 330 330 330 330 328 332 337 338 336 335 332 329 330 329 327 327 326 325 324 325 325 325 323 323 324 322 323
338 336 334 334 333 328 325 324 323 323 323 325 325 326 327 329 329 329 329 329 329 327 331 334 335 335 332 329 330 329 328 328 326 326 324 325 324 324 323 324 323 322 322
337 335 333 333 333 329 326 325 323 323 323 324 325 324 325 327 328 328 330 329 329 330 328 330 332 332 332 330 330 329 328 327 327 326 325 325 324 324 324 323 323 322 322
336 334 333 332 332 329 327 326 323 323 323 324 326 326 327 327 328 329 328 328 328 327 328 327 328 327 329 330 330 330 328 328 327 326 326 323 324 323 324 323 322 322 322
335 334 332 331 330 328 327 326 324 326 325 325 325 324 326 326 327 327 327 328 327 326 324 325 326 325 325 328 330 331 329 327 328 327 327 325 324 325 324 324 323 322 322
334 333 331 330 329 328 327 326 326 324 322 324 322 321 323 325 326 326 328 327 326 325 324 324 324 324 325 326 328 330 329 329 328 327 326 326 325 326 325 324 323 322 322
334 333 331 330 328 328 327 327 326 323 323 323 318 319 314 317 322 325 326 326 325 324 322 322 323 322 323 323 323 328 329 329 329 328 327 327 326 325 322 324 323 323 323
333 333 332 330 329 328 327 327 327 325 322 323 324 318 312 311 314 319 323 325 324 322 322 321 322 320 318 320 322 323 321 323 328 329 328 328 326 325 322 323 324 323 323
333 333 332 331 329 329 328 327 328 326 324 321 322 323 318 317 312 309 317 320 323 321 321 321 320 321 319 318 319 317 315 315 320 327 327 328 325 323 324 324 325 324 324
333 332 332 331 330 330 329 328 327 326 325 323 322 321 321 317 317 313 309 313 317 320 320 320 320 320 320 319 319 318 313 313 314 320 325 326 327 326 326 326 326 325 325
331 332 331 330 330 330 329 328 327 326 325 324 324 322 321 318 314 314 312 313 314 316 318 319 319 319 320 320 319 315 312 310 312 315 320 324 326 327 327 327 327 327 327
329 330 330 329 329 330 329 328 326 326 325 324 323 323 322 321 320 317 316 314 312 313 315 317 318 319 320 320 320 314 313 309 309 312 315 318 321 323 325 326 326 327 328
329 329 329 329 329 329 328 328 327 326 326 325 324 323 323 322 322 319 317 314 310 310 311 312 318 319 319 319 318 311 317 307 308 309 311 313 315 317 319 321 323 324 326
325 325 327 328 328 328 327 326 326 325 325 325 324 323 323 323 322 320 319 318 314 308 309 311 312 318 319 319 317 318 318 309 306 306 306 309 311 313 314 315 316 318 321
324 325 325 326 325 326 326 325 325 325 324 324 324 323 322 323 321 319 318 318 317 314 309 314 314 315 318 318 316 317 317 311 305 304 304 305 307 309 310 311 311 312 314
321 322 323 323 322 323 323 323 324 323 322 322 322 322 321 322 321 319 318 316 315 313 310 311 314 314 316 316 317 317 317 316 315 303 303 303 302 303 303 304 305 307 308
320 319 320 320 320 320 321 321 321 322 322 321 321 321 321 321 321 319 317 316 315 315 311 308 311 312 313 316 316 315 316 317 313 302 301 301 301 300 300 300 300 301 302
319 318 318 318 318 317 317 317 317 317 319 321 321 321 321 321 319 318 316 316 316 315 314 310 310 312 313 315 314 315 315 305 302 298 297 297 297 298 298 298 297 297 297
316 316 316 315 315 314 314 312 310 312 315 317 318 320 321 321 320 319 317 316 315 314 313 312 310 310 312 314 315 313 309 305 299 298 296 296 296 296 296 296 296 296 295
316 316 316 315 311 306 298 297 303 305 310 313 317 319 320 318 311 315 318 317 316 314 313 312 311 310 310 311 312 313 310 303 298 296 294 293 293 293 294 295 295 294 294
297 300 300 301 297 297 290 291 293 308 307 303 309 317 319 309 307 302 303 305 313 314 313 312 311 310 311 312 309 311 305 301 299 296 292 288 291 289 291 292 292 292 291
289 289 290 292 291 290 289 291 291 299 297 296 296 299 306 306 307 304 293 292 291 292 303 314 312 312 309 309 309 306 305 303 299 290 290 285 287 286 290 291 291 290 289
285 286 286 287 288 288 288 290 290 292 291 289 290 293 295 294 292 297 293 288 287 287 288 291 299 291 290 298 308 306 303 286 286 285 288 283 285 284 286 288 290 289 288
284 284 284 285 285 286 288 288 289 289 287 286 287 288 289 289 290 292 289 286 285 285 286 287 287 287 287 288 291 295 290 291 284 283 284 284 283 283 284 284 286 288 287
283 283 283 283 284 283 286 287 287 286 284 285 285 285 287 287 288 289 288 288 286 285 285 284 284 283 284 284 285 286 289 292 284 282 282 284 283 283 280 283 284 284 283

GFSMA_sfc_thetae_111.txt.gz
Theta_e
340 342 344 345 346 346 344 343 342 342 342 341 341 341 340 341 340 340 341 330 331 337 341 340 338 336 334 332 332 331 329 328 327 327 327 327 327 327 326 326 325 323 324
341 341 340 342 343 343 343 342 341 340 340 340 339 340 339 340 340 340 340 338 328 330 336 339 339 336 335 331 332 331 329 330 328 326 326 327 327 326 325 325 324 324 324
343 341 339 339 341 341 341 340 340 340 339 339 338 338 338 339 338 337 336 333 334 327 328 335 337 337 334 331 330 330 330 330 328 327 325 326 326 325 325 325 324 323 324
344 341 337 337 340 338 338 337 337 337 337 336 336 336 337 337 337 335 333 332 333 331 328 328 333 334 334 332 330 329 328 329 328 327 326 325 325 324 324 324 324 323 323
340 339 338 336 337 335 334 335 335 336 334 333 333 334 335 333 333 334 331 331 331 330 330 330 328 329 331 332 331 330 328 329 328 328 326 325 325 325 325 324 324 324 323
337 338 338 335 335 333 331 331 332 333 334 334 331 332 333 331 334 332 330 330 331 329 331 329 330 331 326 329 330 331 329 329 329 329 327 326 325 326 325 324 323 323 323
336 337 338 333 334 332 330 329 330 329 328 330 327 326 327 331 329 330 331 330 329 329 329 327 330 332 329 326 329 331 331 330 329 329 328 327 326 325 323 325 324 323 323
336 335 335 333 332 332 330 329 328 326 327 328 324 323 319 323 328 330 331 329 329 328 327 326 327 329 330 328 328 329 331 330 329 329 328 328 327 326 323 326 324 323 323
335 334 334 333 332 332 329 329 329 327 324 325 328 324 317 315 320 326 326 326 327 327 327 326 325 326 329 329 327 325 322 323 329 330 329 328 327 326 324 325 325 324 324
335 334 333 333 331 331 331 330 330 329 328 323 325 326 330 326 319 315 321 324 326 325 324 324 324 324 325 328 325 321 316 315 321 328 329 329 327 326 323 324 324 325 324
334 333 333 332 331 332 332 330 330 329 330 327 324 324 326 324 322 318 315 317 321 324 325 324 323 323 322 324 326 321 314 313 315 323 327 327 327 326 325 325 324 325 326
332 333 332 332 332 331 331 330 330 330 328 327 327 327 323 321 317 317 316 316 319 319 322 322 322 323 324 325 322 316 312 311 312 316 322 324 326 326 325 325 326 326 326
330 330 332 331 331 331 331 331 330 329 328 327 327 326 326 325 323 320 319 318 315 318 317 320 321 322 323 326 325 315 312 309 309 312 316 319 321 323 324 325 325 326 327
331 332 331 331 331 331 331 331 330 329 329 327 327 327 326 325 324 322 321 319 312 313 316 315 321 321 323 323 323 311 321 308 307 308 311 314 316 317 319 320 322 323 325
332 332 332 330 330 330 329 330 330 327 327 327 327 327 326 326 325 326 324 323 319 310 309 315 315 320 322 324 322 325 325 312 307 306 307 309 312 314 314 315 317 319 321
331 330 330 329 329 328 329 328 328 328 326 326 327 326 325 326 326 325 325 322 323 316 311 319 315 318 320 320 318 325 325 314 306 304 304 305 307 310 311 311 312 313 315
328 328 329 331 329 326 327 327 327 326 325 325 325 326 325 325 324 324 324 325 319 318 314 320 317 317 318 318 319 322 324 324 322 304 304 304 304 304 306 307 307 308 310
327 328 327 325 324 325 325 324 323 323 324 324 325 325 323 323 323 324 322 320 320 319 318 313 314 314 315 318 320 322 322 323 324 306 303 302 302 301 301 302 302 303 303
322 322 324 323 322 321 321 321 321 320 321 321 322 322 324 324 321 321 321 319 318 317 317 315 311 314 315 316 316 318 321 321 315 300 298 298 300 300 300 299 299 299 299
319 319 319 318 317 315 311 311 313 314 315 317 319 321 320 320 320 321 321 320 318 316 315 314 312 312 313 314 317 314 309 309 305 302 298 298 297 297 297 296 296 296 296
300 301 307 304 302 297 293 295 303 308 312 313 315 316 319 318 310 314 320 319 318 315 314 313 312 312 311 311 311 314 311 304 301 300 297 298 298 298 297 296 296 295 294
292 292 292 292 291 291 289 290 293 303 309 308 306 308 311 307 307 301 301 303 314 316 314 313 312 310 311 312 314 313 306 301 299 298 296 291 295 293 293 294 293 293 292
287 286 287 288 287 287 288 289 290 299 297 295 295 297 300 303 297 302 294 293 294 297 306 315 313 312 312 313 314 311 306 306 303 296 294 287 290 288 291 291 291 290 289
284 284 284 285 285 285 287 288 289 291 289 288 289 290 292 294 294 296 291 288 287 287 288 293 307 297 296 313 314 313 310 291 288 287 291 284 286 285 288 290 290 289 288
283 283 284 283 283 283 286 287 288 287 286 285 286 287 288 289 289 291 289 286 285 285 287 288 288 288 287 288 293 302 296 296 285 285 286 285 284 284 285 285 287 288 287
283 283 282 282 283 282 284 285 284 284 283 283 284 284 285 286 287 287 290 288 285 285 286 285 285 285 285 285 286 286 295 299 286 285 285 284 284 284 280 284 285 285 286

GFSMA_sfc_thetae_117.txt.gz
Theta_e
351 350 347 348 347 347 347 347 344 344 342 342 343 342 341 342 341 339 343 335 338 340 343 342 341 340 339 337 336 336 335 334 332 330 329 328 328 329 325 325 326 324 324
350 348 348 344 347 346 345 347 345 342 342 342 342 342 342 340 340 341 341 340 333 335 339 342 342 341 339 337 336 334 334 333 333 331 329 328 328 327 324 324 323 323 326
353 350 347 346 343 346 348 348 347 345 342 343 341 341 341 341 341 341 340 339 337 329 331 337 338 338 338 336 334 334 333 332 332 331 329 328 327 327 326 323 323 323 323
351 350 345 347 347 347 347 345 344 343 340 338 339 341 340 340 341 341 339 340 338 337 330 330 333 334 331 335 334 332 331 332 331 330 330 328 327 327 326 325 323 323 325
350 349 345 345 350 347 347 344 342 342 341 340 339 339 340 339 339 337 338 340 339 337 336 329 328 327 330 334 335 333 331 329 330 330 330 328 328 327 325 325 322 324 326
350 348 345 346 346 346 345 345 343 342 340 339 336 336 340 338 339 338 337 337 336 339 336 336 333 328 325 329 332 333 332 331 331 329 329 329 328 327 326 325 323 325 324
351 349 347 347 346 342 342 344 343 341 338 341 337 336 336 338 338 337 337 335 334 335 337 336 334 332 327 326 328 334 333 332 331 330 330 329 328 326 326 325 325 325 325
349 349 348 347 347 342 338 339 339 339 341 342 334 331 324 329 334 336 335 334 336 335 335 336 335 332 333 331 328 330 333 333 333 332 331 329 328 326 326 324 325 326 326
349 349 349 348 346 344 340 337 337 335 332 339 340 330 323 320 327 333 335 334 335 335 335 334 333 333 332 331 328 327 324 324 330 332 331 329 328 327 326 325 325 325 325
347 349 349 348 347 344 340 336 336 335 333 329 334 336 335 330 323 321 330 333 335 334 335 334 332 331 331 330 327 323 318 317 322 329 330 330 329 328 326 325 325 326 325
344 347 348 347 345 343 341 339 335 334 334 331 330 333 336 335 334 326 322 324 330 331 333 334 334 331 330 329 329 325 317 314 316 323 328 329 329 328 327 326 325 325 326
341 345 344 344 342 340 340 340 337 334 334 332 331 332 331 330 329 326 324 325 324 328 330 333 332 331 330 328 328 321 315 312 314 318 323 326 328 328 327 326 326 326 326
337 340 341 338 340 340 338 339 334 333 333 331 331 330 335 333 334 330 327 326 324 326 329 332 333 332 329 331 329 318 315 309 311 315 319 321 324 325 325 325 326 326 326
338 341 340 337 336 340 337 336 334 333 333 332 331 332 334 336 336 331 327 326 323 324 327 327 330 331 328 328 326 314 324 307 308 310 313 316 318 319 320 321 322 323 323
339 340 339 334 334 334 336 334 332 331 333 333 332 332 335 335 337 335 333 328 326 320 321 325 325 331 329 326 323 325 324 311 307 306 308 311 314 316 316 317 318 319 320
339 337 337 333 332 333 333 333 332 331 330 331 332 331 331 335 335 335 333 333 331 326 321 327 324 327 330 327 323 325 325 314 306 305 305 307 309 312 313 313 314 315 316
335 335 336 332 331 331 331 331 330 329 329 330 330 330 331 334 332 329 328 331 330 327 320 324 327 328 330 328 326 324 325 323 320 305 304 304 305 306 308 308 309 311 312
334 335 335 334 333 330 329 329 328 328 328 326 328 328 327 329 330 329 327 325 325 326 324 320 325 325 325 329 328 324 322 324 323 311 304 304 304 304 304 304 305 306 307
325 319 323 317 320 323 326 326 327 327 328 327 327 325 327 327 324 325 327 327 327 325 327 323 320 323 323 327 324 322 322 321 323 316 303 303 303 303 303 303 303 304 304
299 299 297 297 296 296 300 307 321 322 322 322 323 323 324 323 320 316 320 321 324 324 321 320 320 319 320 321 323 318 316 319 318 315 305 307 305 303 303 302 302 303 303
292 295 297 295 294 294 294 296 310 314 315 315 310 309 307 302 297 298 305 309 308 311 315 318 316 317 316 315 315 318 316 316 308 305 302 302 305 306 306 300 305 301 300
287 288 289 290 292 292 292 293 300 302 300 298 297 298 301 300 298 295 295 294 294 300 304 309 314 314 315 316 316 315 314 303 299 301 300 295 299 298 299 303 300 298 297
285 285 285 286 285 286 289 290 290 291 290 288 288 291 293 293 292 295 296 294 292 289 289 292 297 304 307 313 316 314 313 309 309 300 296 288 292 290 293 294 294 295 295
283 283 283 283 283 284 286 286 287 286 285 285 285 285 287 287 287 289 295 296 291 290 289 289 288 286 286 288 291 310 315 311 294 295 293 286 287 286 289 291 293 293 293
284 283 283 283 282 283 285 284 285 284 283 282 283 284 284 284 285 287 292 291 287 285 287 287 287 286 286 286 287 296 306 297 286 287 287 286 285 284 285 285 287 289 289
284 284 283 284 284 283 285 284 282 282 280 281 282 282 283 284 284 284 284 285 284 284 284 284 283 284 284 283 284 285 288 299 288 285 286 286 285 284 280 284 284 285 285

GFSMA_sfc_thetae_120.txt.gz
Theta_e
345 346 344 345 344 345 343 342 341 339 338 339 340 339 338 337 338 336 337 335 337 342 345 344 342 340 339 338 338 337 336 334 333 331 331 329 329 328 325 324 324 327 327
345 344 344 344 343 343 344 342 341 339 338 339 338 338 336 336 337 336 338 334 334 337 340 344 343 341 340 338 337 336 336 335 334 332 330 329 327 326 326 323 325 324 326
346 345 344 342 343 343 343 341 342 340 339 339 338 337 338 338 337 336 338 336 332 331 334 339 341 341 339 338 335 334 334 334 333 333 330 329 327 327 326 323 323 323 325
348 344 342 343 344 342 342 341 340 339 337 337 336 336 336 338 336 336 335 337 335 334 329 332 335 337 336 338 335 333 332 332 333 332 330 329 327 327 325 324 322 323 323
345 346 343 342 343 343 341 341 340 339 337 336 336 337 337 335 334 336 335 335 334 334 332 329 330 331 330 334 335 335 334 332 332 333 330 329 328 327 324 324 323 323 323
343 342 344 341 341 341 340 340 339 338 338 336 335 335 334 334 335 333 334 335 335 333 331 330 327 326 326 331 335 335 336 334 332 331 331 329 328 327 326 324 323 322 323
343 342 342 342 340 338 339 340 338 336 336 336 333 331 333 333 333 333 334 332 333 333 333 329 327 328 324 328 332 335 336 336 333 331 331 329 328 326 326 322 323 322 325
343 343 342 340 340 337 337 340 339 335 335 336 330 328 324 327 331 332 333 332 332 333 332 332 330 328 327 326 326 331 333 335 334 333 332 329 327 326 326 324 323 324 325
341 344 342 340 340 339 337 338 337 336 332 334 333 326 320 317 322 329 330 331 329 329 329 330 330 330 329 329 327 325 323 325 331 333 331 330 328 327 326 325 324 325 325
341 342 343 342 341 341 338 337 337 335 334 331 333 333 329 325 316 317 326 329 328 328 328 329 329 329 330 329 327 323 318 317 322 329 331 331 329 328 327 326 325 325 326
337 340 339 341 341 340 340 337 335 334 335 332 332 330 330 329 327 321 316 321 327 328 330 330 330 329 330 330 329 325 316 314 317 323 328 330 330 329 327 327 326 325 325
331 336 337 338 340 339 336 337 334 334 333 332 332 331 329 327 325 323 319 318 320 323 326 329 330 329 328 329 327 321 314 313 314 317 323 326 328 328 327 327 326 326 325
323 330 334 336 339 339 337 337 334 333 333 331 331 330 330 329 330 327 322 319 319 322 323 328 329 330 328 327 327 319 315 310 311 315 317 321 324 326 325 326 326 326 326
320 327 331 333 337 337 338 337 336 334 333 331 330 330 330 330 330 328 325 322 316 318 319 320 327 329 328 328 325 315 324 309 309 311 313 316 319 320 321 322 323 323 324
319 323 330 331 334 336 337 336 334 333 332 331 330 330 329 330 330 330 327 325 319 313 315 319 320 327 327 326 323 324 325 315 308 307 308 311 315 317 317 318 319 320 321
317 324 327 329 329 332 333 332 332 331 330 329 330 330 329 330 330 330 328 327 325 320 316 321 320 325 327 327 322 323 324 316 307 305 305 307 310 314 314 314 315 315 317
315 323 323 323 319 328 329 330 331 330 329 329 329 329 328 330 330 328 327 326 325 322 318 320 321 322 321 323 322 321 323 323 321 304 304 304 305 307 308 309 310 311 313
318 324 326 326 322 328 329 330 329 328 328 327 327 327 327 328 328 329 325 323 321 321 320 318 321 321 321 321 323 321 322 324 323 311 304 304 304 304 305 305 306 306 307
300 301 301 304 306 309 325 329 329 327 327 327 327 326 327 328 327 325 324 323 321 323 323 319 318 322 320 321 321 323 322 321 323 315 303 303 303 304 303 304 305 305 305
291 295 298 297 298 299 301 305 326 326 326 325 325 320 315 315 315 315 316 315 316 314 316 318 316 315 319 320 321 317 318 320 319 321 314 308 306 304 303 303 303 304 304
287 289 289 292 293 295 297 301 303 302 305 304 305 304 298 299 296 297 306 304 305 307 307 309 311 313 315 316 316 318 317 317 317 318 314 311 312 309 308 302 305 304 303
286 287 287 287 287 290 291 293 292 291 291 291 291 295 297 292 294 294 295 290 293 297 299 302 304 306 309 314 316 315 316 314 304 302 309 309 301 310 310 308 304 302 300
285 284 285 285 286 286 287 288 290 289 289 287 286 287 288 289 288 293 294 290 289 289 288 290 293 293 290 290 289 294 304 313 310 304 305 300 292 290 292 295 297 299 298
283 282 282 283 283 284 285 285 285 284 283 283 284 284 285 285 285 289 294 290 287 287 287 288 287 285 285 286 286 288 291 295 296 292 295 290 286 285 288 291 294 295 296
283 282 282 281 282 283 285 285 283 282 281 280 282 283 283 283 285 286 287 287 285 283 287 286 286 285 284 285 285 286 288 290 289 288 286 286 285 284 285 284 286 291 292
283 283 281 281 282 281 285 285 284 283 281 281 281 281 283 283 284 284 282 282 281 281 281 282 282 282 283 283 283 282 281 283 286 286 287 286 285 284 281 284 284 285 285

GFSMA_sfc_thetae_123.txt.gz
Theta_e
340 340 340 341 342 341 341 339 338 337 337 336 336 335 335 333 335 336 335 335 337 341 346 344 343 342 341 339 338 337 337 335 334 333 332 331 330 329 328 328 326 326 327
340 341 337 341 341 341 341 340 338 336 335 335 335 335 332 333 334 334 333 334 334 337 341 344 344 342 341 338 338 338 337 336 335 334 332 330 329 328 324 325 325 327 327
341 341 340 339 341 341 341 340 339 337 335 335 334 334 334 333 333 335 334 333 332 332 334 339 341 342 341 340 338 338 336 335 334 334 332 330 329 327 325 323 323 323 326
343 340 341 338 341 340 340 338 338 336 335 334 332 335 333 334 334 333 335 334 333 334 330 332 336 338 339 340 338 337 336 335 334 334 331 329 328 328 326 324 323 322 322
343 340 341 340 338 339 338 338 337 337 334 333 333 334 332 332 332 333 332 333 332 332 331 329 331 332 335 337 338 337 336 334 333 334 332 329 328 327 325 325 323 322 322
342 341 339 336 338 336 336 337 335 336 335 333 334 333 332 332 332 331 331 332 334 333 331 329 329 329 328 333 336 337 336 335 334 333 333 331 329 327 325 325 325 324 323
340 339 340 336 336 336 336 335 335 334 333 334 329 325 327 331 331 331 330 330 332 332 331 330 328 329 327 328 332 336 336 337 335 333 332 331 329 327 326 325 324 324 324
338 339 337 337 339 336 334 335 335 333 333 334 327 325 321 324 329 331 329 330 331 330 329 329 327 327 325 326 326 333 335 336 336 334 333 331 328 327 326 325 324 325 324
332 337 337 337 337 337 333 335 336 334 330 332 330 323 316 315 320 325 329 329 329 329 330 328 326 326 325 324 324 325 324 325 332 334 333 331 329 328 327 326 325 325 324
320 329 337 337 336 337 336 332 337 336 332 329 330 330 323 321 316 314 323 329 327 326 327 328 327 327 326 326 325 321 317 317 321 330 332 331 331 329 327 326 325 325 325
315 321 328 335 337 336 337 335 333 335 333 331 330 329 326 321 322 317 314 319 323 326 327 327 329 328 328 327 327 324 316 314 315 322 328 330 331 329 328 327 326 325 325
308 315 321 328 334 336 335 336 336 335 334 331 332 331 329 325 322 318 315 317 321 322 327 327 327 328 328 328 327 321 314 312 313 318 323 327 329 329 328 327 327 326 326
303 309 317 321 329 332 335 336 334 333 331 329 330 331 331 329 328 325 320 317 316 320 321 326 328 329 328 328 327 319 316 310 310 313 317 321 324 326 327 326 327 327 326
301 305 309 315 324 329 331 333 333 330 325 326 329 331 330 330 329 328 325 319 312 316 318 320 324 328 328 327 325 315 323 309 308 309 312 315 318 320 322 323 323 324 324
301 303 307 312 318 325 328 329 331 330 329 327 328 330 329 329 329 329 325 322 319 311 315 318 319 327 328 327 323 323 323 314 308 307 307 310 313 315 317 319 319 320 321
301 302 304 307 314 321 326 326 327 329 329 329 329 328 328 329 328 329 326 324 320 317 312 320 319 323 327 327 323 324 323 315 307 305 305 306 309 312 313 315 315 316 317
302 305 305 308 313 320 323 321 324 326 327 329 329 328 327 328 327 328 327 325 321 320 317 318 320 321 322 324 322 321 322 322 321 305 304 304 304 306 308 310 311 313 314
303 307 309 310 315 313 315 315 316 319 313 326 326 327 326 327 327 328 325 324 324 321 317 316 319 318 318 320 322 320 321 323 323 312 304 303 303 303 304 305 307 307 309
293 295 296 296 297 299 301 306 312 316 324 327 327 326 326 327 326 326 321 321 320 320 318 317 318 319 319 319 318 319 319 320 322 314 305 303 302 302 302 304 305 306 306
289 288 290 290 290 291 294 299 310 322 323 323 317 315 309 311 318 322 323 320 317 317 317 317 316 316 317 318 319 318 317 321 319 320 314 308 305 303 302 302 303 304 305
287 287 286 287 288 288 289 291 295 297 298 299 298 294 294 295 295 297 307 307 309 309 308 310 309 311 312 313 312 315 315 314 318 320 318 318 313 309 308 302 305 303 303
284 284 285 285 284 285 287 287 287 287 289 290 290 289 290 291 295 292 291 291 290 300 302 303 304 305 306 301 296 298 303 310 310 309 316 315 308 314 313 312 304 302 300
282 281 283 283 283 284 286 286 286 284 284 285 285 286 287 289 292 295 291 289 288 288 287 292 295 290 290 288 288 290 295 296 300 302 303 309 294 296 292 294 294 295 297
280 280 280 281 282 284 286 285 285 284 283 283 283 283 284 284 286 290 288 286 284 285 285 285 284 284 284 285 285 287 287 288 290 293 297 296 287 285 287 288 291 293 295
279 278 278 279 279 282 285 285 284 283 282 282 283 284 283 283 285 285 284 283 282 281 284 285 285 285 284 285 284 284 283 283 287 287 287 288 285 284 284 284 285 289 291
277 277 276 277 280 278 284 285 284 283 281 282 283 283 285 284 285 284 281 280 279 279 280 280 280 281 282 282 283 281 280 281 283 286 286 286 285 285 283 283 284 285 285

GFSMA_sfc_thetae_126.txt.gz
Theta_e
342 342 341 340 341 341 339 338 337 336 335 335 335 335 334 332 332 333 332 333 335 340 345 344 344 343 342 341 340 339 338 337 335 333 333 332 330 330 328 328 329 329 328
342 342 341 340 340 340 340 339 337 336 335 334 334 334 334 332 333 333 333 334 332 335 340 344 345 343 342 340 339 338 338 337 336 335 333 331 330 328 327 326 326 324 325
341 340 339 339 340 340 339 338 337 335 333 333 333 333 333 332 333 333 333 333 333 330 333 339 341 343 342 342 338 338 337 336 336 335 333 331 330 329 327 326 325 326 326
340 337 339 338 340 340 339 338 337 335 333 331 331 332 332 332 332 333 333 332 332 334 331 333 337 339 339 341 339 338 337 337 335 334 333 331 329 329 327 325 325 325 325
339 337 339 339 337 338 339 337 336 335 333 331 331 331 331 331 331 332 332 331 331 332 332 330 331 332 335 338 341 340 338 337 336 335 334 331 330 328 327 326 325 325 324
325 335 338 336 335 336 335 337 335 336 334 333 332 331 329 330 331 330 330 333 331 331 331 331 332 332 329 335 338 340 339 338 336 335 335 332 330 328 327 326 325 325 324
321 323 335 329 334 336 336 335 335 333 333 333 328 323 324 327 329 330 331 330 331 331 330 330 330 331 330 330 334 338 339 338 337 336 335 332 330 327 327 326 325 325 324
314 317 320 333 330 334 334 332 332 332 333 332 327 324 318 322 326 329 330 330 328 331 330 329 328 328 329 330 330 334 338 338 338 336 334 332 330 328 327 326 325 325 325
307 311 314 319 331 327 326 332 333 332 328 332 331 322 319 319 320 324 328 329 328 328 329 329 327 327 328 328 327 327 325 326 332 335 334 332 331 329 328 327 326 325 325
304 307 311 316 321 330 329 331 334 333 331 327 330 331 323 320 317 315 322 328 329 328 327 327 326 326 326 325 325 322 319 318 322 330 332 332 331 330 328 327 326 325 325
300 303 307 311 316 323 330 331 332 331 332 330 329 327 323 319 318 315 312 322 327 328 328 327 326 325 325 324 323 321 315 314 316 323 329 331 331 331 329 328 327 326 325
297 300 304 309 316 319 321 329 331 332 331 331 332 330 327 323 319 317 313 316 321 324 327 327 326 327 326 326 325 319 314 312 313 317 323 327 329 330 329 328 327 327 326
294 297 301 303 308 312 318 324 329 330 331 330 330 329 329 328 326 321 318 314 315 317 320 325 326 327 327 327 326 319 314 309 310 313 317 320 323 326 328 327 327 327 327
295 297 298 300 302 307 310 315 325 328 329 329 328 322 321 321 328 325 322 315 311 313 314 317 327 327 327 327 325 315 323 309 308 309 311 314 317 320 322 323 324 324 325
297 298 299 300 302 305 309 313 321 325 324 323 323 320 319 320 320 329 325 322 319 309 315 315 317 327 328 327 324 324 324 313 307 306 307 309 313 316 317 319 320 320 322
299 300 300 301 303 304 305 310 316 323 322 320 320 319 320 318 322 323 327 327 320 320 313 320 318 320 327 326 322 324 323 315 308 306 304 305 307 311 313 314 315 317 318
296 300 303 303 304 305 306 309 315 321 321 322 320 320 320 322 323 320 321 326 325 319 315 315 317 318 323 324 324 323 323 322 321 306 304 303 303 305 307 308 309 312 314
292 292 294 295 298 299 304 307 310 319 320 319 319 323 324 325 324 323 320 323 324 323 318 317 315 316 318 323 324 321 322 323 323 312 305 303 303 302 303 304 305 306 308
289 289 290 291 291 292 297 302 305 311 312 312 311 315 316 314 320 325 325 325 325 323 321 315 315 317 317 317 319 319 320 321 322 314 304 302 302 302 301 301 302 303 304
286 287 287 288 289 289 290 292 294 296 296 295 296 295 297 300 309 324 324 324 323 321 319 317 313 313 315 315 316 314 316 319 319 320 313 308 304 303 302 301 301 302 303
284 285 286 286 287 287 287 289 289 289 289 290 290 291 292 293 292 294 312 306 318 320 317 315 312 313 313 313 312 311 313 313 317 317 317 318 314 311 309 301 303 301 301
281 281 283 284 284 285 287 287 287 287 286 286 286 288 289 291 292 289 290 290 290 299 306 307 307 306 301 296 295 297 299 304 305 304 312 316 313 315 312 311 295 298 298
278 279 279 281 283 284 286 286 285 284 284 284 284 285 285 286 289 289 288 287 287 287 287 294 291 288 289 286 288 291 294 294 297 299 296 299 295 296 292 292 292 293 294
276 276 278 279 281 284 285 285 285 284 283 283 283 283 283 284 285 286 285 284 282 284 284 285 284 283 284 284 284 286 287 287 288 290 292 290 288 288 287 287 289 290 292
274 275 276 278 278 281 285 285 283 283 282 282 282 283 283 283 285 285 282 281 280 280 283 284 285 284 284 284 284 285 282 283 285 286 286 286 285 285 285 284 285 288 289
274 275 275 276 279 278 283 284 282 281 280 280 281 281 283 282 283 283 281 281 279 279 280 280 281 281 282 282 283 281 280 280 282 285 282 283 285 285 285 283 283 284 285